GFSGL_850_spd_000.txt.gz
Wind_Speed
20 17 15 13 15 18 20 21 23 26 28 26 25 25 27 28 27 28 30 31 31 33 35 39 39 39 40 40 36 35 34 32 35 36 31 30 29 27 34 42 17 36 48
13 12 12 15 16 18 18 22 24 24 25 25 25 26 28 28 28 29 30 31 32 33 35 36 40 42 44 43 42 40 38 36 35 38 33 30 29 35 34 40 46 28 31
11 12 16 17 15 15 17 21 23 24 24 25 26 28 29 29 29 30 31 32 34 36 36 37 39 40 42 44 45 43 41 40 39 39 37 32 28 24 30 27 32 39 32
14 16 14 12 17 19 23 27 28 28 28 28 29 30 30 31 31 31 32 33 35 38 39 41 43 39 41 40 41 41 40 38 37 38 36 33 29 24 28 27 28 33 39
16 14 12 16 21 24 27 31 30 29 29 29 31 32 31 31 31 30 31 32 35 34 35 38 40 44 43 44 42 38 39 37 37 37 35 33 31 26 30 27 29 31 35
17 14 14 20 21 26 31 30 28 28 29 29 31 31 33 32 33 37 36 33 31 32 35 36 38 38 39 41 46 49 42 31 36 34 35 34 34 31 25 28 28 29 30
17 13 18 20 25 30 30 28 28 30 31 31 31 31 33 33 35 34 31 32 33 32 33 34 33 35 36 35 37 40 49 51 47 35 32 34 34 31 28 28 32 33 34
11 16 18 23 28 30 27 27 28 29 31 31 31 32 34 34 35 32 32 33 33 35 36 36 38 39 37 34 35 37 38 37 42 48 44 31 31 28 29 28 30 30 31
12 14 22 27 29 27 27 27 28 29 30 31 31 32 33 34 33 31 30 31 31 33 34 35 36 38 40 41 40 41 38 38 36 37 37 42 32 27 25 27 29 31 33
13 19 27 27 27 26 27 27 28 29 30 31 33 31 31 33 29 27 25 28 30 29 30 30 32 34 35 37 40 41 38 37 30 34 38 40 38 37 28 30 30 33 33
18 22 25 26 24 27 26 26 28 28 31 33 32 31 32 31 31 29 26 26 29 28 27 28 31 34 35 33 35 40 40 34 32 29 28 34 36 38 41 32 28 36 39
19 23 24 24 25 24 24 26 26 27 31 32 31 31 31 33 30 28 26 26 25 25 28 28 29 32 33 35 37 34 37 37 34 28 30 29 30 35 37 34 34 28 39
21 22 22 24 22 21 23 24 24 25 26 27 28 30 34 34 30 28 27 25 21 20 21 24 29 32 30 25 32 32 32 37 36 37 26 25 27 26 26 33 40 34 31
21 22 24 20 24 23 21 20 22 23 23 23 27 29 33 34 30 30 29 24 21 18 18 20 20 18 12 7 15 23 29 34 36 31 30 23 22 26 27 34 41 38 36
21 23 20 20 23 23 19 20 21 20 20 22 23 26 30 31 29 27 24 22 19 17 16 12 12 11 6 3 8 16 23 29 31 27 20 27 23 24 28 36 37 40 37
21 19 20 23 22 19 20 21 19 23 21 19 20 22 24 22 25 21 17 18 14 11 9 10 11 13 13 9 10 13 18 23 25 23 29 24 25 27 28 33 35 37 39
19 20 21 19 17 17 18 20 24 23 20 19 20 19 17 17 20 16 16 20 17 16 15 15 15 14 12 12 11 14 19 22 23 26 28 25 25 26 30 28 32 34 35
17 19 18 17 15 15 16 18 20 21 23 22 20 19 14 14 16 12 12 16 19 21 19 19 19 18 16 15 14 14 15 13 17 19 21 23 25 25 24 24 26 32 35
16 15 18 17 13 14 14 16 17 18 18 18 20 18 13 13 14 14 14 18 18 20 19 18 18 19 19 20 19 16 16 18 17 17 17 18 20 23 24 26 26 30 30
11 16 17 14 12 12 12 14 14 15 15 16 18 20 15 13 14 16 16 17 18 19 19 19 21 22 22 21 20 20 20 19 20 19 20 20 20 24 27 29 31 31 26
10 11 15 10 10 10 11 11 12 13 13 14 16 16 13 14 16 15 15 15 16 16 15 15 15 17 18 19 20 22 22 21 20 21 23 24 24 26 26 27 26 25 24
12 11 11 9 9 9 8 9 9 10 11 12 14 15 15 14 15 16 16 15 15 15 16 17 17 16 16 16 17 18 20 20 19 20 21 21 22 23 23 23 21 21 22
11 10 8 8 7 8 7 7 8 8 9 10 11 13 15 17 16 16 16 16 16 16 16 16 17 16 16 16 16 16 17 17 17 18 20 20 20 19 18 18 18 17 16
10 10 8 8 7 5 5 5 6 7 7 7 9 10 12 14 14 15 15 15 15 16 16 17 17 16 16 16 15 15 15 15 15 15 15 15 16 15 15 15 13 13 13
9 8 7 7 5 4 4 4 4 5 6 7 7 7 8 9 11 12 12 12 13 14 15 15 15 14 14 14 14 13 13 11 12 11 11 10 11 11 11 11 11 11 10
8 7 6 6 4 4 3 3 3 4 5 6 6 7 8 8 8 8 9 9 9 10 10 11 11 10 10 11 11 9 9 8 7 7 7 8 8 8 8 8 9 8 8

GFSGL_850_spd_003.txt.gz
Wind_Speed
21 21 17 16 14 16 16 11 13 19 20 23 25 25 25 26 26 28 29 32 33 34 34 36 39 40 41 42 41 41 41 37 37 37 33 33 35 30 28 24 30 40 27
16 16 16 14 13 12 14 16 17 18 22 23 25 27 28 28 28 30 32 33 34 35 36 36 38 38 41 43 45 44 42 40 39 39 36 36 35 35 33 31 33 36 37
14 14 12 10 13 17 17 17 18 20 22 25 26 28 29 30 30 31 32 34 34 36 37 38 39 39 41 43 44 42 42 43 42 39 41 36 38 35 32 29 32 31 33
13 12 12 14 15 16 16 16 18 21 24 26 27 28 29 30 31 31 32 33 34 36 37 38 41 42 44 42 40 39 39 40 40 41 41 38 38 37 35 32 33 34 32
13 14 16 15 16 15 16 18 21 23 25 26 28 29 29 30 31 30 31 32 34 38 39 39 41 43 42 46 43 39 35 36 36 37 40 37 36 35 34 32 28 28 31
18 16 14 15 15 15 17 20 23 25 25 27 28 29 30 30 31 35 39 36 38 39 38 37 36 36 37 39 42 47 48 40 37 28 34 35 36 35 32 32 28 28 28
12 13 13 13 14 16 19 23 24 25 26 28 29 28 29 30 33 36 40 39 38 37 36 36 36 35 35 35 35 37 39 43 52 53 41 30 31 32 32 32 31 30 27
12 12 12 13 15 18 21 23 25 26 26 27 28 28 30 31 35 36 34 34 36 36 37 37 38 39 39 39 39 37 38 38 38 45 58 53 34 29 24 20 25 30 26
10 10 12 13 17 20 22 24 25 25 26 28 27 28 31 33 29 27 26 28 30 32 33 34 35 37 37 37 38 40 43 38 35 38 38 50 55 44 33 23 18 23 23
11 10 12 14 18 21 22 24 24 25 27 28 30 30 30 30 27 28 29 31 33 36 36 33 31 32 32 32 34 37 41 41 39 39 33 39 36 52 46 35 23 28 26
10 10 13 16 19 20 22 23 25 26 27 32 35 34 30 28 31 32 33 29 31 34 33 32 31 32 31 30 32 33 36 34 36 35 33 34 33 34 53 41 34 25 30
9 12 15 17 18 20 21 24 24 24 26 32 32 31 31 31 33 35 35 31 32 31 30 28 27 27 30 34 36 35 37 36 34 33 33 31 29 32 35 37 28 27 24
13 14 16 18 19 19 21 23 23 23 26 29 29 32 34 36 36 36 34 32 31 28 25 23 25 25 26 28 27 30 39 36 35 33 30 30 29 27 29 29 27 31 30
13 15 17 17 19 19 20 20 21 23 25 27 30 32 35 37 36 34 35 31 27 22 20 20 16 18 20 19 19 19 24 33 31 31 30 25 25 24 25 27 31 30 29
14 17 16 16 18 19 18 19 21 23 24 28 27 29 32 34 30 31 25 27 23 17 14 15 13 14 14 11 8 2 16 21 23 26 25 23 17 21 21 27 33 28 26
19 14 17 19 18 18 20 21 19 22 25 23 23 25 26 23 25 24 21 18 21 17 16 16 15 14 13 12 13 7 13 16 19 22 20 19 17 22 23 25 23 25 29
19 19 18 15 16 18 19 20 23 24 23 22 23 22 18 16 20 21 16 19 22 19 21 21 20 18 17 12 11 15 12 12 15 16 12 21 17 15 14 16 20 25 27
17 18 14 16 16 16 18 19 21 21 25 25 22 22 15 13 16 17 18 17 22 25 24 22 23 21 18 16 13 14 11 12 13 13 15 14 14 13 13 15 20 21 26
16 13 18 18 14 16 17 17 19 18 19 21 21 20 16 15 14 13 16 20 21 24 25 25 24 23 23 22 16 14 15 11 10 10 13 15 15 15 17 17 18 21 25
11 17 20 14 13 14 15 15 16 16 17 18 18 23 19 18 18 18 19 19 20 22 21 20 22 24 23 21 21 19 16 18 15 14 14 14 16 15 17 19 20 21 20
11 11 16 12 12 13 14 14 15 14 14 15 16 17 15 16 16 17 19 19 19 18 20 20 19 19 20 20 21 20 20 20 19 17 13 12 11 15 23 24 24 26 28
11 11 11 12 12 12 12 12 13 13 12 13 14 14 14 15 16 17 18 18 19 17 15 16 18 19 18 18 17 18 19 21 19 19 20 20 21 21 21 22 22 23 23
10 10 10 10 11 11 11 11 10 11 11 11 11 11 13 14 15 15 16 16 16 16 17 17 16 17 17 17 17 18 17 17 16 16 17 17 18 18 18 18 18 18 20
11 10 9 9 10 9 10 10 10 10 10 9 9 9 10 11 11 12 13 13 14 14 14 15 17 16 15 15 16 16 16 16 15 14 14 15 16 16 17 17 17 18 18
12 9 8 8 8 8 8 9 9 8 9 9 8 8 8 7 8 9 9 10 10 11 12 13 14 15 15 15 15 15 13 13 13 12 12 13 13 12 12 13 12 12 13
13 11 7 6 7 7 7 7 7 7 7 7 7 7 7 8 8 8 8 9 9 10 11 11 12 11 11 11 12 11 10 9 9 12 12 11 11 11 11 10 10 9 10

GFSGL_850_spd_006.txt.gz
Wind_Speed
30 28 26 25 21 19 20 15 20 15 19 21 25 27 28 29 31 31 32 33 34 35 35 36 37 37 39 40 39 39 39 38 39 45 37 36 29 29 35 31 32 34 35
25 22 23 19 17 16 13 12 17 17 20 23 24 26 29 31 32 32 34 34 35 36 37 37 38 38 39 38 38 40 39 39 37 45 40 35 36 35 36 40 34 34 37
17 14 14 14 12 12 16 20 23 16 23 23 25 29 32 33 33 33 34 35 37 37 38 38 39 39 40 41 41 40 39 38 37 37 45 41 39 34 31 33 40 36 39
13 11 11 11 12 15 18 15 16 21 21 26 30 32 33 33 32 32 33 35 36 35 35 36 37 37 37 38 41 42 40 36 33 32 34 40 37 37 35 37 38 43 44
12 12 13 15 19 19 15 14 19 23 28 29 32 31 31 31 32 31 31 35 37 41 43 44 47 49 50 50 48 52 47 42 40 34 37 34 32 34 36 37 36 37 42
13 16 21 14 12 13 15 18 25 27 27 30 29 31 31 31 30 32 35 38 41 43 46 47 47 45 42 40 40 43 49 51 47 41 40 37 35 24 29 33 34 36 41
19 20 11 10 10 14 17 22 24 28 27 29 31 29 30 31 31 33 36 41 44 44 42 41 42 41 39 38 38 37 38 38 42 44 50 48 40 36 23 22 29 35 32
13 10 7 9 12 16 20 23 25 27 29 31 29 29 32 35 38 40 32 26 30 32 34 34 35 35 34 37 39 41 41 42 40 40 41 44 50 51 46 25 21 22 29
8 6 8 11 14 19 21 22 27 29 28 27 27 32 36 37 36 27 26 29 33 35 36 36 36 36 35 32 36 41 42 41 39 42 40 39 36 34 40 49 40 26 19
8 8 10 13 15 18 21 26 27 24 27 29 36 29 35 35 28 27 29 33 38 37 40 36 37 36 36 37 33 35 38 39 39 39 38 44 39 37 37 38 49 39 33
7 10 12 13 17 19 22 24 24 27 30 29 27 35 33 31 31 31 33 35 36 38 38 38 35 33 32 32 33 37 36 32 33 34 35 35 35 38 38 35 41 46 44
13 13 13 15 18 21 21 24 25 27 25 26 34 33 36 31 31 33 32 31 32 33 35 34 33 29 27 26 28 34 34 30 36 39 35 33 33 34 33 31 31 44 48
14 13 17 20 21 18 24 22 23 22 25 31 30 35 34 33 33 34 30 30 29 31 28 24 24 25 22 21 23 26 28 34 40 38 35 33 31 28 27 27 26 32 29
16 17 20 20 20 23 21 19 21 24 27 30 33 31 32 34 35 30 33 30 29 28 23 21 17 16 16 18 19 19 20 25 31 32 34 29 26 23 24 21 26 25 29
18 20 18 19 22 20 18 19 20 22 25 27 27 28 30 33 28 29 28 24 25 21 21 19 17 17 17 14 14 13 9 7 14 20 25 22 23 24 23 21 24 26 27
21 20 20 19 17 17 20 21 21 20 23 23 23 24 27 23 22 24 20 17 22 20 20 23 23 18 20 18 18 8 5 5 8 13 16 16 12 15 21 22 20 20 22
20 18 18 14 17 18 19 23 25 26 24 22 24 25 23 17 20 20 16 15 19 24 25 26 26 26 19 17 17 16 6 3 5 8 12 9 15 13 21 17 15 19 25
20 18 14 19 20 17 19 21 21 24 27 25 23 25 21 16 18 17 14 14 21 23 25 28 29 24 24 19 16 15 13 9 5 3 7 16 13 11 9 10 14 16 21
17 17 17 23 19 15 17 20 19 22 21 22 24 25 21 18 16 18 17 19 21 24 24 25 25 26 23 20 17 17 14 11 7 7 10 10 8 6 8 9 13 14 19
11 14 17 21 16 17 18 19 18 20 19 20 21 23 22 19 20 21 22 21 20 20 22 23 23 22 24 24 19 15 16 16 14 11 8 8 10 11 13 16 17 20 21
12 15 15 15 16 17 17 18 16 18 17 17 17 18 17 16 18 20 21 21 21 20 19 20 21 22 22 21 22 21 17 16 14 12 8 8 10 13 14 15 19 20 21
10 13 12 13 14 16 16 14 15 16 15 15 15 16 15 15 16 17 18 19 19 19 19 17 17 17 19 21 21 20 21 19 15 13 13 11 11 12 13 15 17 18 18
11 14 14 11 14 17 12 14 14 13 15 13 12 14 14 14 14 15 15 16 17 17 18 18 18 18 16 16 18 20 20 17 16 15 15 15 13 11 10 12 14 16 17
11 16 15 13 11 12 12 13 12 12 13 13 11 12 12 12 12 12 13 13 14 15 16 16 17 17 16 16 16 16 16 16 14 13 12 14 14 14 15 16 16 16 16
15 16 12 12 11 12 11 10 11 11 11 12 12 10 11 11 11 11 11 11 12 12 13 13 13 14 14 13 14 14 13 12 13 14 12 11 11 11 10 12 13 14 15
14 14 13 11 9 11 10 8 9 9 8 9 10 10 8 9 10 11 11 12 12 12 13 13 14 13 12 12 12 11 10 10 9 9 9 9 11 11 10 10 11 13 15

GFSGL_850_spd_009.txt.gz
Wind_Speed
29 31 32 29 24 22 20 17 16 20 26 21 29 16 17 22 27 30 32 34 35 36 35 35 36 35 35 35 34 33 35 36 40 39 36 34 35 36 38 36 27 31 33
28 29 26 22 20 16 15 16 17 17 17 21 13 17 24 27 30 33 35 36 37 37 37 37 38 38 39 39 38 38 38 38 39 45 37 36 35 32 33 34 32 34 37
28 27 19 15 13 14 13 10 12 17 18 17 17 22 27 32 34 35 36 35 35 35 37 37 38 37 38 39 39 38 38 36 36 41 38 32 29 29 29 31 34 32 32
23 19 16 12 8 9 13 13 11 15 14 19 23 29 31 33 34 32 33 34 33 34 34 33 34 36 39 40 42 45 46 45 43 45 49 42 36 32 29 31 34 33 38
15 10 9 10 12 14 16 19 10 15 21 26 28 29 33 32 33 32 29 32 37 41 44 45 46 47 48 49 51 54 48 45 42 43 47 42 40 33 27 27 29 33 33
16 19 16 14 16 21 13 15 16 21 25 25 30 30 31 34 31 31 34 37 40 42 46 48 48 45 41 40 40 40 40 40 40 39 43 42 39 35 30 28 22 22 29
24 21 21 24 15 11 10 11 21 23 27 30 32 34 32 30 32 35 39 41 38 35 32 33 34 34 34 35 34 34 35 36 37 39 44 41 36 35 34 39 35 29 18
16 8 6 5 4 6 15 19 23 26 28 32 31 28 30 33 36 35 30 27 29 30 31 33 36 36 35 34 34 35 34 34 35 38 41 42 40 36 36 35 37 44 34
9 3 2 6 12 14 18 20 23 28 31 28 28 32 35 31 36 31 27 27 31 34 35 37 37 33 41 35 34 39 41 42 36 34 36 36 37 36 32 31 32 32 38
2 6 6 10 16 16 18 22 27 27 26 30 30 26 28 36 33 27 25 29 33 34 34 34 35 35 34 33 32 34 36 36 36 35 35 35 35 35 35 35 33 34 31
3 8 16 15 16 18 23 25 24 26 26 23 25 30 29 32 27 26 25 27 28 32 33 36 33 30 29 28 30 31 34 33 33 37 34 31 30 30 32 35 38 37 35
15 14 15 17 19 21 21 22 24 23 23 26 30 31 30 26 26 29 23 25 26 28 30 30 29 26 24 24 26 29 31 31 31 29 35 34 33 29 28 29 31 35 38
15 17 17 19 19 19 22 22 20 21 25 27 30 29 30 29 30 25 24 27 25 26 24 24 23 19 18 18 18 20 21 25 29 33 38 34 33 28 27 27 28 30 30
18 19 19 19 19 20 18 17 19 21 26 26 26 27 30 29 31 24 28 28 21 22 21 20 22 17 16 15 16 15 13 18 23 27 31 28 32 29 25 25 24 27 30
21 21 19 18 17 15 17 18 19 21 18 23 23 24 26 29 24 24 24 20 20 19 20 20 22 19 17 16 12 8 11 14 6 11 17 17 19 22 22 19 21 25 26
20 20 16 15 15 21 19 18 15 17 19 19 17 20 26 18 19 21 17 12 11 16 22 27 23 23 20 19 18 10 10 12 10 6 1 6 12 14 15 19 18 24 22
21 16 14 14 20 22 16 17 22 20 21 17 18 22 20 13 17 17 11 8 10 14 19 21 26 22 20 20 18 17 13 8 8 5 1 5 8 7 11 15 19 18 15
16 14 16 16 20 18 15 18 18 20 23 21 20 23 19 14 14 12 9 8 12 15 19 20 23 26 22 20 18 16 14 13 7 2 2 3 6 4 5 8 9 10 14
13 13 12 15 20 16 16 17 18 17 18 19 20 21 19 15 13 13 11 14 16 16 17 18 19 22 24 21 19 17 14 13 10 10 11 9 4 1 4 6 7 9 13
11 13 15 18 16 16 17 18 15 16 17 17 18 20 19 15 16 17 17 16 15 15 16 16 17 18 20 22 19 19 17 15 12 10 5 3 1 3 4 5 6 8 11
13 11 13 14 12 14 18 14 15 16 17 14 15 16 15 14 14 15 17 17 17 16 15 16 16 16 17 18 20 21 19 19 18 13 9 7 4 7 8 7 8 9 11
14 12 15 14 11 15 14 14 14 14 15 14 13 14 13 13 13 13 14 16 16 16 16 15 15 17 18 17 17 18 20 19 18 16 13 10 8 6 5 7 9 10 12
15 13 16 13 12 13 12 13 12 13 13 14 12 13 12 12 12 12 13 13 13 14 15 16 16 15 14 15 16 16 17 16 15 14 14 11 9 8 7 7 8 9 11
17 15 15 12 13 11 11 11 11 12 12 13 12 11 12 11 11 11 11 11 11 12 13 13 14 14 13 13 14 15 14 13 12 11 12 12 13 12 11 11 10 10 11
15 15 14 14 11 11 12 11 10 11 10 11 12 11 10 10 10 10 10 11 12 11 12 13 13 13 12 11 12 12 11 12 13 12 11 10 10 11 12 12 13 12 11
12 13 13 11 11 12 11 10 10 10 8 10 12 10 8 8 9 10 10 11 11 12 13 13 14 13 13 13 13 12 10 10 11 11 10 10 10 11 9 9 10 10 10

GFSGL_850_spd_012.txt.gz
Wind_Speed
29 29 30 29 29 27 20 19 18 19 16 22 22 19 17 12 13 18 24 27 30 33 34 36 38 37 37 36 35 36 36 35 40 35 33 32 31 30 31 31 32 37 36
32 35 29 24 22 16 13 12 13 15 18 13 13 12 13 16 19 23 28 30 33 35 36 35 36 34 35 36 36 36 37 38 39 40 35 33 30 27 26 27 27 29 31
33 29 26 21 15 13 13 13 14 13 10 11 12 16 18 21 27 29 30 33 33 35 35 35 36 36 38 38 37 37 38 39 40 40 38 35 36 35 35 36 37 33 33
34 25 14 11 11 11 11 10 10 9 7 13 16 20 24 27 29 32 32 33 36 33 34 34 37 40 42 44 44 44 44 45 48 44 42 37 34 33 32 32 33 34 36
31 25 19 16 15 12 9 9 10 17 16 15 22 25 26 29 30 32 34 34 34 38 40 43 45 46 47 47 46 47 44 45 46 43 42 34 35 32 30 30 33 31 32
29 21 21 18 16 17 15 13 12 12 13 19 24 26 28 32 32 29 30 33 38 43 44 41 36 32 31 30 31 32 33 35 38 37 36 34 34 31 31 32 33 30 28
14 14 15 13 12 12 7 4 8 13 19 24 26 29 32 28 29 31 35 34 37 35 34 33 32 32 32 33 35 35 33 33 35 35 36 36 36 33 31 31 31 34 37
9 8 7 6 7 4 6 10 17 21 24 27 30 29 30 32 32 31 34 35 33 31 30 32 35 36 36 35 35 35 36 36 34 34 35 34 32 33 35 33 31 30 30
9 8 6 3 8 13 19 20 21 23 27 29 28 31 29 29 32 34 32 28 28 30 33 32 31 32 32 32 32 34 37 39 36 34 32 32 30 28 28 27 30 30 34
5 8 10 12 18 17 19 21 23 25 25 28 27 25 29 33 29 25 23 23 28 29 30 29 30 30 28 28 29 30 33 34 34 33 32 32 28 27 28 33 34 34 32
9 14 16 16 18 19 21 21 21 25 25 24 26 28 28 23 24 21 21 21 24 28 30 32 31 27 27 27 26 26 29 29 31 31 31 30 28 27 26 27 32 34 34
13 14 16 18 20 20 20 21 22 21 22 25 28 28 24 23 22 24 19 20 21 24 27 28 28 27 28 25 24 22 23 24 28 31 31 31 29 27 26 25 24 27 30
15 17 21 21 20 20 22 20 19 21 22 25 24 26 26 26 29 21 20 21 20 21 23 23 22 24 21 20 20 19 21 23 26 29 30 29 30 30 24 20 22 23 23
19 22 24 21 21 19 17 18 19 19 19 20 25 25 25 29 26 21 25 23 19 16 18 22 20 19 13 14 12 9 8 12 18 23 22 22 24 23 24 26 23 21 21
21 22 21 19 17 15 18 16 15 15 16 21 21 21 25 28 22 22 24 18 16 17 19 19 23 20 19 19 14 10 10 12 15 7 7 11 12 13 17 18 21 20 24
20 21 17 15 14 18 18 16 13 16 17 18 15 19 23 17 19 22 18 13 14 13 13 18 23 21 20 20 19 17 14 13 12 10 6 4 1 4 8 13 17 22 21
21 18 15 14 15 19 18 18 21 20 18 16 16 18 18 15 18 17 13 10 9 10 12 16 18 20 20 20 18 17 17 14 11 5 5 4 5 7 10 13 15 16 17
20 17 16 13 16 17 17 18 19 20 21 19 17 19 17 14 14 13 9 7 6 10 13 15 17 17 17 18 18 18 16 15 15 10 5 6 7 7 6 3 4 7 8
18 17 15 14 16 16 17 17 18 16 18 18 17 17 17 14 12 11 10 8 10 12 13 14 15 17 18 17 17 18 16 15 13 12 7 3 3 4 3 2 2 4 5
16 16 13 17 18 15 15 18 15 16 16 17 16 18 17 15 14 14 12 12 10 10 12 13 14 15 17 19 19 19 20 19 15 12 10 8 6 5 4 3 2 4 4
13 12 12 17 15 13 16 14 15 14 16 16 14 16 15 13 12 12 13 12 12 12 11 11 12 13 15 16 17 19 21 21 19 15 12 11 9 4 4 4 3 2 1
13 12 13 17 15 14 13 14 13 14 15 14 14 14 13 11 10 11 10 10 10 11 11 11 11 13 14 16 17 17 18 19 20 18 14 11 10 8 6 4 4 3 3
14 15 15 15 13 13 13 14 13 13 14 13 14 14 13 11 10 9 9 9 8 8 9 8 9 10 12 13 14 15 17 18 17 16 16 14 12 10 8 6 5 4 4
13 14 16 14 14 13 14 15 14 13 13 12 13 14 12 11 9 9 9 9 10 10 8 8 8 9 10 10 12 13 14 15 15 15 14 14 13 12 11 9 9 8 6
12 10 12 13 12 13 14 14 13 13 12 11 13 12 10 10 9 8 8 10 10 9 10 10 10 10 10 11 11 12 13 13 14 14 13 11 10 11 11 11 11 8 7
7 10 13 12 12 12 14 13 12 11 11 12 12 11 9 8 8 10 9 8 9 10 11 11 12 12 11 12 13 13 12 12 13 14 14 13 10 8 7 7 7 8 8

GFSGL_850_spd_015.txt.gz
Wind_Speed
27 30 35 37 29 27 26 26 26 18 18 14 16 22 22 8 9 11 14 17 21 24 27 30 33 32 33 33 32 31 31 33 39 38 32 33 36 36 35 35 32 31 31
30 34 41 36 28 28 22 17 15 13 16 21 19 11 8 10 14 17 20 25 26 28 31 31 33 34 35 34 33 34 34 35 37 41 36 33 33 32 32 30 31 31 30
34 40 42 37 24 18 15 14 14 12 9 11 10 11 12 14 19 22 25 28 30 31 32 33 34 32 34 34 33 35 36 38 39 41 40 35 35 38 40 39 38 39 38
40 40 35 27 21 16 14 10 7 8 9 8 15 15 18 22 23 26 30 31 34 34 33 33 34 36 39 41 43 45 46 46 45 42 42 35 33 32 33 38 41 39 40
38 36 24 19 16 14 16 15 13 11 16 15 18 20 23 26 29 30 32 30 30 33 36 39 41 41 40 37 35 36 34 36 36 33 32 31 30 29 30 32 37 38 38
27 20 16 15 14 8 10 17 18 9 11 15 19 23 27 29 30 28 29 32 35 37 37 38 39 35 33 32 31 31 31 32 34 34 34 34 31 30 30 30 32 33 36
14 13 10 8 8 9 10 12 12 13 16 19 22 26 30 29 30 30 30 31 35 36 36 35 33 32 33 35 35 34 34 35 35 35 37 36 37 34 31 30 30 30 33
15 13 13 12 11 10 13 17 17 18 20 24 27 28 29 30 29 31 33 33 33 33 30 29 30 31 30 30 30 34 34 34 34 36 36 35 34 31 31 29 29 32 32
9 7 7 11 16 17 19 18 21 23 24 25 27 28 28 30 31 30 28 28 29 29 27 26 28 29 27 27 28 30 32 34 33 33 35 33 29 27 26 27 28 32 33
9 11 14 15 16 18 21 23 22 23 25 26 26 27 29 30 25 25 24 26 28 27 27 27 28 28 29 26 28 31 35 34 33 30 29 28 27 28 26 29 32 35 31
13 16 14 17 20 23 23 23 24 25 24 24 27 29 26 24 24 23 24 20 23 27 27 27 29 30 29 27 29 34 32 30 28 27 27 29 29 27 28 28 30 33 37
17 16 19 22 23 23 23 23 22 23 25 27 27 27 27 22 22 27 20 19 21 22 24 24 27 29 29 30 26 24 24 26 24 24 26 28 29 30 29 25 26 27 30
16 21 23 24 22 22 21 21 23 23 24 25 26 29 28 27 28 24 21 22 23 19 20 23 26 27 22 19 18 17 16 16 17 20 23 25 25 26 23 22 20 18 21
19 23 24 24 21 19 19 21 21 21 24 24 26 28 28 30 30 24 26 28 21 20 22 22 21 17 14 15 14 12 11 10 12 17 19 16 16 17 18 16 18 21 18
20 21 22 21 19 19 20 21 20 20 21 24 25 24 27 30 26 25 27 24 20 20 20 18 19 16 15 15 15 15 13 11 12 13 12 6 5 7 9 13 14 19 18
21 22 22 20 19 19 22 23 18 20 21 20 21 20 24 21 22 24 23 18 17 17 15 16 18 17 18 18 18 18 17 16 15 12 11 9 6 4 3 5 7 13 16
21 23 22 19 18 20 22 21 24 24 20 21 20 19 21 19 20 21 20 14 13 13 12 14 17 18 19 19 17 16 17 17 15 11 9 11 9 9 8 11 11 11 14
20 22 21 18 17 20 20 21 22 23 24 24 21 19 20 17 17 18 17 12 9 9 12 14 16 18 19 20 19 18 16 14 14 12 7 9 11 11 10 9 6 4 6
21 21 20 17 18 20 19 18 21 19 20 21 22 18 18 17 15 14 13 13 12 12 13 14 15 16 17 19 20 20 19 17 15 13 11 9 8 8 8 6 4 3 3
19 16 17 18 20 21 18 19 18 18 18 20 20 20 20 18 16 15 14 13 13 12 12 13 14 15 16 18 19 20 21 20 18 16 15 13 11 9 9 9 8 6 4
12 13 15 17 20 18 18 16 17 17 17 18 18 18 18 16 15 14 13 13 12 12 12 12 13 14 15 16 17 18 20 20 21 19 16 14 12 10 10 10 10 9 8
12 15 17 17 18 17 17 16 17 17 16 17 16 17 16 14 12 12 12 11 11 11 11 12 12 14 16 17 17 18 18 19 19 20 19 16 13 11 10 9 9 9 8
12 14 18 18 18 17 16 16 16 15 15 15 15 16 15 13 12 12 12 11 10 10 11 11 11 11 11 13 14 16 18 19 18 17 17 16 16 14 12 10 10 9 8
11 13 15 17 16 15 15 16 15 15 14 14 14 14 13 13 12 11 11 10 11 10 10 11 11 11 11 11 12 13 14 15 16 16 15 14 15 15 14 12 11 11 10
11 10 13 16 14 14 15 16 15 13 12 12 13 13 12 11 11 10 11 11 10 10 10 11 11 11 12 12 12 13 13 13 14 16 16 13 12 12 12 12 12 11 10
8 10 13 15 14 13 14 15 15 13 11 12 12 12 9 8 7 9 11 11 11 11 11 11 12 12 12 12 14 14 14 14 15 16 15 14 13 11 10 10 10 10 10

GFSGL_850_spd_018.txt.gz
Wind_Speed
34 34 38 40 42 41 31 24 23 19 14 8 8 13 20 22 11 8 11 12 14 17 20 22 25 26 28 28 29 29 29 29 33 38 34 33 34 33 31 31 31 29 29
35 36 41 41 44 33 24 17 9 6 8 9 13 10 9 10 11 14 16 19 21 23 26 28 29 30 32 31 30 31 31 30 30 36 36 34 36 36 33 32 34 32 33
33 38 42 42 34 24 15 9 8 10 15 16 19 14 14 16 16 19 21 23 26 28 30 32 31 30 31 31 32 34 36 38 40 41 44 40 38 41 41 40 40 40 38
33 37 37 32 25 16 11 12 13 14 13 15 16 17 17 17 20 23 25 28 31 31 31 31 33 34 36 37 37 38 37 36 35 34 36 37 32 33 33 33 36 36 37
35 33 25 21 19 18 16 15 13 17 16 12 15 17 20 24 27 29 30 30 31 33 34 34 35 34 35 34 33 33 32 32 31 30 32 34 32 29 31 30 32 32 33
35 24 18 17 14 12 13 15 15 16 18 18 18 19 24 27 29 29 29 30 31 33 35 36 34 33 31 28 27 26 28 30 32 33 35 36 34 32 30 29 30 29 34
27 23 17 13 13 13 15 15 18 20 18 19 22 26 28 28 28 29 30 32 32 31 31 31 30 29 27 26 26 26 26 27 28 31 36 37 39 36 35 33 33 32 33
23 17 15 15 16 17 19 19 20 20 23 25 25 26 27 27 29 31 30 29 28 29 29 29 27 26 25 24 25 28 29 30 30 31 33 35 34 33 34 36 32 32 32
15 13 14 17 18 19 20 22 24 24 23 24 25 25 27 30 29 27 26 28 29 29 28 23 23 23 24 24 26 29 30 30 27 28 30 30 30 29 29 29 31 31 32
11 14 18 18 19 22 25 24 23 24 24 24 25 26 27 27 27 25 24 29 27 26 25 26 22 23 24 25 28 30 33 29 27 34 33 29 26 25 27 28 32 34 31
13 19 17 22 23 25 24 23 23 23 24 25 27 26 25 26 25 23 25 22 23 26 27 25 23 24 28 32 28 27 29 27 26 24 27 27 25 24 26 28 30 33 35
18 19 20 24 25 25 24 22 22 23 24 24 26 28 27 27 23 26 23 21 21 25 21 22 24 26 30 26 23 22 20 20 20 20 21 24 26 26 25 24 26 28 30
19 21 24 25 24 23 22 23 24 24 24 27 28 31 32 30 28 26 23 25 25 19 19 23 23 23 23 18 16 14 12 11 11 12 15 19 20 19 19 21 20 18 19
19 22 22 24 23 22 22 23 24 23 25 26 29 29 30 31 30 27 29 28 24 20 21 20 20 20 16 14 13 14 13 12 11 11 15 15 10 6 9 12 16 16 18
20 20 22 23 23 23 21 22 23 21 23 26 25 27 27 29 27 25 26 26 20 20 17 17 17 18 17 15 13 13 14 13 12 11 12 13 10 6 4 5 8 11 15
19 20 22 23 22 21 22 25 20 20 23 21 22 22 21 22 22 23 25 21 17 16 14 14 17 19 20 20 20 15 14 17 14 10 10 11 10 8 6 4 5 10 12
19 20 22 23 23 21 23 24 26 24 21 20 21 21 20 21 20 22 22 17 13 12 12 14 16 19 21 22 22 20 16 16 15 12 10 11 11 11 11 6 5 9 11
18 20 22 21 22 19 23 23 22 25 26 25 22 21 21 19 18 19 19 15 11 12 14 15 17 18 19 21 21 22 17 17 15 14 12 10 10 9 9 7 8 6 2
19 20 18 19 20 21 23 22 21 21 21 23 24 21 19 19 17 16 16 17 16 14 15 15 16 17 18 19 19 20 20 18 17 15 13 12 10 10 8 6 3 3 3
18 15 14 17 19 22 21 21 20 20 21 21 22 23 22 20 18 18 17 16 14 14 14 15 16 17 18 18 19 19 19 20 20 19 16 14 13 11 11 10 9 7 5
15 12 14 17 19 21 20 20 20 20 20 20 19 20 20 19 18 17 17 16 14 13 13 14 15 16 16 17 17 18 18 18 20 20 20 17 14 11 11 10 9 8 7
14 13 12 17 20 20 19 18 18 18 17 18 18 19 18 16 16 15 16 15 13 13 13 15 15 16 17 17 18 17 18 19 19 19 20 18 15 13 12 10 9 8 8
11 11 12 16 18 17 15 16 18 17 17 16 16 18 15 15 15 15 14 13 14 14 14 14 13 12 13 14 15 16 18 19 20 18 17 17 17 16 14 12 11 9 8
11 11 13 14 16 16 14 15 17 17 15 14 15 16 14 13 13 12 12 13 13 14 14 14 14 14 14 14 14 15 15 16 17 17 16 14 14 15 15 14 13 12 10
12 10 11 15 16 17 15 14 16 17 15 14 13 14 12 9 10 9 10 13 13 13 13 13 13 14 14 14 14 15 15 14 15 15 16 16 14 12 12 12 13 12 11
9 11 13 16 17 17 17 15 14 16 16 13 13 13 10 9 8 8 10 11 12 12 12 12 12 12 13 13 14 15 15 15 16 16 16 15 15 14 13 12 11 11 10

GFSGL_850_spd_021.txt.gz
Wind_Speed
29 28 29 32 38 42 39 30 20 13 5 6 12 12 14 10 6 8 8 10 12 14 15 16 18 20 21 19 19 20 22 22 27 30 26 24 25 25 24 25 25 26 26
32 31 32 36 39 38 28 22 9 5 9 10 14 16 15 14 13 14 15 15 16 18 21 23 25 24 23 21 20 21 21 22 25 29 29 27 27 26 26 27 27 27 27
29 30 32 34 32 25 21 19 14 15 16 17 17 18 17 15 16 16 18 21 23 25 26 26 26 25 24 20 22 24 24 25 26 29 32 29 28 27 29 28 28 29 30
31 30 31 24 22 21 15 14 16 17 15 17 14 15 17 17 20 23 26 28 29 29 29 30 29 27 25 24 23 23 23 24 24 26 28 28 26 25 26 27 28 25 26
26 27 22 22 18 13 12 11 12 14 17 19 20 19 20 21 24 28 30 30 29 29 29 29 29 29 29 28 25 24 24 25 24 24 25 27 26 23 25 23 26 24 25
26 26 20 19 11 14 13 17 17 18 20 19 17 20 23 26 26 26 26 27 29 29 27 26 26 27 25 25 24 23 23 25 25 26 27 30 28 27 26 27 28 26 27
24 17 15 14 14 14 16 19 20 21 21 21 23 24 25 26 25 26 28 27 26 25 26 25 24 22 22 20 21 22 23 25 27 28 31 31 30 28 27 27 28 30 29
13 10 13 15 16 16 18 22 24 23 22 23 24 24 24 25 26 26 26 25 23 23 25 22 21 20 20 20 20 22 23 24 25 28 31 31 30 27 27 27 28 29 30
13 11 15 15 18 21 23 26 24 24 24 24 23 24 26 25 24 25 23 21 22 24 20 19 20 21 19 19 19 24 27 28 28 30 29 30 29 27 27 28 30 26 28
14 14 16 19 20 23 25 24 24 23 23 23 24 23 23 24 24 22 21 20 20 20 20 19 21 18 18 19 22 28 29 26 24 24 26 27 28 28 27 29 32 30 27
17 18 18 20 23 25 24 23 23 22 22 22 23 23 22 23 23 21 20 18 18 20 21 20 19 20 20 21 25 21 22 25 24 22 21 20 21 22 23 23 25 29 30
19 20 20 22 23 23 23 21 21 22 23 24 25 23 20 23 22 22 19 19 19 21 19 18 20 23 21 20 16 17 18 18 16 15 14 14 16 18 19 20 20 23 26
20 18 20 19 21 22 22 21 22 22 22 22 20 21 22 21 19 21 22 23 22 18 16 17 19 19 18 14 11 12 13 11 12 11 11 13 14 14 15 15 15 15 16
18 19 18 19 20 21 20 19 20 19 19 19 20 21 22 21 21 21 23 22 21 17 18 14 14 14 13 12 10 9 10 11 10 10 10 11 12 9 6 7 10 11 13
18 18 17 19 20 20 19 19 20 18 20 20 18 19 21 20 21 22 23 23 18 17 13 11 12 14 15 15 11 7 9 12 10 8 9 10 10 8 6 4 6 7 10
17 16 17 19 20 20 19 21 17 16 19 18 18 19 18 17 19 20 22 18 15 12 9 11 13 15 17 18 18 15 11 12 13 10 8 9 10 10 7 5 3 5 8
16 16 17 19 18 18 19 22 22 21 18 16 18 18 19 18 17 18 19 16 11 8 11 13 15 15 16 17 19 19 16 14 13 12 10 9 8 8 7 8 5 5 7
15 16 17 15 15 18 20 21 21 21 23 22 20 20 20 18 16 16 16 13 11 11 13 15 16 16 17 18 18 19 18 16 14 13 12 10 9 8 8 5 5 5 2
15 16 12 11 14 17 19 19 19 20 21 21 21 20 20 18 16 15 15 14 14 13 13 13 15 16 17 17 17 17 16 17 16 14 13 12 11 10 8 6 4 3 2
14 11 10 12 15 17 19 18 18 19 19 19 19 21 22 20 18 18 17 15 13 12 12 13 14 15 15 16 16 17 16 16 17 17 15 13 11 10 9 8 7 5 3
12 12 11 12 14 18 18 17 17 19 18 17 17 18 18 18 17 16 16 15 13 13 13 14 14 14 14 15 15 16 17 16 16 17 18 16 13 11 10 9 8 6 5
13 13 11 10 13 16 15 15 16 18 17 16 16 16 15 15 15 14 14 14 15 15 14 14 14 14 14 15 15 16 16 17 16 16 17 17 15 13 11 9 8 7 6
12 9 9 10 12 15 15 15 15 17 17 15 15 15 14 13 13 12 12 13 13 14 14 13 13 13 13 14 14 15 16 17 18 17 16 15 14 14 12 11 9 8 7
12 10 9 10 13 15 16 15 15 16 16 15 14 14 12 10 11 11 10 11 13 13 13 13 13 14 14 14 14 14 14 15 15 15 16 15 13 12 11 11 11 10 9
9 8 9 11 14 15 16 16 15 15 15 15 13 13 12 10 9 8 10 10 11 13 12 12 12 12 13 14 13 14 15 14 15 14 14 15 14 12 11 11 10 10 9
11 10 10 12 13 15 15 15 15 14 14 15 13 12 10 9 8 7 8 8 10 11 11 11 11 11 11 12 13 14 14 14 15 15 14 13 13 12 12 11 10 9 9

GFSGL_850_spd_024.txt.gz
Wind_Speed
18 19 19 20 21 21 21 19 16 9 8 13 14 15 17 15 13 11 11 11 11 11 12 13 14 17 18 18 18 19 21 21 27 29 25 24 25 25 25 25 25 24 24
20 20 21 22 20 18 17 13 10 7 15 18 18 17 19 14 14 13 13 12 12 14 16 17 19 19 20 20 20 22 23 23 26 30 29 29 28 27 28 28 27 26 27
22 20 20 21 18 16 13 10 11 12 13 14 11 13 14 13 11 11 13 15 16 18 19 19 19 19 20 20 21 23 23 24 25 27 32 29 29 28 29 28 28 28 28
19 19 21 16 18 15 12 12 11 11 11 12 15 17 17 17 15 14 15 18 19 19 19 19 20 20 21 21 22 23 24 25 25 26 29 30 27 26 27 28 29 27 29
18 20 18 13 15 16 12 13 12 15 16 17 18 15 14 16 17 23 24 20 20 21 21 21 20 21 26 28 25 23 24 26 26 26 27 28 27 25 27 27 28 26 27
18 17 11 10 10 11 12 13 13 15 17 16 16 17 17 17 21 24 25 23 21 21 21 20 21 22 23 24 27 27 24 24 23 23 25 27 26 25 24 24 25 26 29
16 14 11 11 10 10 11 14 16 18 17 17 17 17 17 16 23 25 26 25 21 21 22 22 23 22 23 22 22 24 26 25 25 25 29 30 29 26 25 25 26 26 28
15 14 12 12 11 12 14 15 18 17 17 18 17 16 17 17 25 25 26 24 20 21 22 23 22 22 20 21 20 20 21 22 22 25 27 29 29 29 29 28 27 26 27
14 12 13 15 15 14 16 17 17 17 17 17 16 18 18 19 22 25 25 20 21 23 21 20 20 21 22 22 21 23 22 23 25 29 31 32 34 34 34 29 28 24 29
10 12 14 14 15 16 16 16 16 16 17 17 17 18 19 19 20 21 20 20 21 21 21 20 21 22 20 19 20 23 23 25 21 23 24 25 25 26 29 33 34 35 31
14 15 15 15 15 16 15 15 16 16 17 20 20 19 18 19 22 20 20 19 20 21 21 21 18 19 21 24 23 23 22 22 23 21 20 19 18 19 21 23 26 29 30
16 15 14 14 14 14 15 15 16 16 18 20 20 19 16 20 20 19 22 19 22 22 21 19 19 23 23 21 18 16 16 17 15 16 15 15 14 15 16 19 21 23 24
14 13 14 13 13 14 16 16 16 16 16 18 17 18 18 18 18 21 21 22 21 21 18 19 17 19 18 13 13 12 11 11 13 12 12 13 13 14 13 14 18 19 19
14 13 13 12 14 14 14 13 14 15 15 15 17 18 19 19 18 19 20 21 21 17 19 14 15 13 11 12 11 9 7 9 11 11 11 11 11 12 11 8 9 11 13
13 12 12 11 12 13 12 12 12 12 16 15 15 16 18 18 18 20 21 22 19 18 14 11 10 11 10 11 11 9 8 8 10 9 9 9 9 10 10 8 7 7 10
12 11 11 13 11 10 11 12 16 19 18 16 16 18 15 16 18 18 19 18 15 12 8 9 10 12 11 12 13 13 12 11 11 11 9 9 9 9 9 10 8 5 7
14 13 10 12 9 9 10 11 13 13 18 20 20 18 17 17 16 16 15 13 11 8 7 9 11 13 13 13 12 12 13 13 11 11 11 11 11 8 9 9 8 7 8
12 12 13 9 8 9 11 12 11 12 13 14 16 20 18 15 14 14 13 10 9 9 9 10 11 12 13 13 14 13 13 14 13 13 12 12 11 10 11 9 8 8 6
12 9 10 8 9 11 12 12 11 11 12 13 13 13 15 15 16 15 13 10 9 9 9 9 11 12 12 12 13 13 14 14 15 14 13 13 11 11 10 10 10 10 7
9 10 7 7 8 9 10 11 10 10 11 12 12 12 13 11 11 11 11 11 9 9 9 9 10 10 11 12 12 13 13 14 14 14 14 13 12 11 10 11 10 10 8
6 8 10 8 7 9 10 9 9 10 10 11 10 12 15 9 10 9 9 10 10 10 10 10 10 10 10 11 11 12 13 13 13 13 14 14 14 13 11 11 10 9 9
6 8 6 6 6 7 9 9 9 9 9 10 9 10 14 9 8 8 8 10 11 11 11 11 10 11 11 12 12 13 13 13 14 14 13 14 14 13 12 12 10 10 9
7 8 6 6 6 9 8 9 10 10 9 9 8 8 7 6 6 6 8 9 10 11 11 11 11 11 11 12 13 13 15 15 15 15 15 13 12 12 12 11 11 10 10
8 6 6 6 8 9 9 10 11 11 12 9 8 7 7 6 5 7 7 8 8 10 11 10 10 10 11 11 12 12 13 14 14 14 13 13 12 12 10 10 10 10 9
7 6 7 8 9 10 11 10 11 10 10 9 8 7 7 6 6 6 6 7 7 9 10 9 9 9 10 10 11 12 12 13 13 12 12 12 12 11 10 10 9 9 10
7 7 7 7 8 9 10 11 11 11 11 9 9 8 8 7 6 6 6 5 6 7 8 9 9 9 9 10 10 11 12 12 12 12 11 10 10 10 9 9 9 8 9

GFSGL_850_spd_027.txt.gz
Wind_Speed
18 20 20 21 21 21 22 20 18 18 17 14 17 20 23 18 14 13 13 14 14 16 15 16 16 18 20 20 19 20 20 20 24 25 23 23 24 24 24 26 24 26 27
20 20 19 19 20 19 16 22 18 15 15 15 16 14 11 14 14 16 17 16 17 18 20 21 22 22 21 20 21 21 22 23 25 29 26 27 27 27 27 27 27 26 29
19 19 18 19 19 19 20 16 15 14 14 15 13 14 16 19 20 19 19 20 20 22 23 23 23 22 22 21 21 23 23 23 25 28 29 27 28 27 28 28 28 29 29
18 18 19 17 16 15 18 20 13 15 16 17 19 19 20 20 20 20 18 18 21 22 23 23 23 23 23 23 23 23 23 24 25 27 30 30 28 26 26 27 28 27 28
18 18 18 20 14 15 14 14 15 16 17 19 21 21 20 20 22 21 25 26 23 24 24 24 23 23 26 29 26 24 22 23 25 28 30 28 26 24 26 26 28 26 28
18 18 16 13 14 15 14 14 15 17 20 21 21 20 20 20 23 26 30 31 26 24 24 24 24 25 25 24 25 27 27 25 25 26 28 29 27 25 25 27 27 26 27
18 17 17 15 14 13 14 16 17 20 21 21 21 20 20 20 24 27 32 33 25 23 23 24 24 24 25 23 22 26 27 26 26 27 28 29 28 27 27 27 28 28 29
19 18 16 15 15 15 17 18 20 20 20 20 20 20 20 20 25 31 34 30 22 23 23 23 24 25 25 25 23 23 22 22 23 25 27 28 28 28 28 28 29 31 33
19 16 16 14 16 17 18 19 19 19 20 20 19 19 20 21 24 29 31 22 22 24 22 22 22 23 24 24 26 26 24 24 22 25 26 30 33 34 36 39 40 37 29
20 18 16 18 17 18 18 18 18 19 20 19 20 23 21 22 22 27 26 23 25 23 23 22 22 23 24 23 24 23 26 26 20 23 25 26 26 26 25 27 31 35 35
22 17 18 18 17 17 16 16 19 19 19 21 26 25 22 20 23 23 24 21 24 25 25 25 22 22 18 24 27 29 26 24 25 21 21 18 18 20 19 19 23 25 31
20 19 19 17 15 15 15 17 19 18 17 23 23 23 21 22 20 21 21 24 24 25 25 23 23 26 27 25 22 19 18 19 16 15 18 18 17 15 15 17 19 22 24
18 20 17 15 14 14 16 17 17 17 17 20 19 21 21 20 19 19 24 24 23 24 21 24 22 19 20 15 13 14 12 8 12 14 13 14 13 13 15 15 12 15 18
20 18 14 14 13 14 14 15 14 14 16 16 18 19 20 20 20 20 24 23 24 22 22 15 15 15 13 12 12 11 9 8 10 11 12 11 11 12 12 12 12 11 12
17 14 12 12 12 15 12 13 14 15 19 21 18 17 18 19 20 23 22 24 23 21 16 13 13 13 11 12 12 11 10 9 9 10 10 10 10 9 11 11 10 8 9
16 11 12 12 14 14 11 12 15 18 19 21 22 21 24 22 21 20 20 20 17 16 11 12 12 13 13 13 13 13 12 13 11 10 10 10 11 10 10 9 10 10 8
12 10 12 14 13 13 12 12 15 14 18 19 20 21 27 28 19 18 18 15 14 15 10 11 12 13 14 15 16 15 14 15 14 12 11 11 12 10 10 9 9 9 9
9 12 13 11 12 12 12 13 13 14 14 13 16 21 22 27 21 19 18 11 10 11 11 11 12 13 14 14 14 15 15 15 14 13 12 11 11 9 10 11 11 10 10
12 10 13 13 11 11 12 12 13 13 14 13 14 15 17 19 18 18 17 12 11 11 11 11 12 13 13 13 13 13 14 15 14 13 13 12 13 11 10 11 11 9 9
9 13 11 9 11 11 12 12 12 12 12 12 13 14 14 16 13 15 12 12 11 10 10 11 11 12 12 12 13 12 13 14 15 14 13 14 13 13 11 12 11 11 10
9 10 12 13 10 10 12 11 12 12 12 12 12 17 20 14 11 12 11 11 10 9 10 10 10 10 11 11 12 13 12 13 13 14 13 14 15 14 12 12 11 10 10
9 9 10 9 9 9 11 11 11 11 12 13 12 12 17 12 11 10 10 10 9 10 11 9 9 10 11 11 12 12 13 13 13 14 14 13 14 14 13 13 13 11 11
9 10 11 10 10 11 12 12 13 13 13 13 12 12 10 11 10 10 9 10 9 9 10 10 9 10 11 11 11 12 14 15 15 15 14 14 13 13 13 12 13 14 12
9 9 8 9 10 11 12 12 14 13 14 13 13 12 10 11 9 9 10 10 8 8 10 10 10 10 10 10 11 12 12 13 14 14 12 13 13 12 11 11 10 12 12
10 9 8 10 10 11 12 13 13 14 14 14 13 13 11 11 9 9 8 8 9 8 9 9 9 9 10 10 11 12 12 12 13 13 12 11 11 12 10 11 10 9 11
11 11 11 11 11 12 13 12 13 14 13 14 14 14 11 10 9 8 8 8 8 9 9 9 9 9 9 10 11 12 12 13 12 12 11 11 11 11 11 10 11 10 10

GFSGL_850_spd_030.txt.gz
Wind_Speed
18 20 21 21 20 18 19 20 22 25 28 22 18 22 19 15 16 16 17 18 18 17 17 18 19 22 21 22 20 21 22 23 29 27 25 22 21 20 20 21 21 23 26
20 19 19 19 19 20 22 23 23 17 15 17 19 21 17 19 20 22 22 20 22 21 18 21 23 22 22 23 24 22 23 24 26 29 25 23 25 24 23 23 25 26 24
18 18 19 20 18 20 23 22 23 21 21 19 18 19 20 21 22 21 22 22 18 21 23 25 26 26 26 26 24 24 24 26 26 29 31 28 27 27 27 27 25 25 26
19 20 19 21 22 23 19 19 19 18 17 17 18 19 22 23 23 24 22 23 26 29 35 30 27 26 27 26 26 27 29 28 26 27 28 26 24 24 26 28 23 20 23
22 20 19 20 16 22 21 19 17 16 16 20 21 21 22 23 24 22 25 28 31 35 37 34 25 23 25 26 29 27 25 27 28 29 28 26 24 21 21 21 22 24 27
23 24 24 21 20 14 18 17 17 19 18 20 21 21 21 19 24 27 29 31 34 36 38 29 23 26 23 23 22 21 22 24 29 28 34 34 34 34 32 27 27 28 32
26 25 20 18 14 22 21 19 18 20 20 20 21 21 19 18 23 28 33 33 34 35 26 25 28 26 26 26 26 27 28 29 29 28 29 29 29 25 24 26 28 30 32
25 25 24 19 17 16 17 19 19 19 20 21 20 20 23 25 29 31 34 33 34 27 24 27 27 28 28 27 26 27 26 24 25 25 28 30 28 27 25 28 28 31 32
27 30 23 20 14 14 17 19 18 19 20 20 17 23 30 34 29 23 28 31 30 28 28 23 23 26 25 25 26 29 28 26 23 24 26 30 28 27 30 31 34 35 38
32 20 20 18 19 13 16 17 18 18 19 21 26 26 30 29 24 25 25 28 29 27 30 28 27 24 24 20 18 18 22 24 27 31 27 29 29 30 26 26 25 29 32
37 25 13 14 19 14 12 16 17 19 20 21 26 28 27 23 25 23 25 26 23 28 31 28 25 23 24 27 28 29 29 26 24 24 23 17 15 16 17 19 19 22 24
31 30 22 16 15 10 12 15 17 18 18 22 27 27 22 22 23 23 24 19 27 28 27 26 26 27 23 22 19 15 16 18 17 11 13 16 16 16 15 14 15 18 20
34 25 19 12 14 8 13 15 17 17 19 23 25 23 24 25 22 23 26 29 24 25 25 24 17 16 18 16 14 15 13 11 13 12 13 14 14 12 13 14 11 14 15
28 17 16 21 11 10 14 14 17 17 22 23 22 25 25 24 25 27 28 25 24 23 22 14 15 16 16 11 12 13 11 10 9 10 11 10 10 10 11 9 10 12 12
23 23 23 12 9 13 16 15 17 18 19 22 22 23 24 26 26 26 23 24 23 21 16 15 15 17 16 13 14 11 11 12 10 9 9 10 10 10 9 9 10 10 11
24 23 18 9 12 18 16 13 16 19 19 19 21 21 21 24 27 25 22 21 17 17 14 14 15 16 16 15 16 15 12 14 14 11 11 10 11 12 10 8 10 10 11
20 11 8 11 14 15 15 15 17 18 18 19 20 21 22 24 27 23 21 19 14 15 15 13 14 15 15 15 16 16 16 16 15 12 12 11 11 8 10 11 10 10 10
13 11 11 10 12 13 13 14 15 17 20 19 18 19 19 19 27 21 21 20 16 13 15 13 14 14 14 15 15 14 15 16 15 12 12 11 11 11 10 10 10 9 10
9 10 11 13 10 11 12 14 14 18 17 18 16 18 13 25 22 18 19 20 17 14 14 13 13 13 14 13 13 11 12 14 14 12 10 12 13 12 10 11 9 9 9
8 12 14 12 12 11 12 13 17 16 17 16 16 17 22 23 16 15 17 18 17 15 14 10 11 12 13 12 12 12 11 11 12 11 8 11 15 12 11 12 10 10 10
7 12 14 12 12 11 12 15 14 16 16 16 16 19 20 21 16 17 15 17 17 15 14 12 9 11 12 11 12 12 12 14 13 13 9 9 14 12 12 11 11 10 11
14 13 11 12 11 11 11 14 15 14 16 16 16 18 20 17 14 19 15 16 15 14 14 13 12 12 13 13 13 13 14 15 15 14 11 10 11 9 10 10 12 13 10
10 11 12 12 11 11 13 13 14 14 16 17 17 16 16 16 17 17 17 15 13 13 12 12 12 11 12 12 12 13 14 15 15 15 13 12 13 11 8 10 8 12 12
10 10 11 11 11 12 13 14 15 17 16 16 16 16 17 17 18 17 16 14 15 13 12 11 12 12 12 12 12 13 14 14 14 14 12 12 12 12 9 10 6 9 12
11 13 13 12 12 12 13 14 14 15 16 16 16 16 18 18 17 15 16 14 14 14 12 11 11 11 12 12 12 13 13 14 13 13 12 11 11 11 10 10 8 8 9
13 15 15 15 15 14 15 16 17 17 16 16 15 17 18 18 17 15 16 14 13 13 14 11 11 11 11 11 11 13 13 13 12 12 11 11 11 11 11 11 10 10 10

GFSGL_850_spd_033.txt.gz
Wind_Speed
18 21 26 25 19 21 24 26 27 31 25 22 21 21 23 21 19 18 18 19 19 19 18 15 19 17 19 20 20 20 21 21 27 29 25 22 22 19 17 15 18 22 15
22 27 23 22 22 25 26 25 30 24 21 20 21 17 17 17 18 18 17 19 19 20 19 21 21 25 31 29 25 25 26 26 26 28 26 23 24 24 22 19 16 13 19
24 21 22 22 23 27 29 24 28 21 18 16 16 16 18 21 22 22 22 23 23 21 23 26 31 32 32 29 28 28 29 28 29 30 32 30 27 24 29 29 28 28 25
26 23 24 23 26 30 24 23 27 21 19 18 20 20 20 22 22 22 21 21 25 27 30 31 32 32 28 24 25 26 27 29 32 34 33 32 34 32 28 25 24 18 16
27 27 25 25 30 28 26 21 21 17 15 18 20 21 23 23 22 22 26 30 32 34 35 34 33 27 20 19 23 23 23 24 25 26 29 30 30 29 29 28 27 26 27
24 28 29 30 30 31 25 18 16 17 18 16 18 20 23 24 26 28 31 35 36 36 35 34 31 28 23 22 23 23 21 22 23 24 26 27 30 28 25 24 26 28 33
29 28 33 25 24 22 16 17 18 14 16 14 19 21 22 24 26 31 35 32 28 28 29 27 27 24 23 24 26 27 26 24 24 25 23 24 25 23 24 23 20 21 24
28 29 24 26 24 24 19 14 12 15 15 18 17 20 21 25 29 32 27 26 29 28 28 26 27 26 23 24 25 25 25 25 24 23 24 26 24 23 24 22 24 25 28
28 32 33 31 30 18 14 11 14 13 15 15 16 21 26 28 31 26 26 27 27 29 27 26 31 26 23 21 24 22 20 21 20 21 23 23 25 27 23 23 23 29 30
29 26 30 32 27 16 19 17 8 13 14 15 19 22 26 30 24 23 26 28 30 26 28 34 28 24 20 21 21 24 29 29 26 25 26 27 27 24 23 25 26 26 26
31 31 37 33 28 21 7 10 9 11 14 18 21 25 28 23 23 25 27 27 26 30 34 30 26 22 22 20 19 21 21 17 18 19 19 16 10 10 11 12 15 20 24
32 35 36 29 12 10 14 9 11 15 17 20 23 26 23 24 23 23 25 27 27 25 25 24 21 17 18 16 16 15 15 15 15 12 11 10 11 11 11 11 13 13 13
35 32 29 17 21 13 10 10 11 16 20 21 24 25 25 24 24 26 28 24 25 22 20 18 14 13 20 14 10 10 10 9 8 8 8 9 10 9 7 7 6 7 10
31 31 23 22 13 8 9 13 16 19 17 19 22 22 23 23 25 28 28 27 24 19 19 14 15 18 15 11 11 9 10 11 10 9 8 9 8 7 6 7 7 6 8
27 30 21 15 11 8 12 17 14 14 17 19 19 20 21 21 24 25 24 25 22 19 16 14 17 17 16 15 15 12 11 11 12 9 8 8 8 9 6 6 6 7 8
28 25 10 8 9 13 15 13 11 14 16 16 17 19 19 20 22 25 22 20 17 15 16 16 16 16 16 16 16 14 14 14 13 9 9 8 8 8 8 6 7 7 8
24 15 10 9 12 14 13 12 14 12 12 15 16 18 19 20 22 24 21 19 20 14 15 14 15 15 15 15 15 13 13 14 12 9 9 9 9 8 8 8 7 6 6
11 10 9 9 10 11 11 11 11 13 17 16 16 17 19 17 24 25 18 20 22 17 15 13 14 14 15 16 14 12 12 12 12 10 9 10 10 11 10 9 7 8 7
7 9 10 12 12 9 10 10 12 14 15 15 15 16 18 20 23 18 18 19 22 20 17 12 11 14 15 14 13 11 12 13 12 9 7 10 9 10 11 11 8 7 7
7 9 10 13 12 12 11 10 12 13 15 15 15 16 18 20 21 18 21 20 20 19 16 14 11 13 13 13 13 13 13 14 13 9 6 8 7 9 10 11 10 9 8
9 12 14 16 10 10 10 11 11 15 12 13 14 16 19 19 19 18 21 21 21 17 14 14 13 12 12 12 12 13 13 14 13 11 7 7 7 6 7 7 9 7 8
13 15 11 11 12 11 10 11 12 12 12 14 15 18 17 17 19 19 21 20 20 17 13 13 13 12 12 13 13 13 13 14 13 11 9 9 8 6 7 6 7 9 8
11 11 12 12 11 10 11 11 12 14 14 15 15 16 17 17 19 19 20 19 18 17 13 12 12 12 11 11 12 13 14 14 14 14 11 11 10 9 8 8 6 10 11
20 14 12 13 12 12 12 14 14 15 15 16 15 16 16 17 19 21 19 18 18 17 14 11 11 12 11 11 11 12 13 14 13 12 12 11 11 10 9 8 7 10 10
21 18 14 15 15 14 14 14 15 15 15 16 17 17 16 17 18 19 19 17 18 16 12 12 11 11 11 11 10 11 13 13 13 12 11 10 9 9 9 9 9 9 8
22 21 19 17 17 17 18 19 20 18 17 16 17 18 19 18 18 18 20 17 17 15 14 13 11 11 11 9 10 11 12 13 12 11 10 10 9 8 9 9 9 9 9

GFSGL_850_spd_036.txt.gz
Wind_Speed
19 20 24 27 25 26 26 27 30 28 26 28 20 19 20 17 16 17 17 17 18 20 21 17 15 19 19 22 26 28 27 25 29 31 28 25 23 24 22 17 15 16 17
21 25 29 31 30 25 28 29 29 25 26 20 17 15 15 16 17 19 20 20 19 18 17 19 23 25 29 31 32 31 29 28 28 31 28 29 26 24 22 22 23 24 22
23 27 31 28 30 29 28 29 28 25 23 17 16 17 19 16 19 22 22 18 19 22 24 27 31 32 33 32 29 28 27 27 23 27 31 30 30 29 28 30 27 23 20
26 30 29 26 28 28 30 33 27 21 19 16 16 15 19 22 23 21 22 22 25 29 33 35 33 32 29 25 23 22 25 25 25 27 29 30 27 27 25 24 25 26 23
28 28 26 28 30 34 27 27 26 22 14 17 18 17 18 20 21 21 22 26 31 32 29 27 27 26 24 19 21 23 21 22 23 24 25 25 25 27 25 25 25 21 24
19 24 23 26 23 24 21 30 28 17 16 14 14 15 20 18 20 21 26 30 30 27 27 26 25 25 22 21 19 21 24 24 25 24 25 26 28 26 22 20 19 18 21
27 19 21 24 28 20 25 26 33 23 9 11 15 16 16 18 20 24 27 27 26 25 26 27 28 25 26 26 22 21 21 22 23 23 25 25 24 22 20 21 19 19 19
19 24 27 29 29 33 31 30 18 13 13 15 13 13 15 18 22 25 24 24 24 26 27 27 26 29 28 21 20 22 21 19 17 18 22 24 24 23 21 20 22 23 21
25 29 31 31 35 33 28 20 20 9 9 13 11 15 17 21 24 23 25 26 27 27 28 29 30 26 22 19 21 22 22 22 22 24 23 22 21 23 23 24 24 18 21
30 29 31 34 31 25 19 12 4 8 11 10 13 16 21 22 21 23 25 27 29 30 28 28 23 21 19 18 19 20 22 23 20 16 16 19 22 26 27 27 25 26 28
27 29 35 28 22 14 9 5 8 8 10 12 14 19 20 21 22 22 24 27 25 24 24 22 18 15 17 17 17 17 19 17 19 18 17 13 8 8 10 12 14 15 18
31 32 29 28 19 17 12 13 15 7 10 15 16 17 19 20 19 22 25 24 21 21 19 17 17 15 18 19 11 12 12 12 8 8 6 6 7 7 6 7 8 13 13
26 28 29 27 17 10 11 9 8 11 15 16 16 18 18 18 19 22 25 25 24 19 18 15 14 18 17 12 11 11 10 9 9 7 7 7 6 5 4 5 3 6 7
30 25 27 25 12 8 8 8 12 14 13 15 16 16 16 17 20 22 24 25 24 19 18 17 17 16 14 13 12 9 9 8 9 8 7 7 7 8 6 4 4 3 4
24 23 23 10 5 7 7 10 12 12 15 14 14 15 17 18 18 23 21 22 21 19 18 17 15 15 15 15 13 11 11 10 10 8 8 7 7 6 4 2 3 4 4
19 17 13 8 6 9 11 11 10 12 12 12 13 16 16 17 17 22 19 19 22 18 16 14 14 14 15 15 15 13 12 13 12 9 8 8 6 5 4 3 5 5 5
15 9 11 7 8 9 10 10 11 6 8 12 12 14 14 15 18 20 17 20 20 18 15 12 13 14 14 15 14 13 13 13 11 8 8 8 7 6 5 5 5 4 2
11 8 10 10 11 9 8 9 9 11 15 14 13 14 15 16 18 20 18 19 20 18 16 14 12 14 15 15 15 14 14 13 10 7 7 7 6 8 6 6 5 5 3
10 9 10 11 15 12 10 10 10 10 13 14 13 13 15 16 18 19 17 20 21 20 15 15 13 13 13 13 13 12 13 14 11 6 5 7 6 6 6 5 5 5 6
10 11 10 12 15 13 9 10 10 12 12 12 12 14 16 17 16 18 18 19 19 20 15 14 13 13 13 12 12 12 12 13 12 8 6 6 6 5 5 6 7 7 7
12 15 14 16 14 11 11 9 11 11 11 13 12 13 14 15 16 18 17 18 18 17 15 13 13 12 12 12 11 12 12 12 12 10 9 8 8 5 5 6 7 9 8
16 14 15 13 13 12 11 11 10 10 13 15 13 12 14 15 16 17 18 17 16 16 14 13 12 12 12 12 12 12 12 12 11 10 10 10 9 8 6 8 7 10 11
15 15 15 14 12 11 12 12 13 14 13 12 13 13 13 14 15 15 17 17 15 15 15 13 12 12 11 11 12 13 13 13 13 12 11 11 10 9 9 10 9 11 10
16 17 17 17 16 16 15 15 14 14 14 15 14 13 14 15 15 15 16 16 14 14 13 11 11 11 11 10 9 11 12 13 13 12 11 11 10 10 9 9 9 10 9
19 19 20 22 20 18 19 18 18 18 18 17 15 15 15 16 16 16 16 15 14 13 12 12 11 11 10 9 8 9 10 12 13 12 11 10 10 10 10 10 10 9 9
23 24 22 23 22 20 20 21 22 22 21 19 18 17 16 15 15 14 14 14 12 11 11 11 11 11 10 9 8 8 9 11 11 11 10 10 9 9 10 10 10 10 10

GFSGL_850_spd_039.txt.gz
Wind_Speed
16 18 21 26 28 25 25 25 27 29 30 28 28 24 19 16 16 19 19 18 20 20 21 20 17 18 21 25 29 30 30 30 32 36 35 33 27 24 22 23 22 21 23
17 21 24 26 25 25 25 28 28 29 26 23 22 20 19 18 20 17 19 23 21 19 18 21 24 29 32 33 33 32 31 30 29 33 31 27 22 23 25 24 24 24 22
19 23 24 23 21 23 28 26 25 26 21 27 28 20 17 21 18 20 22 21 22 22 25 28 31 31 30 29 27 27 26 25 24 26 29 25 24 22 26 24 23 24 21
20 20 19 23 22 27 27 25 25 24 30 34 19 15 21 16 18 21 21 22 23 27 30 28 27 27 27 26 25 23 24 23 22 23 25 24 23 22 24 24 24 23 24
23 27 30 27 27 24 28 23 23 28 30 31 22 19 13 15 18 20 21 22 27 28 26 25 25 25 24 23 22 24 24 26 29 28 27 26 24 21 21 22 23 26 27
30 29 24 23 27 31 28 25 28 29 30 28 18 10 16 15 16 18 22 27 26 25 26 25 26 26 24 23 25 27 25 24 25 26 28 28 27 23 20 21 21 21 22
22 19 22 26 27 30 33 27 25 26 23 12 15 14 13 15 18 21 25 25 24 24 26 27 27 26 26 28 26 21 19 20 23 24 27 27 28 26 22 21 20 19 20
19 25 27 27 31 35 28 23 18 17 14 11 10 11 13 16 20 25 24 23 24 25 26 27 27 26 23 20 20 22 23 22 20 20 21 22 22 20 21 21 20 20 20
26 29 28 27 33 28 25 16 12 13 10 11 8 10 16 20 23 22 22 24 26 27 25 24 21 20 18 16 18 22 21 20 19 21 23 24 25 24 21 15 18 18 21
27 26 26 28 27 26 21 15 11 11 11 9 11 14 18 20 19 19 21 25 27 26 24 19 16 16 15 17 17 22 23 20 20 18 19 19 17 19 23 27 27 28 27
24 26 23 27 28 25 21 17 12 10 11 7 11 17 18 18 17 18 21 24 24 24 21 19 15 15 17 21 19 14 16 18 18 17 14 12 10 8 11 15 18 20 20
22 22 25 30 25 25 18 12 13 9 5 10 15 16 16 15 16 18 21 22 22 22 21 18 17 19 20 18 15 16 15 15 14 12 12 8 8 7 5 5 9 10 13
19 23 24 23 24 22 13 12 9 7 10 13 14 15 13 14 14 17 21 21 23 24 20 19 19 19 17 15 14 11 11 11 11 11 10 10 9 10 8 6 4 8 11
23 24 26 23 19 12 9 7 7 9 11 13 13 12 13 13 15 16 21 22 23 24 21 19 18 16 14 13 11 9 10 11 10 9 9 9 9 8 5 5 3 2 1
21 19 17 17 10 9 8 7 9 10 12 12 12 13 15 15 15 18 18 19 22 23 20 17 16 15 14 14 13 11 12 13 11 10 10 10 8 5 3 2 2 3 3
21 17 12 13 10 9 12 11 10 10 11 10 13 13 14 14 15 17 17 19 19 21 19 17 16 15 15 16 15 14 13 14 12 10 9 9 7 5 5 4 4 4 3
17 11 11 13 13 14 14 10 10 7 8 10 12 12 12 12 14 16 16 18 18 18 17 17 15 15 15 15 15 15 16 15 11 7 8 8 8 5 4 4 4 3 1
14 12 12 14 14 13 13 10 11 11 11 13 11 10 11 13 14 15 16 16 17 17 16 16 15 14 14 14 15 15 15 14 11 7 7 8 7 7 5 6 6 5 4
13 12 14 14 12 17 18 12 12 10 12 12 10 10 13 14 12 14 15 16 17 16 15 14 14 14 13 13 13 13 14 14 14 9 8 8 8 7 6 7 7 8 8
12 13 11 12 15 18 15 12 13 11 12 12 11 12 12 12 12 12 14 15 15 14 14 13 13 13 12 12 12 13 13 12 12 10 10 9 9 8 8 8 9 10 11
14 15 16 16 15 14 14 14 12 12 12 12 11 11 13 14 13 14 14 15 14 13 13 12 12 12 12 11 11 12 13 13 12 11 10 10 10 8 8 9 9 10 12
17 14 12 12 13 14 16 13 13 14 14 15 14 13 14 15 14 13 13 14 14 12 12 12 11 11 11 11 11 12 12 12 12 11 10 10 10 10 8 9 8 11 11
19 19 18 16 14 15 15 14 16 17 17 16 15 13 13 13 14 15 15 13 13 11 11 11 11 11 11 10 11 10 11 11 12 12 11 10 10 10 10 11 11 11 10
21 20 19 18 18 19 21 20 19 17 18 18 19 18 18 17 15 15 15 14 14 12 11 10 10 11 10 10 10 10 10 11 11 12 11 10 10 10 10 10 10 11 10
26 23 23 24 24 23 23 22 22 21 21 22 22 23 21 18 17 15 14 11 12 12 12 11 10 10 10 11 10 10 10 9 10 10 10 10 10 10 10 10 10 10 10
22 24 27 27 27 26 25 26 23 22 23 22 22 21 21 21 19 16 15 14 12 12 11 11 10 10 10 10 9 8 8 9 10 10 9 9 8 9 9 10 10 10 10

GFSGL_850_spd_042.txt.gz
Wind_Speed
14 13 18 20 20 21 20 23 25 23 24 25 22 24 26 24 17 17 19 16 18 19 18 19 18 20 24 28 30 31 33 31 36 45 41 38 35 29 20 22 24 24 23
11 16 20 23 20 21 21 23 22 22 22 24 23 27 25 22 19 19 16 18 17 17 19 21 25 28 31 29 28 28 28 27 29 36 37 34 30 24 20 25 26 24 23
16 18 18 20 24 23 23 22 23 22 22 23 24 30 29 19 16 17 15 17 18 19 23 28 31 29 29 28 27 27 26 24 23 26 31 31 29 23 21 23 25 25 22
16 22 26 26 22 20 24 28 29 29 26 26 29 31 29 16 15 12 16 17 20 24 29 30 28 27 28 28 27 28 26 25 26 27 29 31 29 26 22 23 24 23 24
23 25 23 20 19 25 28 31 30 25 25 27 29 29 25 11 11 15 15 20 25 29 29 27 27 28 27 26 26 26 28 30 28 27 30 28 27 27 24 22 23 22 25
24 22 18 22 26 25 28 31 26 21 21 20 16 15 9 12 12 12 18 26 29 29 29 29 29 30 29 26 27 29 28 26 25 26 27 28 29 28 25 21 22 23 26
22 20 23 25 24 25 31 26 26 19 13 15 11 10 11 11 11 16 24 27 26 27 28 29 30 28 26 25 23 20 20 21 22 24 26 24 25 22 22 23 23 23 24
23 23 23 24 25 27 27 25 23 15 14 13 11 12 11 12 17 22 24 23 24 25 26 26 26 24 21 19 18 21 22 20 20 20 23 26 25 25 25 23 22 23 23
23 23 23 25 27 27 27 23 18 20 15 12 13 10 12 15 21 21 22 22 23 25 24 23 21 20 17 17 20 22 25 23 18 19 20 21 21 21 22 24 24 24 24
27 27 25 24 24 28 26 24 22 18 16 13 10 10 14 19 19 19 19 22 25 26 25 22 19 18 16 19 22 22 21 21 22 21 20 17 17 18 19 21 23 27 23
28 27 22 22 27 26 24 21 16 13 13 12 8 13 18 18 17 17 18 21 24 24 25 24 20 18 19 20 19 18 19 22 20 18 18 15 10 9 8 11 16 22 25
28 26 22 23 24 24 26 17 16 15 10 8 12 15 16 15 15 15 17 20 19 22 25 23 21 19 19 18 18 16 16 16 16 15 15 13 12 12 11 10 9 11 12
28 25 23 21 19 19 16 13 10 10 9 11 13 14 13 13 13 15 17 20 19 22 23 22 20 19 18 17 16 13 14 15 15 13 13 12 12 13 13 11 8 6 13
25 23 23 17 15 15 11 11 10 10 10 12 13 13 12 13 14 14 17 19 20 21 22 20 19 18 16 14 14 13 13 14 15 13 12 13 11 9 8 6 6 5 4
20 20 19 16 12 13 10 10 13 12 14 14 13 13 13 13 13 14 15 17 20 20 20 18 17 16 16 15 15 14 14 14 12 10 11 12 9 7 7 6 5 5 5
18 20 18 10 14 13 15 18 19 12 11 12 13 14 13 13 12 13 15 15 18 19 19 17 17 16 16 16 17 17 16 16 13 10 11 11 10 9 8 7 7 6 5
16 17 15 14 14 16 18 18 16 11 13 14 13 13 13 12 12 13 13 14 17 18 17 15 16 16 15 15 15 16 17 17 15 10 10 11 10 9 8 8 7 6 4
16 14 15 15 17 19 19 18 19 18 17 13 11 13 10 12 12 12 12 14 15 16 15 14 14 15 14 14 14 15 15 15 14 11 10 10 9 9 8 8 8 7 7
19 15 14 17 16 15 18 20 21 16 16 15 14 13 13 13 12 12 12 14 15 15 15 13 13 13 13 13 13 14 15 15 15 13 11 11 10 8 7 8 8 9 10
17 16 16 17 17 17 18 18 16 17 16 15 16 15 14 15 13 13 14 14 14 15 14 13 12 12 12 12 12 13 13 13 13 12 11 11 10 10 9 9 9 9 11
22 21 16 18 17 18 18 18 18 18 16 17 17 14 16 19 17 15 15 14 14 14 14 14 12 11 11 11 11 12 12 14 14 13 12 12 11 10 9 10 9 10 10
22 22 22 21 20 19 17 15 16 17 19 19 18 16 17 18 17 16 16 15 15 15 14 13 12 11 11 11 11 11 11 11 12 12 11 11 10 10 10 9 9 9 9
27 25 23 22 23 21 22 21 20 21 20 19 20 19 19 19 19 18 16 16 17 16 15 14 12 11 11 11 10 10 10 10 11 11 11 10 10 10 10 10 10 10 9
25 25 27 28 24 22 22 23 22 22 23 23 21 21 21 21 21 21 19 17 15 15 15 15 13 12 11 11 11 10 10 10 9 10 10 9 9 9 9 10 10 10 9
24 23 24 26 26 30 29 27 27 26 26 24 25 24 22 22 22 21 19 18 17 15 14 14 13 12 11 11 10 9 8 8 9 9 9 9 8 8 8 9 10 10 10
23 24 24 24 25 26 27 29 31 29 28 26 24 24 23 22 21 20 20 20 18 16 15 14 13 13 12 11 10 9 8 8 8 8 7 7 7 8 7 8 9 10 10

GFSGL_850_spd_045.txt.gz
Wind_Speed
10 10 12 17 20 20 21 22 22 23 22 22 22 24 24 24 23 24 19 16 14 16 18 19 19 21 25 27 28 24 22 22 31 33 29 27 27 27 25 23 21 22 22
9 12 15 16 20 23 21 19 21 25 24 24 23 23 25 24 22 25 15 11 13 16 18 20 23 27 28 24 21 21 20 21 25 30 29 27 25 23 24 23 21 22 23
10 14 19 23 22 19 17 21 24 28 26 24 23 24 24 24 24 26 11 10 13 16 20 24 29 28 23 21 21 22 22 23 24 25 30 26 26 23 22 20 21 22 23
16 20 20 17 15 16 21 25 27 26 25 24 22 22 23 23 26 9 8 15 15 19 24 28 29 25 23 23 23 23 23 23 23 26 28 28 24 22 21 21 21 20 21
18 18 16 14 18 20 23 26 26 24 25 25 22 19 17 12 8 10 14 13 18 24 28 28 27 27 29 28 23 22 22 24 25 25 26 25 22 20 20 19 20 19 20
17 16 16 19 21 23 25 26 24 24 23 16 16 14 9 9 10 10 12 17 24 27 27 27 28 29 25 25 25 22 20 20 21 22 24 24 24 23 20 19 19 18 20
17 18 19 20 22 23 23 24 23 21 19 18 14 11 12 11 9 13 18 22 23 23 25 27 27 23 22 18 18 16 18 20 21 23 25 24 24 23 21 20 18 18 19
19 20 22 22 22 22 21 24 23 22 20 20 14 11 11 10 13 17 22 21 21 23 24 24 23 20 18 17 17 21 19 21 20 20 21 24 25 24 21 22 22 22 20
21 22 23 22 22 22 25 26 23 23 21 17 14 11 10 12 16 21 21 20 21 23 23 21 21 18 18 16 20 22 20 19 17 20 22 21 21 22 22 22 22 18 18
22 24 25 24 22 22 26 25 24 23 16 11 11 11 10 15 18 19 19 20 22 23 20 20 20 18 18 19 20 20 20 19 21 20 18 17 17 14 13 17 19 20 18
24 26 26 24 24 25 24 24 24 16 15 13 9 10 14 17 17 16 17 19 20 19 19 20 18 22 19 18 17 16 18 21 20 18 16 15 13 13 12 11 11 15 19
26 26 25 25 25 19 17 19 13 11 11 11 11 14 16 16 15 15 16 17 19 18 20 20 22 21 20 19 17 17 17 17 17 16 14 13 13 13 13 14 12 12 13
27 26 22 23 20 16 16 13 11 11 10 11 13 15 15 14 14 15 16 17 18 19 19 21 20 19 19 17 16 16 15 15 16 14 13 13 14 13 12 11 9 9 10
25 20 19 20 18 13 14 11 11 12 14 15 15 16 14 14 15 15 16 18 18 19 19 20 19 17 17 16 16 15 15 16 15 13 13 13 12 9 9 9 8 8 7
22 20 18 18 14 13 13 12 16 19 20 17 16 14 13 14 14 15 15 15 17 19 19 18 17 16 16 16 15 15 16 16 14 10 11 12 12 11 10 10 9 7 6
20 19 18 18 15 14 14 16 16 17 14 13 12 14 15 15 15 15 15 15 16 17 18 17 16 16 16 16 16 16 16 17 16 12 11 12 12 12 11 10 8 8 6
20 19 19 17 16 16 18 20 18 18 16 17 15 15 15 16 14 14 15 15 16 17 17 16 15 15 15 15 15 15 16 16 16 14 13 12 11 10 10 10 9 8 6
18 20 20 19 17 18 21 19 19 19 18 16 13 15 15 14 14 15 15 15 16 17 17 16 15 14 13 13 14 14 14 15 15 14 13 13 12 11 9 9 9 9 8
19 20 20 20 19 19 17 19 21 21 17 16 16 15 15 16 16 16 15 16 17 17 17 16 15 13 13 12 13 13 14 14 15 14 13 13 12 11 9 9 8 8 9
21 21 21 22 22 22 21 22 22 21 18 17 16 17 17 17 17 17 17 18 18 17 17 16 15 14 13 12 12 12 12 13 13 13 12 12 12 11 10 9 9 8 8
22 22 23 23 21 22 23 23 21 21 20 19 19 18 17 19 20 20 19 19 18 18 17 16 15 14 13 12 11 11 11 11 12 13 12 11 11 10 10 10 9 9 8
25 26 26 27 27 23 23 25 25 23 22 22 21 18 17 21 22 21 19 18 17 18 18 17 16 14 13 11 11 10 10 9 11 11 11 10 10 9 9 9 9 9 8
27 26 26 27 26 25 28 24 22 24 24 23 23 23 22 21 21 21 21 20 19 19 19 18 16 15 13 12 11 10 9 9 9 9 9 9 9 8 8 8 8 8 8
21 22 24 25 23 22 25 25 29 31 27 27 27 27 25 25 23 22 22 22 22 21 19 17 16 15 14 13 11 10 9 8 7 7 8 8 7 7 7 7 7 8 8
23 23 24 23 23 24 23 23 24 25 25 28 30 29 28 25 24 24 22 21 20 21 20 17 15 15 14 13 12 10 9 7 7 7 7 7 7 6 6 6 7 7 7
21 20 22 22 23 24 25 25 24 23 23 23 24 25 27 27 24 22 22 21 20 21 21 20 16 15 14 13 12 11 10 8 8 7 7 6 6 6 6 6 7 7 7

GFSGL_850_spd_048.txt.gz
Wind_Speed
6 9 8 9 13 11 11 11 12 15 18 20 21 22 22 23 21 21 21 20 21 15 14 14 14 17 20 22 23 24 24 26 31 33 31 30 30 30 29 26 24 27 27
7 3 7 10 10 10 10 12 15 17 19 20 19 19 19 19 19 22 25 21 13 12 12 13 17 20 22 22 22 23 25 27 30 33 33 31 29 28 29 28 27 25 25
3 7 9 10 11 11 12 14 16 18 19 18 17 17 17 17 16 18 19 21 9 11 12 15 20 21 22 22 23 25 26 27 29 30 33 28 29 27 27 25 23 23 24
7 10 12 12 11 11 14 15 16 18 18 17 17 17 18 18 18 14 9 7 10 12 14 18 20 20 21 21 24 24 25 26 27 26 27 28 26 23 24 25 24 21 21
13 13 11 11 12 13 14 15 17 17 17 17 13 12 15 10 6 5 7 8 11 15 17 17 17 20 27 24 21 21 23 24 24 24 25 25 23 22 22 22 23 23 22
14 11 12 13 14 15 16 16 17 18 18 15 14 13 9 8 12 10 9 10 14 15 16 16 17 19 17 23 21 25 19 17 19 21 23 24 25 24 22 23 21 22 22
11 12 13 14 15 16 16 16 17 19 17 17 15 12 11 10 12 11 12 13 14 13 14 16 17 16 20 19 20 20 20 22 22 24 26 26 26 23 22 23 22 23 22
13 15 15 16 17 15 15 16 18 19 17 17 17 13 11 9 11 13 16 15 12 13 14 16 16 17 18 22 20 20 21 20 19 20 21 23 24 24 24 26 25 24 22
13 14 16 18 15 15 15 18 19 17 16 17 15 10 9 9 13 16 18 12 12 14 15 15 17 17 19 22 19 21 20 19 18 20 23 24 22 20 20 21 20 21 21
13 18 18 16 14 15 17 18 17 17 15 12 8 8 10 9 15 18 16 12 14 13 14 15 17 23 26 19 18 19 19 18 21 21 19 18 17 16 18 16 14 17 18
17 18 17 16 15 17 18 13 14 14 13 11 12 11 9 11 16 16 15 15 12 14 14 15 15 22 22 21 18 15 18 20 19 18 17 16 14 13 14 15 15 17 17
18 19 18 14 14 14 14 13 12 11 10 11 12 12 10 14 14 14 14 14 15 16 14 15 17 21 20 19 15 17 18 16 15 16 15 14 14 14 14 15 15 14 16
20 17 14 15 15 14 13 12 11 9 9 10 12 12 12 13 11 15 14 14 15 16 14 16 19 19 18 16 15 16 14 13 13 13 14 14 15 14 13 13 11 12 14
15 17 19 19 14 13 11 11 10 10 10 12 15 15 14 13 11 12 12 11 15 14 13 17 17 16 16 16 13 12 11 13 13 12 13 14 14 13 12 12 12 11 11
15 16 17 17 16 13 12 11 12 12 13 15 13 15 16 14 12 15 13 12 12 13 18 15 12 12 11 10 10 11 11 12 12 11 12 13 13 13 13 12 11 10 11
16 16 16 18 16 15 15 15 15 19 18 17 16 15 15 17 17 16 15 14 15 16 16 12 13 12 12 11 11 11 10 12 14 13 11 12 12 12 13 12 11 10 9
18 18 17 18 19 16 16 15 17 16 20 20 18 18 18 19 18 17 15 15 16 16 13 13 13 12 12 10 10 10 10 12 14 13 11 11 12 11 11 11 10 9 9
21 19 19 19 18 19 19 18 18 16 17 16 18 18 17 17 18 16 15 16 13 15 16 13 13 12 11 10 10 10 11 12 12 13 12 12 11 10 10 10 10 10 9
18 18 20 22 22 21 22 22 20 19 19 17 16 17 17 16 18 18 17 18 15 15 15 14 13 12 12 11 11 12 12 11 12 13 12 11 11 10 9 9 9 9 10
21 23 23 23 22 21 19 20 22 21 20 20 18 16 15 18 18 15 17 17 18 17 16 15 14 13 12 11 11 11 10 9 10 10 11 10 10 9 9 9 9 9 8
21 22 24 25 25 25 24 25 22 23 24 22 22 20 18 18 19 19 18 19 21 19 18 18 15 15 12 11 11 11 10 10 10 10 10 9 10 8 9 8 8 8 8
26 23 25 25 24 25 25 25 26 25 23 23 24 22 21 21 20 20 21 21 21 20 18 18 19 17 14 12 11 12 11 11 10 9 9 8 8 7 7 7 7 7 8
24 22 22 22 23 23 24 21 21 24 25 26 25 24 23 24 23 23 22 21 21 22 22 21 20 19 19 17 15 13 12 11 10 9 8 7 6 6 6 6 6 6 6
19 21 22 23 23 23 23 23 22 22 22 24 26 26 28 28 29 28 26 23 23 23 23 24 22 20 19 18 16 14 12 12 10 9 7 6 6 6 5 5 6 6 6
19 21 20 20 21 22 23 23 23 24 23 22 22 22 22 24 26 27 28 25 23 23 23 23 22 20 18 17 16 14 13 12 11 9 8 6 6 5 5 4 5 5 5
20 19 20 20 20 21 22 22 24 24 24 24 23 21 21 21 21 21 24 26 23 23 22 22 22 21 19 17 16 15 14 13 12 10 9 8 6 6 5 5 5 4 5

GFSGL_850_spd_051.txt.gz
Wind_Speed
6 13 10 4 8 10 11 11 11 12 14 16 18 18 18 19 20 20 22 20 20 21 21 15 12 13 15 18 20 24 26 27 31 33 34 33 32 32 32 30 30 30 32
12 2 5 8 10 10 11 11 12 14 15 17 18 18 19 19 19 19 19 18 18 16 13 11 11 13 17 20 22 23 26 27 31 34 34 33 33 32 31 31 30 28 29
4 7 8 10 11 11 11 13 14 14 16 17 17 19 20 19 18 20 18 14 13 9 10 11 14 17 20 21 22 23 25 27 30 32 35 30 31 29 29 27 27 27 25
6 7 10 11 10 11 13 13 14 15 17 17 18 18 23 17 14 13 10 8 9 10 10 13 16 19 19 18 21 22 21 23 25 28 30 29 26 25 25 26 25 23 24
6 8 10 10 11 13 14 15 16 17 17 19 19 18 15 18 10 8 9 10 9 12 14 16 16 18 25 25 22 21 20 21 23 23 24 23 23 23 24 26 27 26 27
7 9 9 11 13 14 16 17 18 17 18 19 19 20 18 14 18 17 16 10 11 14 15 15 16 17 16 21 20 22 27 24 21 23 23 26 26 27 26 27 27 26 28
8 9 10 12 14 15 17 17 17 18 19 20 21 20 21 17 22 16 14 13 12 13 14 15 16 15 18 18 19 23 23 23 24 24 27 25 26 24 24 26 26 28 28
9 10 11 13 15 17 17 17 17 18 19 20 20 18 21 18 17 16 14 15 11 12 13 14 15 15 17 25 27 22 21 21 20 21 23 24 25 27 27 26 26 29 30
10 11 13 14 16 17 17 17 18 18 18 20 17 16 14 15 16 17 15 14 11 13 12 13 14 16 18 24 27 21 21 20 18 20 22 26 25 23 20 20 24 25 24
11 12 14 15 17 17 17 18 16 16 17 16 17 11 10 12 16 18 17 14 14 13 11 12 16 21 25 27 24 19 19 18 21 22 19 19 19 19 18 17 21 22 18
12 13 15 16 17 17 17 17 15 15 17 23 17 17 14 14 15 19 19 14 11 12 12 11 11 22 24 22 20 18 17 24 20 18 19 18 17 16 15 16 18 20 22
14 15 16 16 16 16 17 17 15 16 18 19 15 16 12 15 17 19 17 15 14 16 13 12 15 20 20 18 16 16 18 15 16 17 16 16 15 16 16 15 15 17 18
15 15 16 16 17 15 17 18 17 17 15 16 15 14 15 17 15 17 17 17 16 15 13 14 18 20 18 16 14 16 17 14 15 15 15 15 15 16 16 16 15 16 19
15 16 16 18 19 17 14 15 16 16 14 15 15 16 18 16 16 12 15 16 16 17 13 14 20 14 16 17 15 12 13 14 15 14 15 16 15 15 15 14 16 17 18
14 16 17 17 19 21 19 16 17 16 17 17 17 17 18 18 15 17 18 18 16 16 19 19 13 12 13 12 12 12 12 12 13 13 13 14 15 15 14 13 14 15 15
15 15 16 19 22 22 21 20 19 21 21 23 23 23 22 21 19 21 22 20 18 18 17 13 13 13 13 12 12 12 11 12 12 13 12 12 13 14 14 13 13 13 13
17 18 18 19 20 23 23 21 23 21 22 23 23 21 21 22 20 20 22 20 18 18 18 12 15 14 13 12 11 11 12 12 15 12 12 12 12 12 12 13 12 12 12
20 22 24 24 24 22 23 24 25 26 27 23 20 21 23 22 19 18 19 19 18 18 17 15 15 15 13 11 11 11 12 11 11 11 11 11 12 11 11 11 11 12 12
21 22 25 27 28 29 26 25 24 25 25 25 23 21 20 21 18 17 18 21 20 20 18 18 17 17 15 12 13 14 13 11 12 11 10 11 11 10 9 10 10 11 11
22 23 25 28 31 29 27 26 26 25 25 25 24 23 21 19 20 20 19 18 19 21 22 20 19 19 17 15 15 15 12 11 10 10 10 9 9 9 10 10 9 10 10
23 23 25 24 25 28 29 30 29 29 29 29 28 25 24 24 23 22 22 22 22 23 22 21 20 20 19 18 16 13 13 11 10 10 9 8 9 8 8 10 9 9 9
29 30 28 25 24 26 26 26 26 27 28 29 29 27 25 25 24 24 22 21 21 23 25 24 21 20 20 19 15 15 14 13 11 9 8 9 7 6 8 7 9 9 9
31 26 25 22 22 23 23 24 25 26 26 25 25 26 26 26 26 26 26 25 24 21 22 23 24 22 21 21 20 18 14 12 11 11 9 8 7 5 6 6 7 7 8
27 23 21 20 22 23 23 24 25 25 24 24 24 23 23 24 25 27 28 28 28 27 24 23 25 23 21 22 21 19 16 14 14 12 9 8 7 6 5 5 5 7 7
23 22 20 21 21 23 23 24 24 22 21 22 24 25 25 24 22 22 22 24 26 26 27 25 23 23 21 22 22 19 17 14 13 12 11 9 8 7 6 4 5 4 6
26 19 20 19 18 16 18 18 18 19 21 23 22 21 22 24 24 23 21 22 21 22 25 26 22 20 19 20 21 19 18 16 14 13 12 11 9 7 6 5 5 4 5

GFSGL_850_spd_054.txt.gz
Wind_Speed
18 13 6 6 6 11 9 11 13 13 14 15 18 19 18 19 19 20 20 19 18 18 19 22 22 14 14 13 16 20 23 24 29 31 30 30 28 29 30 33 40 40 38
14 8 12 7 7 10 10 12 13 14 15 16 17 18 18 18 19 22 24 22 21 23 24 17 16 12 13 18 19 19 20 22 25 32 34 34 30 28 30 33 35 33 31
7 1 2 7 9 10 12 13 14 15 16 18 18 18 20 24 26 26 20 17 18 11 10 12 13 17 17 17 20 24 28 31 29 27 33 33 29 28 28 30 28 27 27
4 7 9 9 10 11 13 15 15 16 17 18 17 20 20 23 28 21 18 13 14 12 12 12 14 15 19 21 25 30 26 25 25 25 29 30 28 29 26 26 27 27 27
8 7 7 9 10 10 13 15 18 19 20 18 19 22 24 28 21 21 11 12 13 13 13 13 14 17 22 24 22 25 23 26 28 31 26 28 30 28 28 28 29 32 32
5 5 7 10 12 13 15 16 17 18 19 20 21 25 28 25 22 25 21 19 18 17 14 16 16 16 18 20 20 22 25 28 29 30 29 30 29 29 27 27 28 31 34
5 5 7 11 13 14 15 16 17 19 19 19 24 26 28 21 24 24 20 14 16 15 13 16 16 14 20 22 25 28 28 27 21 24 27 27 26 25 29 31 34 33 33
4 8 9 11 15 16 16 17 17 18 19 21 24 26 22 21 23 20 14 13 16 12 15 18 17 15 22 25 26 29 30 25 19 19 23 25 26 28 29 25 26 28 27
6 12 11 14 17 16 17 17 21 24 22 20 23 20 19 21 21 14 15 17 18 16 20 19 13 17 23 24 27 30 28 24 13 18 25 24 20 20 20 22 25 25 28
9 15 16 15 16 17 18 19 20 24 14 20 22 22 25 18 17 18 19 19 21 20 17 10 16 17 21 24 28 27 25 20 23 21 17 17 18 19 17 18 19 20 22
13 18 16 14 16 17 18 19 18 19 20 25 26 25 18 19 23 20 19 22 22 17 16 16 13 20 23 25 24 21 19 21 18 18 22 18 19 18 18 17 17 19 23
19 17 16 14 18 17 19 19 18 20 22 25 26 21 19 13 15 20 20 20 18 18 18 18 14 20 21 18 17 15 15 16 16 20 19 18 21 19 18 17 17 17 18
16 14 14 15 19 24 22 19 18 21 25 25 18 19 19 18 19 20 21 21 19 19 18 17 15 15 18 15 15 15 17 18 18 23 18 20 18 19 19 18 17 16 16
15 14 16 17 20 24 27 23 16 17 19 22 21 19 18 16 18 19 21 20 17 17 18 17 18 21 11 14 15 14 16 17 18 20 21 19 16 19 20 17 17 18 17
14 15 17 20 18 24 26 23 23 21 21 24 23 22 26 30 27 22 20 21 17 19 23 25 25 16 14 16 15 14 15 15 17 18 22 18 17 18 18 15 15 17 16
18 21 20 22 23 25 22 26 28 25 23 22 24 27 29 28 24 21 24 26 25 23 24 25 21 15 14 17 17 14 14 15 17 21 15 17 17 18 15 13 16 15 17
22 24 26 24 26 28 25 27 30 30 26 26 25 26 26 24 22 21 19 23 23 22 23 22 19 13 16 16 17 14 14 16 20 16 17 15 16 17 13 12 15 15 16
26 30 25 25 28 30 30 29 29 30 30 27 26 26 24 24 23 20 18 17 21 22 23 23 20 16 17 17 16 14 17 20 19 15 18 10 14 17 14 12 12 14 14
32 28 28 28 29 30 32 32 29 28 29 30 28 26 23 23 22 21 19 21 21 23 22 23 22 19 19 20 18 18 20 21 17 12 12 12 12 14 12 14 11 10 10
33 33 33 30 31 34 33 29 28 30 31 33 31 30 27 25 25 23 23 21 22 21 20 20 22 21 22 22 21 21 21 19 12 12 14 16 10 14 8 11 13 11 11
35 36 36 35 34 35 26 27 29 28 29 30 30 28 28 28 26 24 25 26 25 24 23 22 23 22 20 22 20 21 20 18 16 15 15 13 11 11 7 8 10 14 9
36 38 38 38 32 29 27 22 22 22 23 25 26 26 24 23 27 26 26 25 24 23 22 23 25 24 22 22 21 20 19 18 16 16 14 11 10 7 6 7 8 12 11
34 33 33 35 26 26 23 23 25 25 26 27 26 24 22 21 21 25 25 24 25 26 25 23 23 25 24 24 23 22 21 20 19 16 13 11 10 8 8 6 6 9 10
35 35 32 33 26 22 20 20 20 20 19 20 20 20 18 20 20 20 19 19 21 23 22 23 25 25 24 23 23 23 22 19 19 17 14 12 10 9 8 6 5 7 7
33 30 25 20 14 17 22 20 21 23 24 23 19 17 19 18 15 17 20 21 19 19 21 21 21 23 25 22 22 22 21 19 16 14 11 11 10 10 8 7 6 4 5
21 16 12 14 16 15 18 19 17 16 16 16 16 17 19 19 20 19 18 17 18 18 18 18 18 19 22 19 19 20 22 20 16 14 13 12 11 10 9 8 7 5 5

GFSGL_850_spd_060.txt.gz
Wind_Speed
25 24 23 23 19 12 13 17 15 16 20 21 24 25 26 28 27 25 22 25 27 28 32 26 22 20 17 18 21 22 20 19 21 29 31 35 37 35 33 31 30 31 32
30 27 23 21 14 14 7 11 15 16 18 21 22 25 27 26 25 22 24 27 29 32 26 17 14 13 13 13 16 18 19 20 25 33 35 34 31 31 32 29 26 24 23
28 23 18 17 9 8 7 9 12 14 18 21 25 26 25 27 23 24 24 26 30 29 21 18 16 16 16 17 19 19 21 24 27 28 32 32 34 33 31 24 21 22 22
18 15 11 12 11 8 9 11 15 18 18 24 27 25 25 25 24 24 27 29 30 21 22 20 18 19 19 18 19 22 24 25 26 27 31 34 34 31 25 23 24 20 22
17 16 14 12 8 7 11 13 11 16 24 26 23 22 23 25 25 25 27 30 24 23 25 25 23 15 18 22 22 22 23 25 26 29 31 33 31 28 23 24 26 33 33
18 16 15 11 9 9 5 13 28 24 24 23 22 24 25 21 25 26 27 25 25 25 23 23 15 17 21 22 22 23 24 24 27 29 31 29 27 24 25 28 30 26 30
17 15 12 10 5 8 20 15 19 21 20 21 22 25 27 28 27 26 26 27 27 23 16 15 13 18 21 23 23 24 23 24 25 28 27 24 26 26 28 24 23 26 27
17 14 8 5 15 13 15 18 20 20 20 22 24 25 24 22 23 26 29 31 24 18 17 16 17 20 22 24 24 23 23 22 24 23 21 22 21 20 21 20 22 24 24
13 6 5 16 13 15 18 18 19 20 22 23 25 26 25 25 26 29 30 27 18 17 17 18 19 23 22 21 21 22 23 23 21 17 16 14 17 17 15 18 20 22 26
2 7 20 12 16 17 19 19 20 22 25 28 29 28 27 28 28 31 27 22 21 19 18 19 20 21 19 19 21 22 23 20 17 15 13 12 14 15 17 15 17 20 22
16 15 13 17 16 18 19 20 22 24 24 25 27 25 23 25 27 25 20 21 19 18 20 20 20 19 19 20 20 21 20 19 15 15 15 16 16 19 19 15 16 17 20
10 13 16 16 17 18 20 22 24 26 28 29 33 31 29 27 23 23 22 20 17 19 21 20 20 20 19 17 16 17 18 18 17 16 18 18 20 23 24 20 18 16 15
13 15 16 18 18 19 22 24 27 28 30 31 30 29 28 26 25 24 24 22 21 22 25 22 20 22 21 16 15 18 18 17 17 17 18 20 21 25 23 20 16 12 13
15 18 19 20 22 23 26 27 29 31 30 30 28 28 28 29 26 22 23 24 25 25 25 24 23 23 23 21 21 21 17 16 17 17 19 20 22 25 22 17 15 15 17
21 23 25 27 29 32 34 33 32 34 32 31 28 26 27 29 26 22 22 24 24 23 24 24 24 25 25 24 23 22 19 16 16 17 18 20 22 23 20 15 13 15 15
21 24 26 30 33 36 37 40 38 37 35 33 30 27 29 28 23 21 22 23 24 23 24 25 24 27 28 25 23 22 18 15 15 17 18 19 23 21 18 14 12 13 14
26 29 30 32 34 35 36 36 42 43 41 39 35 31 30 26 23 24 22 22 23 22 26 28 27 24 25 24 22 19 17 14 15 16 17 19 22 19 15 13 13 13 13
25 28 31 34 36 37 38 40 40 41 41 45 37 35 29 22 21 24 24 21 25 25 26 28 30 26 21 22 20 18 17 17 18 16 17 18 19 16 14 13 12 12 13
32 34 34 34 34 33 31 33 36 35 38 36 37 26 21 20 23 21 20 22 28 28 28 28 27 26 22 19 20 19 17 18 19 17 17 19 18 15 13 13 12 11 12
32 32 33 35 35 36 39 38 38 34 32 22 17 19 17 17 19 20 18 17 21 24 27 27 24 24 23 20 18 18 18 17 17 17 17 18 16 14 13 13 12 12 11
31 30 29 28 28 30 31 34 34 30 28 19 14 14 15 16 20 21 21 19 21 22 22 24 23 22 22 21 19 20 20 20 18 17 16 16 14 12 12 12 11 10 11
23 23 24 24 23 25 24 22 23 22 20 13 9 9 7 10 13 13 15 13 15 16 17 20 23 20 20 20 19 20 20 21 19 16 16 14 13 11 11 9 9 9 9
21 22 23 23 24 27 27 31 28 27 23 19 19 19 17 16 17 15 15 12 12 12 13 15 18 19 19 20 20 20 20 20 18 16 16 14 13 11 11 9 9 8 6
21 22 22 23 23 23 22 22 22 20 19 19 18 16 16 15 15 15 17 19 21 22 20 16 14 16 17 17 16 17 20 18 17 15 15 13 12 12 12 10 8 7 5
21 22 22 22 21 20 19 19 20 20 20 20 20 19 18 19 17 17 16 16 16 16 17 19 18 17 14 17 18 18 15 18 16 15 15 13 12 12 11 10 9 8 5
21 21 21 21 20 20 20 20 20 21 21 21 21 20 20 20 20 20 19 18 17 15 15 15 15 17 17 18 16 16 11 15 14 14 15 14 13 12 11 11 10 9 8

GFSGL_850_spd_063.txt.gz
Wind_Speed
26 23 22 24 26 26 24 17 15 16 10 13 15 17 20 23 25 25 25 22 22 24 26 31 30 19 15 15 16 19 20 20 22 24 25 29 31 29 29 29 29 29 29
30 27 28 30 28 24 13 20 10 8 11 14 16 19 21 22 24 25 23 22 23 24 28 30 22 19 17 17 18 19 20 20 20 26 31 31 29 28 30 29 27 24 22
32 29 26 22 19 17 13 11 10 11 13 14 18 21 24 24 23 23 23 22 22 26 29 24 22 22 21 20 20 22 21 20 22 28 30 29 30 30 31 28 24 22 20
28 27 24 18 19 19 15 12 10 11 12 18 20 23 22 23 22 22 22 22 24 28 26 23 23 25 26 24 19 20 22 23 24 26 27 30 30 30 28 26 26 25 28
30 24 24 21 17 15 13 11 8 10 19 23 23 22 22 22 22 21 22 25 26 27 24 25 26 24 26 22 20 21 22 23 24 25 27 29 30 29 25 25 28 28 24
24 23 19 18 17 14 8 7 15 24 20 19 22 22 22 23 23 24 25 25 25 25 28 27 25 19 17 17 19 21 23 22 23 25 26 28 28 25 25 25 24 25 28
19 18 19 15 10 7 10 17 19 17 19 19 20 21 23 24 23 21 20 23 26 28 30 24 19 17 16 17 21 23 23 22 23 25 27 26 25 23 22 25 24 22 25
21 19 14 7 5 13 18 18 17 18 19 20 21 23 26 26 25 24 23 26 29 30 25 20 19 17 18 20 23 24 22 21 22 24 25 22 21 19 21 21 23 26 29
17 12 5 6 19 22 16 18 19 20 20 21 23 26 27 28 27 26 25 28 30 26 20 21 19 21 19 20 21 20 21 21 22 22 19 18 17 17 16 21 23 25 29
10 5 10 20 21 17 19 20 19 19 21 23 25 26 28 28 26 26 27 30 28 25 21 23 23 22 21 19 20 20 22 20 20 17 16 15 15 16 16 19 20 23 25
8 17 21 13 17 18 19 19 20 21 24 26 29 29 29 29 28 29 30 29 27 25 24 20 20 21 22 21 20 21 20 18 18 17 17 17 15 15 18 20 18 20 23
19 12 14 16 17 18 19 20 22 24 27 29 32 34 32 30 28 26 26 27 28 27 26 23 20 20 22 22 21 19 16 17 19 18 19 18 17 17 19 22 21 19 17
10 11 13 16 17 19 22 25 27 28 31 33 33 35 36 32 27 26 24 21 25 27 29 27 25 24 23 25 23 21 18 18 20 20 19 18 17 18 20 23 21 17 16
11 14 16 20 23 25 28 31 34 36 38 39 38 39 39 37 33 27 23 20 19 21 24 28 27 25 24 27 25 25 21 21 21 21 19 17 17 18 21 23 22 19 19
16 19 22 25 27 31 33 34 36 40 39 38 41 43 43 43 38 30 25 23 21 21 22 24 26 26 24 26 27 27 24 23 23 21 19 17 17 18 22 20 19 17 17
21 24 27 30 32 34 37 42 40 40 41 39 39 37 38 41 40 35 30 24 23 21 24 25 27 28 26 23 24 27 24 21 21 18 17 16 16 18 20 17 16 15 17
22 25 28 31 34 36 37 37 41 43 35 38 37 36 35 36 34 42 24 21 24 24 26 27 29 29 27 26 23 22 22 19 17 17 16 14 15 17 18 15 15 15 15
26 28 29 30 32 33 33 33 32 37 40 43 39 32 33 29 21 19 18 20 23 24 27 27 30 29 28 27 25 21 20 18 18 19 17 15 15 17 15 15 14 15 14
26 27 28 29 29 28 28 29 31 34 35 35 33 29 21 14 14 15 16 19 20 22 23 25 26 27 29 25 23 20 19 19 18 19 19 17 15 16 15 14 13 13 13
24 25 25 26 26 23 22 24 26 28 28 29 29 24 18 15 16 16 16 17 18 20 20 22 21 23 25 24 22 20 19 19 20 19 17 15 15 16 14 13 11 12 11
23 22 22 22 21 21 23 27 28 31 30 27 22 19 16 11 8 9 11 12 15 17 15 15 16 16 18 23 21 19 19 19 19 19 17 15 15 15 12 12 9 10 10
20 21 21 22 22 22 23 22 23 24 24 24 23 22 23 19 17 15 15 14 13 11 12 15 16 13 14 15 16 19 19 20 20 21 19 16 16 14 12 10 9 8 7
19 20 21 21 21 21 21 21 22 22 23 22 22 23 23 21 20 19 18 18 19 19 19 19 17 16 15 12 14 14 17 21 19 18 19 18 17 14 12 10 9 7 6
21 22 23 22 21 21 21 22 22 22 24 24 24 23 22 23 23 22 21 19 18 17 17 17 19 20 19 18 15 13 16 13 15 18 18 19 18 15 13 11 9 7 6
22 21 22 22 22 22 22 22 22 23 23 23 23 24 23 23 23 22 22 21 20 20 18 16 16 17 19 21 20 19 18 17 15 17 19 18 18 14 13 11 10 9 6
20 21 21 21 21 22 22 23 23 23 24 24 23 23 23 23 24 24 24 23 22 21 20 18 17 17 17 16 21 21 20 19 13 15 19 18 17 15 13 11 11 10 8

GFSGL_850_spd_066.txt.gz
Wind_Speed
23 22 22 24 27 28 28 30 30 21 17 15 10 8 12 17 18 18 19 18 18 18 18 20 24 25 20 17 17 17 17 17 21 23 22 22 26 28 27 27 27 28 28
29 28 30 29 28 27 26 17 10 17 17 9 8 11 18 17 18 20 19 19 21 21 19 22 26 23 21 19 20 20 20 21 22 23 25 26 27 27 28 28 26 24 24
31 28 27 29 26 23 19 17 20 11 6 6 13 16 18 19 21 20 21 21 22 20 21 25 25 21 22 22 22 22 23 21 20 24 26 27 29 28 28 27 26 24 23
31 30 31 26 22 18 19 13 9 7 9 12 16 20 20 19 20 21 22 21 20 22 25 25 23 23 25 23 23 24 25 19 22 23 26 28 28 27 28 28 28 25 25
31 29 24 17 17 16 11 9 7 9 12 15 23 19 19 21 21 21 20 20 23 24 24 24 25 26 26 25 24 25 20 20 22 24 26 27 28 27 26 26 26 26 28
27 23 16 16 14 12 10 6 8 12 17 26 19 20 20 20 20 20 20 21 22 23 25 26 27 28 24 21 19 19 18 21 23 25 26 27 27 27 24 24 24 26 24
22 17 16 14 13 10 7 9 12 22 26 20 20 20 20 21 21 23 22 24 24 25 26 29 29 24 20 19 18 18 21 23 24 25 25 25 27 23 23 23 22 23 26
18 15 14 11 6 4 10 18 25 19 20 21 20 20 22 23 23 25 26 27 27 27 28 29 25 20 21 19 20 21 24 24 23 23 25 25 23 20 19 21 22 26 28
15 14 11 4 8 15 21 19 18 21 21 21 21 22 25 27 27 28 28 28 29 31 30 27 24 22 20 20 22 23 23 22 21 22 23 22 19 17 17 20 21 26 30
13 7 4 11 16 22 15 20 20 21 21 23 25 25 28 30 30 30 29 28 32 34 32 27 25 24 21 23 22 23 23 21 20 21 20 18 17 17 17 18 20 24 24
4 6 13 20 15 16 17 19 20 21 25 27 29 30 30 31 32 32 30 28 29 32 32 30 26 22 21 22 22 25 24 19 19 19 19 17 17 17 17 17 18 20 22
7 9 10 11 11 14 16 18 21 26 30 33 35 38 38 36 35 34 33 32 29 28 31 30 27 24 24 25 23 27 22 21 20 19 20 20 19 17 16 17 18 20 19
8 8 9 12 15 18 22 25 28 30 34 37 40 44 47 46 41 37 36 34 32 29 30 27 25 24 27 26 26 26 22 23 25 22 22 22 18 17 18 18 19 20 19
8 10 13 16 19 22 25 28 31 34 36 38 40 43 44 45 44 43 40 36 35 31 29 25 23 23 23 25 25 24 27 26 27 24 24 23 19 19 18 18 21 20 20
11 14 18 22 25 28 30 32 34 34 33 34 34 34 36 41 42 40 39 40 37 36 25 22 23 25 24 23 24 24 24 27 28 25 25 24 20 19 17 17 20 18 19
15 18 22 26 28 30 32 34 32 33 33 32 32 30 32 33 34 34 36 35 34 35 23 22 24 24 25 24 22 24 22 21 24 25 23 22 19 17 16 16 17 17 18
19 21 23 24 26 28 29 30 35 36 32 32 33 30 27 29 32 29 29 26 20 21 21 21 24 26 28 25 24 24 24 22 20 21 21 19 17 15 15 15 15 16 17
18 20 21 22 23 24 25 25 26 30 35 38 34 29 29 28 22 21 19 17 16 17 19 20 22 24 24 24 26 27 23 21 19 21 20 19 18 17 15 14 14 15 15
18 19 20 22 22 22 22 23 24 26 28 29 32 30 29 28 24 18 16 15 16 15 16 19 20 20 21 23 23 23 21 20 19 19 19 18 18 18 15 14 14 14 14
16 18 19 20 20 21 21 23 24 25 27 27 27 27 29 29 28 25 22 16 12 12 13 14 15 16 15 16 18 18 21 20 20 19 20 19 18 17 15 14 13 12 11
17 18 18 19 20 21 21 22 24 24 25 25 24 24 26 26 24 24 24 24 23 20 16 15 14 13 15 15 15 15 16 17 18 19 19 19 18 17 14 14 12 11 10
17 18 19 21 21 21 21 22 23 24 24 25 26 25 24 24 25 24 23 23 23 22 20 20 19 16 14 15 15 15 14 14 16 20 20 20 19 17 16 14 12 10 8
19 19 20 21 21 21 22 22 23 24 25 25 26 26 26 25 25 25 25 24 23 23 22 20 19 19 19 18 17 14 15 13 14 15 20 21 21 19 18 15 12 10 8
20 21 21 21 21 21 22 22 23 23 24 25 25 25 25 25 25 25 25 25 25 23 22 21 19 19 19 18 18 17 16 17 16 13 14 20 21 21 19 16 13 10 8
20 19 20 21 21 22 22 22 22 22 22 23 24 24 24 25 25 25 25 26 25 25 23 21 20 21 20 19 18 18 19 19 18 17 12 17 22 21 20 15 13 11 10
19 19 20 20 20 21 22 22 22 22 23 24 24 24 25 25 26 26 26 27 27 26 24 22 21 21 21 20 20 20 19 19 20 20 17 16 23 22 21 16 14 12 10

GFSGL_850_spd_069.txt.gz
Wind_Speed
24 23 23 23 24 29 28 26 26 25 20 10 20 23 7 10 15 18 17 18 18 17 17 18 19 20 23 22 19 17 16 18 20 21 19 17 21 22 22 27 28 28 28
20 22 24 28 29 28 24 25 21 17 19 15 17 10 11 15 18 19 19 19 20 20 20 21 21 22 25 22 20 18 19 19 21 23 21 17 21 21 26 28 27 26 26
22 23 24 27 25 23 23 18 17 16 13 12 10 8 12 19 20 20 20 21 22 22 22 22 24 26 26 21 20 20 21 22 25 26 21 18 21 24 22 22 24 24 24
23 25 28 23 21 19 15 14 16 12 8 7 8 11 19 22 21 19 21 21 21 22 22 25 26 26 26 23 21 22 24 25 23 24 19 20 19 18 21 21 19 18 19
24 23 21 22 18 12 16 15 9 2 5 9 10 21 19 18 19 19 20 21 22 23 24 26 27 27 27 27 27 22 20 21 19 18 20 20 20 19 19 18 20 19 20
17 19 22 18 15 12 14 8 0 5 4 13 22 19 20 20 20 20 21 23 24 25 27 27 27 28 28 29 30 26 22 20 20 21 21 22 22 20 18 18 18 17 19
17 20 18 13 13 11 3 4 5 11 23 16 16 19 20 20 20 21 22 25 28 29 29 29 29 30 29 29 23 22 23 22 23 24 25 23 22 20 18 17 16 17 19
19 16 13 15 11 8 5 8 14 20 14 16 19 20 20 21 22 23 25 27 29 30 30 30 32 33 31 26 24 24 24 24 24 24 26 22 20 23 20 16 16 18 19
17 17 17 13 7 3 14 16 14 14 16 18 19 20 23 25 24 25 27 30 32 33 32 32 32 34 33 26 24 26 25 24 23 23 24 24 24 22 19 15 16 17 21
18 17 10 3 7 13 14 12 13 15 17 19 21 23 25 28 28 28 29 34 36 35 35 33 30 29 29 26 26 27 29 26 22 23 22 23 21 19 17 17 16 17 18
14 8 4 8 10 9 10 11 14 16 20 23 27 30 32 33 35 35 35 37 39 38 37 37 34 29 24 25 25 27 27 23 23 23 23 19 19 18 17 16 17 17 17
8 2 8 9 8 10 12 15 18 22 25 28 32 35 35 37 38 36 33 32 32 34 37 38 37 32 23 24 27 28 28 25 26 27 23 21 19 17 16 16 17 19 20
4 6 4 7 10 13 15 18 20 23 25 28 29 32 34 31 29 30 34 33 28 28 33 35 36 34 25 22 24 23 27 25 26 29 26 22 21 16 17 20 20 21 22
3 4 7 9 11 14 16 18 19 20 22 23 23 27 32 31 29 29 30 32 34 35 32 33 31 31 27 23 23 21 22 23 25 26 30 25 23 22 21 19 19 17 17
4 6 9 11 14 16 17 17 18 18 19 21 21 22 27 30 30 30 31 33 32 33 34 33 34 28 25 25 24 21 20 22 22 23 26 28 27 23 21 20 20 17 16
6 9 11 13 15 16 17 17 17 17 18 17 18 20 22 24 28 29 28 27 26 26 24 25 26 23 23 23 24 21 20 20 21 21 22 23 24 23 19 19 20 16 14
9 10 12 14 15 16 17 18 20 20 19 19 20 20 21 23 25 27 27 26 23 21 17 17 19 20 19 20 21 25 20 22 21 21 21 22 22 20 18 19 15 14 13
10 12 13 14 15 17 18 19 20 21 23 22 23 23 22 23 24 25 26 26 22 17 14 12 12 14 17 18 18 20 20 20 20 20 21 21 21 19 19 19 15 14 12
10 11 12 13 14 15 17 18 19 21 22 23 25 25 25 24 24 25 25 23 22 21 21 19 15 14 14 12 15 16 16 17 19 17 20 20 19 19 21 19 16 15 15
10 11 12 13 14 15 16 18 19 20 21 23 25 27 29 29 28 27 25 25 24 23 22 21 21 18 16 14 13 13 14 14 15 16 19 21 19 19 20 19 18 15 13
11 12 13 14 15 16 17 18 19 20 21 22 23 23 24 25 25 25 24 23 24 24 24 23 22 22 20 18 16 14 14 12 14 13 16 21 19 20 19 19 17 15 14
12 14 15 15 16 17 18 19 20 20 21 22 23 22 22 22 23 23 23 22 23 23 23 23 23 22 21 21 20 18 15 13 12 13 14 16 20 20 20 19 18 15 13
14 14 15 16 16 17 18 19 19 20 21 21 22 22 22 22 22 22 23 23 23 23 22 22 23 22 21 19 18 18 18 17 15 14 14 14 17 23 22 21 18 15 13
15 15 16 16 17 17 18 19 19 19 20 20 21 21 21 21 22 22 23 23 24 24 23 23 22 21 21 20 18 17 17 18 19 18 17 16 15 20 25 23 20 16 14
15 16 16 16 17 17 18 18 19 19 19 20 20 21 21 22 22 23 23 24 25 25 24 22 22 22 21 21 20 19 19 19 19 20 19 18 16 17 24 25 21 17 14
16 17 17 17 17 18 18 19 19 19 20 20 20 21 22 23 23 23 24 25 25 25 24 24 23 22 22 21 20 20 20 20 19 18 20 20 17 18 22 26 21 17 15

GFSGL_850_spd_072.txt.gz
Wind_Speed
24 24 22 21 23 25 27 30 28 24 24 20 16 11 21 16 12 13 13 14 14 15 15 16 17 17 18 19 19 20 21 21 27 28 23 23 21 21 21 22 24 24 23
19 18 17 20 24 27 27 24 24 20 16 14 15 15 12 10 12 13 16 16 16 17 18 19 20 19 21 21 21 22 23 24 27 30 28 25 23 20 21 22 24 22 22
20 22 20 17 15 16 19 21 19 12 17 16 10 12 10 11 12 15 16 17 18 19 20 21 22 22 23 23 24 24 25 26 27 27 29 25 24 20 21 21 22 23 21
20 18 19 20 22 25 19 13 14 12 20 11 9 11 13 13 15 16 15 16 18 19 20 21 22 23 25 25 25 25 26 28 28 28 27 26 22 21 21 23 23 20 21
20 22 24 19 16 17 5 3 12 16 10 14 8 13 15 18 15 13 14 16 17 19 20 22 23 25 28 30 29 27 27 28 28 25 26 22 23 22 22 22 23 23 21
17 14 17 18 18 16 9 12 12 10 11 9 13 14 15 12 17 19 20 21 19 21 23 24 25 27 29 30 30 32 32 29 30 28 24 24 24 24 22 21 22 22 22
15 17 18 18 19 12 13 12 11 5 10 14 13 12 12 13 19 19 21 23 23 23 25 26 27 27 28 28 27 30 31 28 28 28 27 25 24 22 21 22 21 21 22
19 19 20 18 16 14 11 6 5 10 12 9 9 10 12 14 19 20 22 25 25 25 25 27 28 29 28 30 30 29 27 25 25 24 24 24 23 20 19 20 20 21 21
20 20 18 17 15 11 7 9 8 7 7 9 10 11 13 15 20 23 24 27 27 29 29 30 31 32 31 32 33 30 28 26 24 28 28 28 29 29 28 22 20 18 20
21 21 18 14 8 5 6 6 6 7 8 8 10 12 18 23 23 27 29 31 36 35 34 34 34 37 35 33 33 31 32 27 22 23 20 21 22 22 22 22 18 19 19
23 20 14 8 7 7 6 6 7 7 10 14 20 22 24 25 24 26 27 25 24 28 29 33 34 32 34 33 31 29 32 26 24 25 22 20 19 18 18 18 18 19 20
19 14 11 7 6 5 5 7 8 11 15 19 21 21 18 18 20 21 23 24 24 27 30 30 30 31 32 32 35 29 29 30 29 28 27 24 22 20 18 18 18 19 20
14 10 7 6 5 6 7 10 12 13 15 15 15 14 14 16 16 19 22 24 25 27 29 31 31 30 29 27 30 32 24 26 27 31 30 25 23 20 18 17 17 19 20
8 8 7 6 6 8 10 11 11 11 12 12 13 14 14 14 15 20 25 26 25 25 26 28 30 30 30 26 24 26 21 20 22 24 24 21 20 23 23 18 17 16 16
8 7 6 6 7 8 9 8 8 10 12 12 12 12 15 15 18 23 25 27 27 27 28 27 24 20 22 22 21 22 20 21 21 21 21 20 21 23 26 21 16 16 16
7 6 6 7 7 6 6 7 10 9 11 12 12 15 16 19 22 24 25 24 25 25 22 18 19 18 19 17 20 20 20 21 21 21 20 22 20 22 22 19 16 17 16
6 6 6 5 5 6 6 5 4 10 13 13 13 15 17 20 21 23 24 23 23 21 15 15 15 16 15 12 15 15 18 17 18 19 22 22 21 18 21 17 16 15 14
5 5 4 5 6 6 6 7 7 8 8 8 14 17 18 19 21 22 23 22 17 15 14 15 15 16 17 17 16 14 14 17 17 18 19 20 22 20 18 16 16 15 14
4 5 6 7 7 8 8 9 8 9 10 10 12 13 19 20 21 20 19 15 16 15 15 16 16 17 17 17 18 17 16 13 16 17 18 18 19 20 18 15 15 15 14
5 6 7 8 9 9 10 10 9 10 11 11 12 13 18 22 15 15 14 14 15 15 16 16 17 17 18 18 18 19 18 15 13 12 16 17 18 20 17 16 16 14 13
6 8 9 9 10 11 12 12 11 12 11 12 12 14 20 21 14 15 15 14 15 16 17 18 19 19 18 18 19 20 19 17 14 12 11 13 14 19 18 16 15 15 14
8 9 10 11 12 13 13 14 13 13 13 13 14 15 20 16 14 15 15 16 16 16 17 18 19 19 18 19 20 20 20 19 17 15 13 13 9 15 19 17 17 17 13
10 11 12 13 13 14 14 14 14 14 15 15 16 16 16 15 17 15 17 18 17 18 20 20 20 21 20 20 20 20 20 20 19 19 18 14 14 11 17 20 20 18 14
11 12 12 13 14 14 14 15 14 14 16 15 15 15 15 17 17 17 18 18 20 20 21 21 22 22 21 22 22 21 20 20 20 20 19 19 16 16 14 20 22 21 17
13 13 14 13 13 14 14 12 12 13 14 15 16 17 17 18 18 18 18 20 21 21 21 22 21 22 23 23 22 22 21 21 20 19 19 21 20 16 18 19 22 23 19
13 13 13 13 12 12 12 12 12 14 15 16 18 18 19 19 19 19 20 21 21 22 22 21 22 24 25 24 23 21 21 20 20 20 20 21 20 19 18 22 21 25 21

GFSGL_850_spd_075.txt.gz
Wind_Speed
26 24 26 26 23 23 23 23 20 21 26 27 27 24 16 11 17 17 11 12 14 17 16 16 17 17 18 19 20 21 22 24 29 31 29 28 28 28 29 27 26 25 27
22 23 26 20 22 25 24 23 24 27 26 21 14 15 15 17 11 12 13 13 16 18 17 18 18 19 21 22 23 24 26 26 29 33 34 32 31 29 31 25 22 24 28
23 28 25 22 24 24 21 18 22 22 14 6 15 15 9 12 7 12 14 15 17 18 18 19 20 21 23 25 26 27 29 30 30 32 35 33 32 30 30 27 24 25 24
29 28 22 24 26 27 27 22 20 19 15 7 16 12 11 10 13 14 15 15 16 17 18 19 21 22 24 26 27 30 31 31 31 32 34 32 30 33 29 30 26 24 24
22 24 26 28 25 20 15 13 17 13 10 13 16 7 5 10 13 15 12 13 16 17 19 20 22 24 28 31 33 36 33 33 32 32 34 30 32 30 27 24 23 22 23
23 21 24 23 20 20 17 18 13 16 12 9 8 10 10 13 16 19 19 20 19 19 21 22 24 26 28 31 33 33 33 35 37 35 36 35 34 30 24 20 20 21 25
19 20 19 20 23 23 14 16 13 11 9 6 8 10 11 11 16 19 19 20 21 20 22 24 26 26 29 30 32 35 36 36 35 34 32 31 32 27 23 23 22 23 24
19 19 21 22 24 19 16 14 11 9 7 9 8 8 8 9 17 21 21 22 23 22 23 25 28 31 32 32 34 35 36 37 32 30 30 27 26 25 21 19 18 19 23
20 21 22 22 21 17 14 10 7 7 7 6 6 7 8 9 16 22 26 26 25 26 25 26 28 33 35 36 39 39 39 41 35 32 35 35 34 29 29 31 30 25 28
20 20 21 18 15 14 8 6 6 7 7 7 7 7 11 14 15 23 27 29 29 28 27 24 27 29 32 34 36 38 43 37 35 31 26 30 30 33 30 30 31 27 24
20 20 18 16 10 8 8 7 7 6 7 9 14 15 16 15 15 21 23 23 22 26 28 30 29 27 29 31 32 34 37 35 34 33 30 27 27 21 20 22 23 20 21
20 18 15 13 10 6 7 5 5 5 6 11 15 13 9 11 13 15 20 23 23 26 28 28 28 30 31 33 33 34 32 31 32 29 31 31 27 26 26 24 24 22 23
16 14 12 9 7 6 6 5 4 4 6 8 10 9 9 12 7 17 23 22 21 22 24 27 29 29 31 30 27 27 27 26 29 27 28 30 31 31 25 26 27 25 24
14 12 10 8 7 6 4 4 4 6 8 8 8 9 10 10 9 19 22 23 24 24 25 27 26 24 26 26 26 24 22 21 21 22 22 22 21 21 23 22 25 23 23
11 10 8 8 8 6 8 8 7 12 10 10 11 12 13 13 15 20 22 23 24 25 26 24 21 21 23 21 20 21 21 18 20 20 20 20 19 19 21 22 25 25 23
10 9 8 6 6 6 5 8 9 11 13 14 14 13 15 18 19 21 22 22 22 21 19 18 20 19 19 20 18 18 14 22 22 20 21 22 22 21 20 20 23 23 21
8 6 5 5 5 5 5 4 5 12 16 15 15 16 17 19 20 21 23 21 18 17 13 16 18 19 19 18 19 19 20 19 15 17 19 22 24 24 22 22 22 21 20
3 4 4 4 5 5 5 7 7 7 8 9 14 18 23 22 19 21 22 19 14 13 13 15 16 18 18 19 19 19 21 21 18 18 16 20 21 24 23 23 21 20 18
4 4 6 7 9 9 9 9 9 9 10 11 11 13 14 25 20 16 18 13 14 14 15 15 16 17 18 18 18 19 18 20 20 19 16 15 19 20 22 23 21 18 17
8 7 7 8 9 9 9 10 8 10 11 11 13 14 16 20 20 13 15 15 15 15 16 16 16 17 18 18 19 19 20 19 19 18 17 12 10 16 20 21 21 18 17
6 9 8 9 10 11 11 10 9 10 12 12 13 15 23 25 18 14 15 15 16 16 17 17 17 18 18 19 19 19 20 19 18 16 19 17 13 12 13 19 19 18 16
8 10 11 11 12 11 11 12 11 11 12 13 14 14 20 18 14 16 15 17 19 17 16 18 18 18 18 18 19 19 20 20 19 19 18 19 15 16 12 12 18 17 17
10 11 11 10 11 12 10 10 11 11 13 13 14 15 15 16 16 16 16 17 17 18 17 18 18 19 18 18 19 19 19 20 20 20 22 21 18 15 16 12 13 19 18
10 10 10 10 10 14 10 12 11 13 14 14 15 15 15 16 16 17 17 17 18 18 18 18 19 20 19 20 21 21 22 22 21 22 22 22 20 17 14 16 11 18 20
9 9 9 10 10 11 12 12 13 14 14 14 15 15 15 16 16 16 17 17 19 18 18 20 20 19 20 23 24 24 23 23 23 22 23 22 21 19 17 15 17 12 20
9 9 10 11 12 12 13 14 14 15 15 15 16 16 16 16 16 16 17 18 17 20 23 20 20 21 22 23 23 23 24 23 24 22 22 23 22 19 18 15 17 13 21

GFSGL_850_spd_078.txt.gz
Wind_Speed
36 36 37 36 32 33 30 27 26 24 23 26 29 31 30 29 24 25 19 21 8 15 17 18 20 21 23 24 24 25 26 26 31 35 32 31 32 31 33 33 30 31 33
34 34 37 33 33 32 34 33 30 27 27 33 31 29 28 20 15 18 20 18 14 12 18 19 20 20 22 23 25 27 28 29 31 37 36 32 30 27 29 28 31 30 33
31 34 37 34 30 33 30 25 28 27 28 29 25 23 21 18 14 17 17 12 12 15 18 20 21 23 24 25 26 28 29 30 31 34 39 37 33 29 30 32 33 33 32
29 34 36 31 30 31 27 26 21 25 25 23 11 13 18 21 13 15 10 13 18 19 17 19 22 25 27 27 28 29 29 30 31 32 34 33 31 32 32 33 38 34 33
32 36 31 29 25 28 26 23 23 22 21 16 9 15 18 16 11 10 16 20 20 19 21 23 23 21 24 27 30 34 35 37 38 40 41 42 37 35 35 35 31 34 24
28 25 23 21 25 25 24 24 19 23 20 11 12 15 13 8 11 18 21 22 22 23 23 22 23 24 27 27 29 32 33 33 37 40 40 38 37 37 34 33 30 21 20
21 18 17 21 23 23 22 21 23 22 16 14 13 12 12 15 17 20 20 20 21 21 22 23 24 25 25 29 31 32 33 33 33 35 38 39 38 36 32 28 26 21 21
18 16 17 21 24 25 23 22 20 18 16 13 10 14 17 14 13 17 20 20 22 23 23 23 26 29 30 30 35 39 42 43 39 32 34 36 37 33 26 25 26 24 23
17 17 20 22 27 24 21 19 17 15 11 14 14 11 10 13 15 17 20 23 25 27 29 30 29 29 30 31 35 38 40 41 40 42 40 38 37 38 32 32 31 27 34
18 20 23 25 25 20 18 18 12 12 12 11 12 15 15 17 19 21 24 26 28 29 27 27 26 27 28 26 27 31 37 38 37 34 34 35 30 29 27 30 30 32 34
21 22 22 19 17 16 13 13 14 13 15 18 20 17 16 17 21 23 23 24 24 24 24 26 27 27 27 27 28 31 35 37 36 34 34 33 31 28 28 27 26 25 25
21 21 21 19 16 15 16 15 14 14 16 16 15 14 13 14 17 18 22 23 22 24 26 27 27 26 27 27 27 28 28 28 29 30 31 29 27 27 29 26 27 27 27
23 20 20 20 16 15 13 12 12 11 11 13 13 11 10 14 12 16 21 23 23 24 24 25 25 25 24 23 23 24 25 27 28 29 29 28 27 24 25 25 25 30 27
20 19 17 16 14 14 13 13 12 13 12 12 10 12 14 15 17 22 22 23 23 23 25 25 24 22 22 26 28 27 24 25 27 27 24 23 21 20 20 18 21 23 24
19 17 17 17 14 14 13 10 9 9 9 11 13 15 16 17 20 19 21 23 23 24 26 25 21 20 29 27 25 22 23 22 19 21 24 23 22 21 19 18 18 21 24
16 15 13 12 10 7 6 6 7 8 10 12 13 14 17 19 19 19 22 22 22 22 22 19 18 22 26 26 24 24 24 24 26 26 22 25 21 21 22 20 20 21 23
14 9 7 5 5 5 6 5 6 9 12 14 15 15 16 17 21 21 20 22 19 15 15 16 19 21 23 24 23 23 24 24 24 24 24 23 18 22 20 21 24 22 23
8 6 5 5 4 3 7 9 9 10 12 13 15 16 20 23 24 23 23 20 15 13 15 16 18 21 22 23 24 23 23 24 24 24 23 21 18 17 17 23 24 21 23
3 1 3 7 9 9 9 10 12 12 13 13 13 12 14 20 24 24 17 14 18 19 17 18 21 21 22 23 23 22 23 23 24 22 21 20 20 15 12 17 20 23 22
4 4 6 8 8 10 12 12 12 11 13 14 13 14 20 25 29 29 16 14 18 19 19 20 21 21 21 22 22 22 23 23 23 20 21 18 21 19 15 10 12 22 21
5 6 7 9 11 12 12 13 13 13 12 14 15 17 21 23 25 19 13 17 18 20 22 22 19 22 22 21 22 22 22 23 22 20 21 22 22 21 17 14 12 14 16
6 9 12 11 12 12 14 15 14 15 14 14 16 17 19 20 19 19 20 20 20 21 22 22 22 22 22 21 23 22 22 22 20 22 23 24 23 20 18 16 14 7 14
10 10 10 11 13 15 14 12 14 15 14 17 18 18 18 18 19 20 21 21 21 21 23 25 22 20 20 22 20 18 21 22 24 25 26 26 24 21 19 17 15 12 6
10 10 11 12 11 14 13 12 16 13 14 16 18 19 18 19 20 20 20 20 22 23 23 23 20 23 23 17 19 21 23 23 22 23 23 25 26 23 19 17 16 15 9
11 11 11 12 12 13 14 14 15 16 17 18 18 19 20 19 19 20 21 21 22 24 22 22 24 20 18 21 21 20 19 23 26 26 26 25 24 22 19 18 16 13 13
12 11 13 13 14 14 15 16 17 17 18 19 20 21 19 19 20 21 21 22 20 21 25 24 20 20 20 19 18 19 22 22 23 23 24 24 22 20 18 17 15 14 14

GFSGL_850_spd_081.txt.gz
Wind_Speed
39 42 39 39 40 39 40 36 34 31 25 24 27 29 32 39 29 31 30 29 21 26 25 19 17 17 19 19 20 22 24 26 33 37 36 34 34 33 30 29 31 32 30
41 44 42 39 38 38 35 36 35 29 24 22 21 26 32 34 30 32 29 21 26 21 21 16 19 20 20 20 20 22 24 25 30 37 36 34 32 31 29 29 27 22 29
42 39 37 42 41 38 30 31 32 30 25 25 22 29 29 34 31 26 21 19 18 18 15 16 18 20 21 23 25 26 27 28 30 34 37 36 37 32 31 32 36 38 40
38 35 35 40 41 30 30 36 34 28 27 22 23 30 31 28 23 22 17 17 15 11 14 18 21 23 24 25 26 25 26 29 31 35 39 42 42 41 40 39 41 38 35
38 32 34 37 34 29 33 30 27 26 28 28 25 26 23 23 23 17 16 15 15 19 23 24 24 25 26 26 25 27 28 30 31 34 36 37 40 40 40 41 38 35 35
28 28 30 31 32 25 25 27 30 30 27 28 24 19 21 20 16 15 16 16 21 24 24 24 25 25 25 25 25 26 28 31 33 33 35 34 38 37 37 38 36 32 31
29 27 27 23 22 23 24 28 28 28 27 26 18 18 19 17 14 14 16 20 22 24 24 23 24 25 26 27 29 31 33 34 35 38 42 42 40 38 37 33 34 33 29
18 15 15 16 17 19 25 26 27 27 26 18 16 15 13 12 15 20 23 22 22 22 22 24 24 26 28 31 34 35 35 36 36 35 34 36 36 38 42 39 36 33 28
14 15 15 15 20 24 26 27 27 25 19 17 14 15 18 21 21 21 21 22 22 22 24 26 27 27 25 27 31 33 34 34 30 29 31 32 31 30 28 28 29 34 32
15 13 15 17 21 23 25 24 22 19 17 17 19 21 20 20 20 21 22 22 23 25 26 24 23 23 25 25 26 29 33 34 32 32 32 30 29 30 31 29 30 34 26
14 14 16 20 25 25 23 20 20 19 19 19 18 19 20 20 20 20 22 24 24 22 22 21 22 23 23 23 22 24 24 27 29 30 32 32 30 28 26 23 23 29 29
17 19 21 21 20 19 19 18 19 20 20 20 19 18 18 19 20 22 22 23 22 21 22 23 24 23 22 22 20 20 21 24 27 28 28 30 29 30 25 23 24 22 25
15 19 23 22 19 18 19 21 20 19 19 19 19 18 17 19 20 20 20 20 21 22 23 24 23 22 21 21 21 24 26 27 26 24 22 30 32 28 20 21 20 23 21
24 23 23 23 22 20 20 19 19 17 16 16 15 15 16 18 20 21 21 22 22 23 23 23 22 20 19 20 25 26 23 21 21 23 24 20 20 25 22 20 19 20 19
24 22 21 19 18 16 15 13 12 12 12 13 14 15 16 18 20 22 22 23 23 22 23 22 20 18 21 25 26 26 24 22 23 23 23 25 25 21 24 24 21 18 18
22 19 16 15 12 7 7 8 9 10 9 11 12 15 16 16 17 18 19 19 19 19 19 18 16 19 22 24 26 27 26 25 23 23 23 23 22 24 24 21 20 20 21
17 13 10 8 6 4 5 7 8 10 16 18 14 12 13 15 16 17 18 19 15 14 15 15 17 21 23 24 26 27 28 25 23 22 24 22 21 22 21 18 19 22 24
12 10 7 4 4 7 8 9 11 11 11 13 16 15 15 17 17 17 18 22 23 17 17 18 20 21 23 25 25 25 25 23 24 24 24 21 19 22 22 19 12 17 27
6 8 8 7 9 8 6 9 10 13 14 15 15 15 16 17 17 19 22 25 20 17 19 20 20 22 24 24 24 23 23 24 24 25 23 21 21 22 22 20 18 11 10
4 5 5 4 5 7 11 13 11 12 14 14 15 14 15 19 22 25 24 16 14 17 19 20 20 23 24 23 24 25 25 25 25 24 23 20 23 23 22 21 18 15 13
0 2 4 7 11 11 12 12 13 14 14 14 15 17 19 20 21 22 18 17 19 20 22 24 25 24 23 26 27 25 24 24 22 22 20 24 25 25 22 19 19 17 13
4 7 9 9 10 11 12 13 13 13 14 15 16 16 18 21 20 19 19 19 19 21 22 24 24 25 27 24 25 24 25 20 21 22 25 25 24 23 21 20 18 15 12
6 6 7 9 11 13 14 13 12 13 16 16 16 17 19 20 19 19 20 21 21 21 21 23 27 27 25 21 23 20 18 21 24 21 22 25 26 25 23 21 18 16 13
9 10 11 11 12 13 14 14 15 15 14 17 19 20 20 21 21 22 22 22 23 24 25 26 27 27 24 25 20 20 21 19 17 21 25 24 24 23 21 19 17 15 13
11 12 12 13 14 14 15 16 16 17 18 19 20 21 22 23 23 21 23 24 25 25 26 26 24 26 25 20 20 18 17 17 19 20 21 24 25 23 21 19 16 15 13
13 13 14 14 14 16 17 17 18 19 18 17 19 22 22 22 23 26 26 26 26 24 24 25 25 23 20 18 17 17 18 18 20 20 21 24 26 23 21 18 16 15 13

GFSGL_850_spd_087.txt.gz
Wind_Speed
47 47 46 46 45 43 43 44 43 42 43 42 44 45 41 41 40 38 40 40 41 39 44 34 32 33 29 28 27 25 22 20 26 26 26 25 26 28 28 28 30 31 30
51 49 50 47 47 46 46 45 45 47 48 46 43 47 39 39 38 40 41 40 38 38 40 37 34 33 29 26 23 23 22 22 27 30 27 28 29 29 31 32 33 33 33
53 52 52 52 51 51 48 46 46 47 46 46 28 39 40 38 38 38 36 37 36 36 37 36 34 28 27 24 23 23 23 25 27 31 32 33 33 33 34 35 35 35 35
51 50 50 51 51 48 47 48 47 47 40 26 34 36 37 37 32 34 36 39 42 39 38 33 28 26 23 21 23 24 25 27 30 32 33 34 34 35 36 37 38 38 39
42 44 46 47 49 47 46 43 43 44 40 39 34 34 32 39 34 33 33 37 43 40 34 29 23 22 22 24 25 25 27 28 30 33 34 35 36 36 36 37 40 42 42
35 38 39 39 39 40 39 40 40 37 38 39 33 31 34 40 38 34 34 38 35 22 23 22 21 20 22 24 25 26 29 30 31 32 34 35 37 37 38 36 36 36 39
33 34 33 33 33 34 33 29 27 26 30 29 28 31 36 39 39 32 33 30 28 26 22 20 19 22 23 25 26 27 28 28 31 33 35 35 36 34 34 34 31 32 35
28 26 26 28 29 27 23 19 19 23 21 24 29 34 35 30 30 27 24 19 18 18 16 19 21 23 25 25 26 26 28 29 29 29 30 32 32 30 28 28 30 32 33
21 22 21 20 18 14 13 16 19 21 20 24 28 31 24 23 20 21 21 21 18 18 18 21 25 23 23 25 26 27 27 26 26 27 28 29 29 26 26 27 28 29 34
13 12 10 9 9 10 13 15 18 20 20 19 18 18 19 19 18 18 17 14 18 18 19 18 18 20 22 23 23 24 25 26 26 27 27 28 28 27 24 21 25 26 27
6 7 7 8 11 11 12 13 14 15 17 21 22 21 18 17 18 18 18 16 15 16 15 15 17 18 18 19 21 23 25 27 26 27 28 29 28 25 23 21 20 24 28
7 7 9 9 9 9 11 11 12 16 19 18 17 18 19 18 18 16 14 14 12 13 15 15 16 18 18 23 23 23 23 23 26 28 28 28 27 27 24 23 23 23 27
9 8 7 7 6 7 8 12 14 14 13 14 16 17 15 13 11 12 11 11 13 15 16 18 21 23 26 25 21 20 22 24 26 27 27 28 27 27 27 26 25 24 25
5 5 5 6 7 9 10 10 10 11 13 13 11 9 7 6 7 11 13 15 17 20 20 21 24 23 20 19 18 21 22 23 24 25 27 28 27 27 25 24 26 26 27
5 5 6 8 10 12 12 12 12 12 8 3 3 6 9 11 13 13 16 21 21 20 18 18 18 17 16 17 18 20 22 23 24 24 24 25 26 26 25 24 23 24 24
8 10 11 11 12 11 8 6 3 6 10 13 13 10 12 15 19 20 17 15 17 19 18 18 17 17 17 18 20 21 21 21 22 23 23 25 25 26 26 24 23 23 24
15 16 11 7 3 2 5 7 7 7 7 9 10 12 13 12 13 14 16 17 17 17 18 19 19 18 18 17 18 19 20 21 22 23 24 25 25 25 24 24 23 23 23
6 5 2 0 1 3 4 5 6 7 8 10 12 12 13 13 14 17 18 18 18 19 18 16 15 15 16 18 19 20 21 23 23 23 23 23 22 22 24 23 23 23 23
3 2 2 2 2 3 5 6 7 8 9 10 10 11 9 13 14 16 17 19 18 17 15 15 17 18 20 21 22 23 23 23 23 23 22 21 19 20 22 22 21 21 22
6 5 3 3 3 5 7 8 9 10 11 11 12 12 13 15 17 19 19 19 19 18 18 19 20 20 21 23 23 23 23 24 23 21 20 18 19 19 20 21 21 22 21
7 6 6 6 7 9 10 10 11 11 12 12 13 14 15 16 16 16 16 18 20 21 21 21 22 23 23 24 23 23 24 24 22 20 19 19 20 19 18 20 19 20 20
8 8 8 9 10 10 11 12 13 13 13 13 13 14 16 18 20 21 21 21 21 21 21 22 22 23 23 24 25 26 26 24 22 20 20 21 20 19 19 19 20 20 20
9 9 10 10 11 12 13 14 15 15 16 16 17 18 18 19 19 19 20 20 20 20 22 23 23 24 24 24 25 26 26 24 21 19 20 20 21 20 20 20 20 21 19
11 11 12 12 13 14 14 15 16 16 17 18 18 18 18 19 20 21 21 22 23 24 24 24 24 25 26 26 24 23 21 19 18 18 19 22 23 21 20 21 20 20 19
13 14 15 15 15 15 15 16 16 16 16 17 19 19 19 20 21 22 24 25 26 27 27 25 26 25 23 21 20 18 17 17 18 19 21 22 22 21 19 18 20 19 17
14 15 14 14 15 16 16 16 17 18 19 18 18 18 20 22 24 25 26 27 27 26 25 23 21 21 20 18 16 16 16 16 17 18 21 22 21 18 16 17 19 19 17

GFSGL_850_spd_093.txt.gz
Wind_Speed
30 31 33 34 34 34 34 35 36 37 38 39 40 41 42 43 43 43 44 46 47 47 47 46 41 37 42 44 48 39 38 37 39 37 30 27 27 24 22 24 25 26 26
32 32 33 32 32 33 34 33 33 35 36 35 35 36 38 40 42 43 45 51 55 54 52 39 32 43 46 47 49 39 40 40 41 41 34 31 27 22 24 27 27 28 29
35 34 34 35 35 35 36 35 35 35 34 34 36 38 40 43 44 41 44 38 44 47 43 35 45 44 52 51 48 44 43 46 45 39 35 29 26 26 25 27 28 30 31
36 37 38 38 39 39 39 38 36 36 37 38 39 39 40 42 39 41 41 42 40 40 41 44 42 49 55 59 44 45 46 44 40 35 30 28 25 25 25 26 29 30 32
30 35 39 38 39 39 38 35 34 34 35 35 36 39 37 36 36 40 45 50 39 38 40 42 42 41 43 44 43 46 42 36 32 31 28 27 25 24 27 24 29 29 31
23 25 27 30 34 37 36 36 35 34 34 34 32 30 31 31 31 28 34 37 36 39 37 40 42 40 37 36 34 32 30 26 26 29 30 27 24 24 23 26 28 27 19
20 19 20 20 20 22 23 24 24 23 21 22 22 25 25 28 32 33 30 32 34 33 36 37 34 32 26 23 23 25 26 28 30 28 24 22 22 21 22 24 23 24 22
17 16 15 14 15 15 14 15 15 16 17 19 24 28 27 27 27 26 26 24 24 25 25 23 23 24 23 24 22 20 19 18 17 18 18 18 18 20 22 22 22 24 25
10 11 10 10 10 10 11 12 13 15 18 20 19 15 18 20 19 22 20 17 19 20 17 17 16 17 17 19 18 14 14 14 12 10 14 19 21 18 17 20 22 20 22
9 8 8 8 9 10 11 11 11 10 8 8 10 11 10 12 13 13 10 12 14 15 15 13 9 8 8 9 11 9 9 10 12 14 17 19 20 20 20 19 23 26 21
14 12 10 10 9 8 6 4 1 3 4 4 6 6 6 7 6 10 9 9 8 6 5 4 6 9 13 16 17 16 15 14 16 19 19 20 23 26 27 26 23 22 25
16 16 14 11 9 8 5 4 2 2 3 5 6 7 6 4 4 4 4 4 3 6 8 10 14 17 19 19 18 16 17 19 18 19 20 22 23 23 22 23 24 25 26
15 15 13 11 9 7 5 6 6 6 5 7 6 7 7 7 7 6 6 7 9 11 13 15 17 17 17 15 16 16 15 16 17 19 19 19 20 23 24 24 24 24 26
13 14 14 11 13 12 12 10 10 11 10 10 8 7 6 6 7 9 10 12 14 15 15 15 15 15 14 12 13 15 16 17 17 18 19 20 22 22 22 22 24 22 24
19 18 17 15 16 15 15 16 14 14 10 8 7 6 6 7 8 9 11 11 12 12 13 14 14 14 11 11 13 15 17 18 17 18 19 19 20 18 18 17 17 18 19
20 20 18 16 15 15 14 14 12 11 9 8 7 5 6 4 3 6 8 9 11 13 12 10 10 11 10 10 10 11 14 14 13 15 15 16 17 19 19 18 17 17 19
19 18 16 14 13 12 12 11 10 11 10 8 8 6 5 3 4 8 10 12 13 14 11 10 10 9 8 8 9 11 13 13 18 15 17 17 18 19 19 17 17 17 18
16 15 13 13 12 12 11 11 10 9 8 8 7 5 4 7 10 12 13 15 16 14 11 11 12 11 12 13 13 14 16 17 17 18 18 18 19 18 18 17 17 17 18
15 15 14 14 13 12 11 10 9 8 8 6 4 4 8 10 13 14 16 17 15 13 14 13 13 13 14 15 16 17 18 18 20 21 19 19 18 16 16 16 17 17 19
17 15 14 14 13 12 12 11 10 9 9 9 10 13 14 16 18 19 19 19 17 16 16 14 14 14 16 16 17 17 18 18 19 19 19 18 16 16 17 18 17 17 17
16 14 13 12 12 12 11 11 12 11 11 12 13 15 16 16 16 16 17 19 19 19 19 20 20 21 20 19 19 19 20 22 22 21 20 18 17 17 15 15 15 16 18
13 13 12 13 13 13 13 13 13 12 12 12 12 13 14 14 15 16 16 17 18 19 20 21 22 23 23 24 24 25 26 25 22 19 18 17 14 14 14 15 16 17 17
13 13 14 14 14 13 13 14 13 13 14 13 13 13 14 15 15 16 17 18 19 20 20 21 22 22 22 22 22 23 23 22 20 19 17 16 15 15 15 16 16 17 16
14 14 14 15 14 14 14 14 14 14 13 12 12 13 14 16 17 18 18 18 19 19 20 21 21 21 21 21 20 19 18 18 18 17 17 18 19 18 18 19 18 18 17
14 15 15 15 15 15 14 14 13 12 12 13 14 15 16 16 17 17 18 19 20 20 19 19 18 18 17 16 16 16 16 17 17 18 19 20 21 21 20 19 17 16 16
15 15 15 15 14 14 13 12 12 13 14 15 15 16 16 17 18 19 19 20 19 18 17 16 15 15 16 17 17 18 18 18 19 19 21 22 22 19 16 15 16 17 18

GFSGL_850_spd_096.txt.gz
Wind_Speed
27 28 29 29 30 33 33 36 37 37 34 32 32 31 32 35 35 36 37 38 36 40 41 46 48 51 52 52 44 53 51 43 50 52 39 31 34 38 37 37 40 38 34
28 28 29 28 30 32 36 35 36 37 37 37 35 33 33 34 37 38 44 48 47 46 47 51 54 52 49 58 59 48 51 57 47 49 43 40 41 42 39 38 38 35 31
28 29 29 30 31 32 34 36 31 32 31 29 30 31 31 32 33 37 43 42 42 49 47 48 42 42 44 48 47 47 49 50 48 47 46 46 46 44 41 36 35 34 27
29 29 29 29 29 28 29 30 31 30 30 31 32 32 31 30 29 30 35 39 42 42 43 42 44 40 39 40 45 48 48 50 54 57 48 50 48 43 37 37 36 36 30
29 29 28 28 27 27 27 28 28 28 29 28 26 27 27 28 31 34 36 35 34 33 35 37 36 38 39 41 41 45 44 44 43 46 45 44 36 33 36 34 34 26 23
25 24 23 23 24 25 25 25 26 27 28 28 27 26 29 29 27 24 25 30 32 33 32 33 34 34 34 35 35 37 37 35 35 37 42 36 31 28 28 26 25 21 15
20 19 19 19 20 21 20 20 21 23 21 21 21 22 25 26 26 27 28 28 26 27 28 30 29 28 28 28 27 28 28 27 26 26 25 24 22 20 19 18 16 15 18
16 15 14 14 13 12 13 14 16 20 20 23 23 23 24 24 23 23 22 21 20 20 21 22 22 22 20 17 16 17 16 16 17 17 16 15 14 14 15 17 20 22 21
19 17 15 15 15 15 15 16 17 17 17 16 15 14 13 11 13 15 16 14 14 14 14 13 12 10 9 9 8 8 9 12 14 15 17 19 21 21 18 17 18 18 24
18 17 16 14 13 13 13 12 11 9 9 8 6 3 2 3 6 7 7 7 6 5 3 3 3 6 9 11 13 14 15 16 18 20 21 22 21 20 21 24 26 25 23
24 22 20 18 16 14 13 11 9 8 7 5 4 4 3 5 6 3 3 3 4 5 6 7 9 11 13 16 17 17 17 17 19 18 19 19 20 21 23 24 25 27 27
25 24 23 21 18 14 10 9 8 6 6 7 7 8 7 9 9 9 8 7 6 7 9 11 14 16 18 18 17 16 16 14 15 15 17 17 16 16 17 19 24 25 26
26 23 21 18 16 14 12 12 11 9 9 10 8 9 9 8 6 5 6 8 10 11 12 13 15 15 15 13 15 14 13 12 13 13 13 13 15 16 23 23 23 23 25
26 23 22 20 20 18 16 14 14 13 12 11 10 9 7 6 6 7 9 11 12 13 14 14 14 14 15 14 14 14 14 12 13 13 12 14 14 16 17 18 19 20 21
28 26 24 22 21 19 19 18 15 14 11 9 8 6 5 6 6 8 10 11 12 13 12 11 11 11 11 11 12 12 10 11 13 11 14 15 17 18 19 19 19 21 22
27 25 24 23 21 19 18 17 14 11 8 6 5 5 5 3 3 7 10 12 13 12 10 11 11 12 12 12 12 12 12 14 14 15 18 18 19 20 21 22 21 20 21
24 23 21 19 18 16 15 14 13 11 9 7 6 4 3 5 7 9 11 14 16 11 10 11 11 12 12 13 14 14 15 16 19 18 19 20 20 21 21 21 20 19 20
23 20 18 17 17 15 15 13 11 10 8 7 6 7 8 9 12 13 13 13 11 12 10 10 11 12 12 13 14 15 16 17 17 17 19 19 19 19 20 19 18 18 19
19 19 19 18 16 14 13 12 10 9 8 8 7 8 10 11 12 11 10 10 10 9 10 10 10 11 12 13 14 14 15 16 18 17 18 18 18 18 18 17 18 19 20
21 19 17 17 15 13 12 10 9 8 8 6 6 8 8 10 10 11 11 11 9 9 10 11 11 12 13 14 15 15 16 17 17 17 17 18 17 17 18 18 18 18 18
18 17 15 14 13 12 11 10 10 9 8 7 7 9 9 8 8 8 9 10 11 11 12 12 12 13 13 14 15 15 16 16 16 16 16 16 16 16 16 16 17 17 18
15 15 14 13 13 12 12 11 10 9 9 7 6 7 9 8 8 9 10 12 13 12 12 14 14 13 14 14 15 15 16 16 15 15 15 15 15 15 16 16 17 17 18
14 14 14 15 14 14 13 12 11 10 8 7 6 7 8 9 10 10 12 14 14 15 16 17 16 16 15 16 17 15 14 14 15 15 16 15 16 16 16 17 17 18 18
15 15 15 15 14 13 13 12 10 9 8 7 8 8 9 10 11 12 14 15 15 15 15 15 14 14 15 15 15 16 16 16 18 18 17 17 17 17 17 18 18 18 18
15 15 15 15 14 13 12 10 9 8 8 7 8 9 10 10 11 13 13 14 14 14 13 13 13 13 14 15 16 17 19 20 20 20 21 20 20 20 19 18 17 17 17
16 15 15 14 12 11 9 9 8 7 7 8 9 10 10 11 12 12 13 13 14 13 12 12 13 15 16 18 19 20 21 21 21 21 21 22 20 17 16 16 16 17 17

GFSGL_850_spd_099.txt.gz
Wind_Speed
24 24 25 25 23 25 27 27 29 27 28 27 28 33 32 32 31 31 34 37 34 33 33 35 38 38 39 39 43 46 51 52 53 56 52 48 52 54 54 46 49 53 57
22 24 24 25 25 26 27 31 29 30 29 28 31 28 29 31 31 34 36 37 35 38 41 40 40 39 44 47 51 50 46 47 55 59 57 50 51 55 53 47 45 47 54
23 23 23 24 24 26 26 28 28 29 28 28 28 30 31 32 34 34 36 38 40 38 39 39 44 46 49 48 46 43 42 46 48 54 54 49 48 48 47 48 48 49 40
25 25 25 24 25 24 24 25 28 27 27 28 29 28 29 27 27 28 29 32 34 35 40 38 39 41 41 39 39 39 38 40 43 44 48 47 45 45 45 50 46 43 44
26 26 26 24 23 23 23 23 23 25 25 23 23 23 23 24 25 28 29 32 35 37 31 35 39 38 35 34 33 34 34 35 38 41 44 45 44 45 43 43 40 41 41
26 26 24 23 22 23 22 22 21 21 21 20 20 20 20 26 31 31 31 34 37 37 32 32 32 31 33 33 32 32 31 31 33 32 35 37 35 35 32 32 35 33 28
24 23 23 22 22 21 19 19 19 18 17 23 26 26 25 27 29 32 33 31 29 28 28 27 25 23 23 23 24 25 24 25 26 25 24 23 22 21 18 17 17 19 21
22 21 20 20 19 18 19 23 24 24 25 25 26 27 29 28 27 27 25 23 19 16 13 11 12 13 15 16 15 15 14 13 12 12 13 13 14 16 17 19 21 24 28
18 18 18 19 25 27 25 25 23 22 22 22 20 18 16 15 14 12 9 6 6 6 4 6 8 10 9 11 12 14 15 17 17 17 17 18 19 21 23 22 21 18 21
32 28 28 28 26 24 21 20 20 18 17 14 12 9 8 6 3 2 3 4 4 5 6 7 8 9 11 13 15 17 18 19 20 21 21 22 22 22 22 22 21 23 23
29 24 22 23 22 21 20 19 17 16 16 16 14 14 11 10 9 8 7 6 6 7 8 10 11 13 16 18 18 17 16 16 16 18 18 18 18 17 16 17 16 17 20
30 27 26 27 27 25 23 23 20 19 18 16 14 14 13 11 10 9 8 8 9 10 11 12 15 16 17 15 16 17 16 15 15 15 15 14 13 13 16 18 21 24 27
37 33 29 30 29 26 22 22 21 18 16 16 13 13 11 9 8 6 7 8 10 11 12 14 16 17 15 15 19 20 17 16 15 17 16 14 15 17 19 19 20 20 20
39 34 28 28 27 26 25 23 21 17 16 15 13 10 9 7 6 7 10 12 13 13 13 14 13 13 14 14 14 14 14 13 14 14 13 15 18 19 20 20 22 23 25
35 31 27 27 26 29 27 22 18 17 14 12 11 8 7 7 9 10 11 13 13 12 10 10 12 13 13 13 13 13 13 15 16 16 19 22 21 22 23 24 24 26 28
32 29 26 26 25 23 23 24 20 15 10 9 8 6 7 6 6 10 13 12 12 10 9 11 11 12 13 14 15 15 15 17 18 20 20 20 21 22 24 25 23 24 26
31 30 26 23 22 21 20 17 18 15 10 9 7 6 6 7 8 10 10 12 15 11 11 11 12 13 14 14 15 15 16 16 17 17 18 19 20 20 21 22 22 22 22
28 26 24 22 21 19 17 16 13 12 11 10 9 10 10 10 11 10 8 8 11 14 13 12 12 12 12 13 13 14 15 16 16 18 18 19 19 20 21 21 21 22 23
24 23 22 21 20 19 16 15 13 12 11 11 9 12 14 14 15 13 11 13 13 12 12 11 11 11 12 13 14 15 16 16 18 18 18 18 19 19 20 20 21 22 22
25 22 20 20 18 17 15 14 13 11 9 8 7 8 8 9 11 13 14 13 12 11 11 10 11 11 12 13 14 15 15 16 17 17 18 18 18 18 19 20 20 22 21
21 19 18 17 16 15 14 13 12 11 10 9 10 10 9 9 9 10 10 10 10 10 10 11 11 11 12 13 14 15 15 16 16 17 17 18 18 18 18 19 20 21 22
18 17 16 16 15 14 14 13 13 11 10 9 8 9 11 9 8 8 8 9 9 10 10 11 11 11 12 13 14 14 14 15 16 17 17 18 18 18 19 20 21 21 22
17 16 15 15 15 14 14 13 12 10 9 8 7 7 7 7 8 8 9 10 11 12 12 12 12 12 12 13 14 14 15 15 16 18 19 19 19 19 20 21 22 23 23
16 15 15 15 14 13 13 12 11 9 8 7 6 6 7 7 8 8 10 12 13 13 13 12 11 11 13 15 16 17 17 18 21 22 22 22 22 19 21 22 22 22 22
15 16 15 14 13 13 11 10 8 8 7 6 6 6 7 7 8 10 11 13 13 13 12 11 11 13 15 17 18 19 20 23 24 24 24 24 23 22 20 20 20 20 21
14 14 14 13 12 11 9 8 6 6 5 5 6 7 8 8 10 11 12 13 14 13 12 12 13 15 17 18 18 21 22 23 23 24 25 25 24 20 19 21 21 21 20

GFSGL_850_spd_102.txt.gz
Wind_Speed
30 28 25 23 22 21 29 31 26 26 29 34 38 40 41 40 41 43 44 41 39 39 41 41 38 38 37 38 40 41 43 47 51 51 51 47 46 47 47 49 48 50 49
26 31 28 27 24 23 21 28 30 29 29 30 30 34 39 38 42 42 39 38 35 34 36 35 37 36 36 38 40 45 48 48 50 53 49 47 46 42 44 46 48 46 49
27 25 29 31 29 27 28 26 27 29 26 27 27 25 25 29 33 35 36 37 36 35 35 34 35 36 37 38 41 44 51 50 47 46 41 42 42 40 41 43 44 46 47
27 29 29 30 32 30 28 32 31 28 28 30 30 29 31 30 30 32 33 33 32 32 32 34 35 37 41 42 43 37 24 28 32 35 36 38 39 40 40 42 43 43 44
30 28 27 25 26 27 27 26 27 29 29 29 29 27 26 26 29 31 28 26 28 28 29 31 33 35 42 31 30 29 28 28 29 28 29 30 32 32 32 32 33 34 35
30 30 28 27 26 27 26 25 25 24 25 23 23 26 28 29 31 28 27 28 31 33 35 31 28 28 23 30 28 26 22 23 21 20 21 22 24 24 25 26 26 26 27
31 28 27 27 27 26 25 24 23 23 27 28 28 27 27 28 30 30 29 32 36 31 24 19 15 15 13 11 14 17 18 17 17 15 16 16 16 17 17 18 18 19 20
23 26 25 25 24 22 25 30 28 28 28 28 27 27 28 28 28 27 25 23 23 14 7 2 2 6 8 10 12 13 12 13 13 13 13 14 15 16 18 19 21 22 24
23 22 22 24 31 32 30 29 29 30 28 25 22 20 16 13 12 14 9 5 4 4 4 5 6 8 9 10 11 13 15 15 15 16 17 17 18 19 21 22 22 23 25
32 35 36 35 33 31 29 27 26 25 25 21 19 14 12 11 10 10 8 6 5 6 6 6 8 9 10 12 13 14 14 14 15 15 16 16 17 17 16 16 15 16 18
30 31 31 30 29 25 25 24 24 24 24 22 20 20 17 15 14 12 10 8 8 7 7 8 10 11 13 12 14 16 15 13 13 15 16 14 12 8 10 15 18 21 24
29 29 30 29 28 25 23 24 24 24 26 26 24 22 18 16 13 11 8 8 9 9 11 11 12 13 14 16 17 18 15 14 17 19 14 10 12 14 17 18 17 17 17
31 29 28 30 30 31 31 29 29 25 23 23 20 18 16 13 12 11 11 11 11 11 12 12 12 12 12 12 13 12 13 14 14 12 12 14 16 20 23 22 23 23 25
32 37 38 39 38 37 38 30 27 23 20 18 17 16 14 12 11 11 11 11 11 10 9 8 9 8 7 8 10 11 14 15 16 17 18 19 20 20 23 23 26 28 29
40 39 37 35 33 31 33 28 24 21 15 16 16 14 11 11 12 11 11 11 10 8 7 7 11 12 11 11 12 13 14 16 19 20 18 19 20 22 23 24 24 25 26
39 37 36 34 34 30 30 31 23 19 15 13 15 12 12 12 9 9 10 11 9 6 7 11 13 14 14 14 14 15 16 18 19 19 20 21 21 23 24 24 23 23 26
36 36 33 30 29 26 24 23 24 20 16 15 14 12 11 9 8 9 12 13 13 9 12 13 13 13 13 13 14 16 17 18 17 19 20 20 22 22 24 24 25 25 27
36 32 28 26 25 24 22 20 18 17 17 19 17 16 16 14 11 10 10 7 10 14 14 14 13 13 13 14 16 16 17 17 19 19 19 20 21 22 23 24 25 25 27
29 29 27 25 24 22 22 21 19 18 17 17 16 18 16 15 14 13 11 13 13 13 11 10 11 12 13 12 13 13 14 16 17 19 19 21 21 22 23 22 23 25 26
25 25 25 25 24 21 18 17 15 14 13 13 13 14 12 8 12 14 14 13 12 11 10 9 9 9 10 11 12 14 15 16 17 18 19 20 21 21 21 22 24 26 27
25 23 22 22 21 20 17 15 14 14 16 15 15 11 10 9 10 10 11 11 12 11 10 9 8 8 10 12 14 16 16 16 16 18 20 21 22 22 20 21 24 25 25
23 22 20 20 19 18 17 16 16 15 13 12 12 11 9 8 8 8 9 10 10 9 9 10 9 10 11 13 15 16 17 17 18 20 23 25 25 23 22 23 22 25 27
19 19 19 20 19 19 17 16 15 14 12 10 8 7 8 9 9 9 9 10 10 10 10 10 10 10 11 14 15 17 18 18 20 23 27 29 28 26 23 22 24 24 23
18 18 18 19 18 18 17 15 13 13 10 8 8 7 8 8 7 8 9 10 11 11 11 10 10 11 12 14 16 16 17 20 24 26 26 27 27 27 25 23 20 21 26
18 18 18 17 17 16 14 13 11 9 8 7 6 5 5 5 6 7 9 11 12 12 11 10 10 11 13 15 16 17 19 21 22 23 26 28 29 28 26 24 22 26 27
16 16 16 15 14 13 12 10 9 7 6 4 4 4 5 5 7 9 10 12 12 13 12 11 11 12 14 15 16 18 19 21 24 25 26 27 28 27 26 25 24 23 23

GFSGL_850_spd_105.txt.gz
Wind_Speed
26 28 27 25 23 22 23 23 25 28 33 38 42 42 43 40 38 33 31 32 37 33 32 31 36 35 37 41 40 36 39 40 45 45 45 47 47 46 44 38 36 39 36
26 29 27 25 24 23 24 24 26 25 25 27 32 34 36 35 36 34 35 38 38 38 41 40 38 37 38 35 34 37 39 40 43 48 48 48 41 33 36 35 35 33 35
26 30 28 27 27 25 23 26 26 26 26 27 29 31 32 35 37 38 38 37 37 38 38 36 37 37 37 36 36 38 39 39 35 30 33 30 29 35 35 34 34 34 34
25 30 31 30 28 25 23 24 31 28 25 24 24 25 25 27 32 35 36 35 33 32 34 37 38 38 39 40 41 42 39 32 27 30 31 31 29 31 30 30 31 31 33
29 28 30 29 30 26 25 24 25 27 25 24 23 22 22 24 26 25 26 27 30 33 36 37 37 37 39 37 39 33 21 21 18 16 18 19 19 22 23 23 25 26 25
33 29 27 27 32 32 28 27 28 24 24 27 29 31 30 31 33 32 31 32 34 34 33 28 24 27 28 17 9 7 12 7 10 10 11 15 16 16 17 19 22 24 24
34 32 29 26 27 30 28 25 26 32 32 31 31 32 33 33 34 32 31 29 26 25 25 23 18 12 3 3 4 10 10 10 10 9 11 12 13 17 20 21 21 22 23
37 32 29 28 27 26 30 33 32 33 33 32 31 31 31 30 27 25 25 26 29 25 17 10 5 4 3 4 7 7 7 8 9 10 11 12 13 16 17 18 19 20 20
34 36 34 31 35 37 35 34 33 33 31 28 25 23 20 20 20 23 22 20 16 13 10 7 4 3 2 5 6 8 8 9 10 11 12 11 12 10 13 16 20 24 28
34 38 38 40 39 37 37 36 34 30 29 26 25 21 18 17 16 16 14 14 13 11 8 5 4 4 3 4 6 8 8 10 11 12 12 11 9 8 11 16 21 25 26
34 36 37 37 37 33 33 33 32 31 29 27 25 23 22 20 19 15 13 11 9 8 9 9 8 8 7 8 9 11 11 11 13 13 12 10 11 13 16 19 20 20 21
31 33 35 37 37 34 33 32 32 32 33 32 29 28 25 22 18 15 12 10 11 9 11 10 10 8 9 10 11 9 8 11 12 12 13 14 16 19 21 22 22 21 20
27 30 34 37 39 38 40 39 38 38 36 35 32 28 26 21 17 14 12 10 10 9 9 8 6 4 5 8 9 10 12 14 15 15 15 15 16 17 20 20 20 20 20
32 34 36 38 39 39 39 38 37 35 33 31 28 27 24 21 16 14 12 9 6 7 6 5 4 3 4 5 8 12 14 15 15 14 15 16 17 18 21 22 23 25 25
37 39 41 43 42 42 40 34 34 29 26 26 25 23 20 20 16 11 8 7 4 5 4 5 5 6 8 11 12 13 14 15 17 19 19 20 21 22 22 23 22 22 24
37 40 42 43 43 41 42 39 31 29 26 24 22 16 16 15 14 11 10 8 6 4 4 9 10 10 11 12 13 14 16 18 19 19 19 20 22 23 23 22 22 24 25
42 42 41 41 41 39 36 34 34 29 25 21 17 14 13 15 13 12 11 7 8 6 9 11 11 11 12 13 14 15 17 18 18 18 19 20 21 22 24 25 24 24 26
37 35 35 36 34 31 30 29 27 24 23 23 20 18 17 16 13 10 9 8 10 10 12 12 11 11 12 14 14 15 16 16 17 18 19 20 21 24 25 23 23 25 27
34 34 32 31 29 28 25 24 25 25 25 25 21 18 15 15 13 12 9 7 10 10 10 9 10 10 11 12 14 14 15 17 17 18 19 21 23 25 25 24 24 25 26
29 28 26 27 25 24 23 23 22 21 21 20 18 16 11 9 11 11 11 10 10 9 8 7 8 10 11 12 13 14 15 16 17 19 21 23 24 25 26 26 26 27 27
29 27 25 24 24 22 21 21 21 21 21 19 16 12 9 8 10 11 10 9 9 9 9 9 9 10 10 11 12 14 14 16 17 20 22 24 25 27 27 26 26 24 26
22 22 22 23 23 22 22 22 22 20 18 16 14 11 8 8 8 8 9 9 10 9 9 8 7 8 8 10 12 13 15 16 18 21 23 25 26 27 27 26 26 24 23
20 21 22 22 21 21 20 18 17 16 15 13 11 9 7 7 8 9 9 9 8 7 6 6 5 5 7 9 11 14 15 17 19 22 25 26 26 27 26 27 26 25 25
19 20 21 22 21 19 18 18 16 13 11 10 9 7 6 7 8 8 8 7 6 6 5 5 4 6 7 9 11 12 14 17 20 22 24 25 26 27 28 27 27 26 27
19 19 19 19 18 17 16 15 13 11 9 8 7 6 6 7 6 7 7 6 6 7 7 6 6 6 8 10 11 13 15 17 18 21 24 25 27 27 26 26 25 24 23
19 18 18 17 16 15 13 12 10 9 8 7 5 5 6 4 4 6 6 6 7 8 8 8 7 8 9 10 11 13 15 17 19 21 23 24 26 26 25 25 24 24 23

GFSGL_850_spd_108.txt.gz
Wind_Speed
26 27 26 25 23 18 14 13 16 25 34 39 43 49 54 48 33 41 43 40 35 34 34 34 35 33 30 30 33 35 36 38 41 43 41 38 40 42 37 39 36 31 33
24 27 30 26 26 23 20 18 18 18 22 26 36 32 34 39 38 38 36 35 33 33 33 32 32 33 33 37 37 36 38 39 40 41 36 36 33 26 22 25 29 31 34
23 27 29 30 28 26 23 23 22 21 22 23 25 29 30 34 34 35 33 33 31 29 29 31 35 36 39 39 37 38 39 40 38 36 36 31 26 28 29 31 32 33 31
26 28 29 29 28 26 23 24 23 23 22 21 22 24 28 31 32 34 32 33 31 31 35 36 38 41 39 38 39 41 38 35 34 27 24 22 20 24 26 28 28 28 29
28 29 29 28 27 25 23 24 24 24 21 18 19 20 23 27 30 32 32 34 36 36 39 36 35 37 38 40 40 34 26 23 17 14 15 16 19 20 22 24 25 26 23
30 28 30 29 29 27 24 22 23 24 23 21 23 25 27 29 27 27 27 30 31 31 31 32 33 34 30 20 12 10 8 6 8 9 12 15 16 17 18 21 25 27 25
32 29 28 28 26 29 25 22 23 27 31 29 29 30 29 29 27 25 24 26 28 30 29 30 24 16 9 4 3 3 5 9 11 11 9 11 14 17 20 21 20 20 21
33 32 28 27 28 28 29 31 29 29 29 30 31 30 30 29 28 27 27 27 27 26 20 16 12 9 6 3 2 6 7 6 6 7 9 10 13 17 18 18 19 22 22
30 31 28 26 31 34 36 34 34 34 32 32 31 31 29 28 27 27 27 28 24 19 14 12 10 8 7 2 5 6 4 5 6 9 10 12 12 13 16 19 24 27 30
34 33 33 34 32 33 34 35 35 33 33 32 30 26 27 26 22 22 25 24 23 20 17 13 8 5 6 6 3 3 4 6 7 8 8 9 11 15 18 21 23 25 27
34 32 33 33 34 33 33 35 35 34 34 32 31 27 25 23 24 23 22 21 21 19 13 9 6 5 3 4 3 3 6 7 8 9 11 12 14 16 17 19 20 22 23
29 33 33 33 36 37 37 36 36 36 35 33 33 32 29 28 26 23 21 17 15 13 12 10 7 2 4 3 5 8 6 8 9 11 11 13 16 19 20 20 20 20 19
26 29 33 35 37 37 37 38 38 39 38 39 38 37 34 31 27 21 19 17 13 11 13 9 6 6 7 7 9 8 8 9 11 12 14 15 16 18 19 19 19 20 20
23 28 32 36 38 39 41 40 42 42 42 41 37 38 35 28 24 20 18 15 12 11 13 14 9 4 5 8 8 9 11 12 13 14 14 15 17 18 20 21 22 24 25
29 31 34 36 37 38 37 37 38 33 32 33 33 26 27 26 18 14 13 16 15 14 11 9 8 6 7 8 9 11 11 12 14 15 16 17 18 20 21 22 22 23 24
30 32 35 36 36 37 38 37 31 32 30 27 27 22 21 20 20 17 16 15 14 12 10 10 9 8 9 10 10 10 11 13 15 16 17 18 20 22 23 23 23 25 27
30 35 37 39 39 42 42 41 40 34 31 24 22 20 20 21 17 15 14 14 13 10 8 10 10 9 10 9 10 10 12 13 14 15 16 19 21 23 25 25 26 27 28
30 34 36 38 38 38 36 35 33 31 32 30 27 24 20 20 18 16 14 11 12 10 11 11 10 9 9 8 9 9 10 11 13 15 17 19 21 24 26 26 27 28 29
33 35 36 36 34 33 32 32 29 27 29 30 28 23 18 15 15 14 13 9 10 10 9 8 9 8 8 7 7 8 9 11 13 14 16 19 21 24 26 26 27 28 29
37 34 33 31 31 29 26 26 28 27 27 26 24 21 18 15 14 14 12 10 9 8 7 7 7 6 5 5 5 7 8 10 12 14 17 18 21 24 27 28 29 29 28
29 28 27 25 25 26 26 26 26 25 23 22 21 19 16 13 15 13 11 9 7 7 6 5 5 4 4 3 5 7 8 11 13 15 16 19 22 26 27 27 28 27 27
25 23 23 24 23 23 24 23 22 21 19 19 19 17 14 12 12 11 10 9 7 6 4 4 4 2 1 3 5 7 9 11 13 16 19 21 23 25 26 27 27 27 27
18 21 21 22 23 23 23 23 21 19 17 16 14 13 12 11 11 9 8 6 5 3 2 1 0 1 3 5 7 9 10 13 16 19 20 22 23 25 27 28 28 28 27
19 20 21 23 24 24 23 21 18 16 14 14 13 11 10 10 9 7 5 4 3 2 1 1 3 5 6 6 7 9 11 14 16 19 21 22 23 25 27 27 27 25 25
20 21 21 22 21 20 19 17 15 13 12 11 10 8 7 7 6 4 3 2 1 2 3 4 6 7 7 8 9 10 12 14 16 18 20 21 23 24 26 27 26 24 23
18 17 18 17 16 15 14 13 11 10 9 9 8 6 5 4 4 2 1 2 3 4 5 6 7 8 9 10 11 12 13 15 16 18 20 21 23 24 25 26 23 21 21

GFSGL_850_spd_111.txt.gz
Wind_Speed
27 25 25 23 20 14 11 9 14 23 27 38 45 43 51 45 45 43 39 41 39 31 25 24 28 31 31 30 30 29 28 31 36 40 38 36 35 35 34 32 34 31 31
25 25 25 23 23 17 13 9 7 12 18 23 34 39 41 46 41 42 40 40 25 25 30 27 27 28 30 31 32 36 34 37 37 37 38 37 40 36 32 28 26 24 27
26 26 26 25 24 21 16 12 12 10 14 21 30 35 38 41 44 38 32 32 33 28 26 26 30 30 31 34 35 34 38 38 37 36 33 29 25 26 25 25 28 27 28
27 26 28 29 24 22 19 15 15 15 15 17 18 24 28 36 28 32 29 25 24 23 25 27 28 29 33 34 36 38 38 37 35 29 25 22 19 18 21 23 24 23 24
29 26 27 29 26 23 20 17 17 16 15 15 16 18 22 24 26 25 23 23 24 26 28 29 30 33 33 35 35 34 30 23 21 15 11 11 13 16 20 22 24 25 25
29 25 25 27 25 23 21 19 20 19 17 17 19 20 21 23 23 24 23 26 28 28 30 32 34 35 34 32 29 20 14 11 9 5 7 9 13 16 17 21 24 27 28
28 25 22 24 24 23 22 20 21 22 22 21 19 19 20 19 20 21 22 24 28 30 32 32 28 22 21 17 9 7 6 3 4 6 10 11 13 15 19 21 23 24 26
24 24 24 20 21 22 23 24 24 24 24 23 22 21 21 20 19 19 21 24 26 29 27 26 24 20 13 11 8 4 1 2 6 7 7 9 12 15 19 22 25 27 26
9 17 23 22 24 24 26 26 25 24 24 25 24 23 22 23 23 22 23 26 28 28 24 21 19 16 14 8 4 1 2 4 5 7 8 11 13 17 20 22 24 28 31
15 10 18 26 27 27 26 27 25 24 25 25 26 26 26 25 25 27 27 28 29 27 23 21 17 14 11 3 3 3 2 4 4 7 8 10 13 16 18 20 23 25 28
23 20 16 24 26 27 27 28 26 27 27 26 26 23 23 22 25 29 31 30 29 29 25 22 16 10 8 6 6 5 4 5 5 7 9 10 12 14 17 20 22 24 25
21 25 20 23 25 28 30 32 32 33 33 33 32 29 25 23 22 23 23 24 25 23 21 17 12 8 9 7 7 6 6 5 6 7 8 11 14 17 19 20 21 21 21
21 21 22 25 27 28 31 32 34 35 35 36 34 33 33 31 29 26 23 21 18 18 14 12 10 8 8 8 10 8 7 6 7 8 13 15 17 18 18 19 20 22 22
21 25 30 31 33 33 34 35 34 32 34 31 37 40 38 36 32 26 20 16 14 12 13 13 12 10 7 9 9 8 8 10 12 13 15 16 17 19 22 24 26 26 26
22 24 27 30 31 32 32 33 34 33 35 38 31 30 27 29 23 20 17 14 15 12 13 11 11 11 10 9 10 11 11 12 13 15 15 17 19 21 24 25 25 26 28
19 23 25 28 28 29 30 30 22 24 27 28 29 26 25 20 19 16 18 16 14 12 13 12 11 11 10 11 10 11 12 12 14 15 15 17 20 23 24 25 26 27 29
22 26 26 28 31 34 36 39 43 34 30 26 23 20 17 18 16 15 16 17 16 11 10 12 12 11 10 10 10 10 12 12 13 13 16 18 20 21 25 26 27 27 29
21 26 28 31 33 37 38 39 38 37 35 30 22 22 19 18 17 14 13 12 15 13 11 11 11 9 9 8 9 9 10 10 10 12 14 16 19 22 24 25 27 29 31
26 31 35 39 41 41 39 38 36 33 31 30 29 26 21 19 19 18 15 11 12 12 11 10 8 7 7 7 8 8 8 9 9 11 13 16 18 21 23 26 29 30 32
35 39 40 39 38 36 34 32 31 28 29 27 23 21 19 17 16 15 13 10 9 9 8 7 7 6 5 5 6 6 7 7 8 11 13 15 17 21 25 27 29 32 32
31 31 31 31 30 28 25 25 26 27 26 23 21 19 17 14 15 13 12 10 8 8 6 4 5 4 3 3 4 5 6 7 9 11 13 15 18 22 24 26 29 30 31
26 26 24 23 24 25 25 25 24 24 23 21 21 19 15 12 12 11 10 8 6 5 4 3 4 3 0 1 3 4 7 8 10 12 14 16 19 22 25 27 30 30 30
20 21 23 23 23 23 23 22 21 20 20 18 17 16 14 11 10 8 8 7 6 4 3 3 3 4 4 4 4 6 8 9 11 14 16 18 20 22 25 27 30 30 28
17 18 20 21 22 22 21 21 19 18 17 15 14 13 11 10 8 7 6 5 4 3 2 3 5 6 6 6 7 9 10 11 13 14 17 19 20 22 24 26 28 28 26
15 17 18 19 20 19 19 18 17 15 14 12 11 11 10 8 7 6 5 3 1 1 3 5 6 7 7 8 9 10 11 12 14 16 17 18 20 21 23 25 27 26 24
15 16 17 17 17 17 16 16 15 13 12 11 10 9 8 6 5 4 2 1 2 3 5 6 7 8 8 10 11 11 12 13 14 16 17 18 19 21 23 24 25 24 22

GFSGL_850_spd_114.txt.gz
Wind_Speed
28 25 28 26 23 19 16 15 20 22 22 23 33 46 52 59 54 51 45 45 51 50 48 48 41 43 36 27 28 32 31 26 27 27 27 30 33 33 31 31 29 27 29
26 23 26 25 23 20 15 11 11 14 14 13 23 29 41 49 53 52 46 47 41 38 41 35 37 28 25 29 29 27 28 28 30 34 31 31 31 30 28 22 19 18 23
23 23 23 24 24 21 17 12 9 8 15 14 14 30 35 30 39 43 46 34 38 37 36 34 28 22 21 25 25 26 29 31 32 27 27 31 29 27 18 18 19 22 24
23 24 23 23 24 23 18 14 10 8 11 12 18 20 28 34 37 37 30 32 39 37 26 23 26 22 23 24 25 27 27 30 31 30 27 25 24 22 23 23 19 19 21
24 23 22 22 23 21 20 16 13 11 9 9 13 21 24 30 35 37 28 27 27 25 24 21 22 22 22 24 24 26 29 27 26 22 18 17 14 13 14 17 20 20 24
24 23 22 21 23 21 20 17 15 14 12 11 14 14 18 23 21 20 19 22 23 21 20 22 23 23 24 26 27 28 27 21 17 15 13 10 8 11 13 17 19 22 23
22 22 23 22 22 23 21 17 15 17 16 15 14 14 16 15 18 19 17 17 19 19 19 21 22 22 23 21 17 15 12 11 12 9 6 5 8 11 12 15 19 21 24
21 22 21 20 20 21 20 19 17 18 18 16 15 14 14 15 15 16 16 18 19 22 23 23 21 18 13 12 11 11 10 8 5 1 2 3 7 11 15 17 20 20 20
20 23 21 18 19 24 22 21 19 20 18 18 17 16 15 15 15 16 18 21 22 22 21 19 18 16 15 13 11 9 7 5 4 3 6 9 10 12 15 17 19 24 25
19 21 21 22 18 20 21 22 21 20 18 17 17 18 18 16 17 17 20 23 25 25 24 21 19 17 18 12 7 7 6 6 5 6 8 9 11 14 16 19 21 24 27
21 21 21 23 20 19 18 21 22 22 20 20 20 19 18 18 19 23 24 24 26 28 27 24 21 17 13 13 10 6 5 5 6 6 7 9 11 13 16 20 23 24 24
22 21 26 25 19 19 23 25 26 25 25 24 24 21 18 17 17 21 27 28 29 27 27 25 19 16 14 11 10 10 10 8 6 7 7 9 13 17 20 21 21 21 22
17 19 23 23 22 18 27 31 32 32 33 31 29 28 25 20 18 17 20 23 22 25 22 18 17 13 11 10 8 9 10 8 8 8 12 15 17 18 18 19 21 20 20
20 24 26 26 22 17 22 26 28 30 31 33 32 31 29 29 29 27 27 24 21 18 19 19 16 13 12 13 13 12 11 10 11 11 13 16 17 18 20 23 25 26 25
16 21 24 26 27 29 26 24 27 28 30 34 33 32 35 36 31 25 23 20 19 18 17 17 18 17 16 14 13 11 12 11 11 13 14 15 16 18 21 24 26 28 30
14 17 19 23 25 26 27 29 21 20 20 23 29 30 30 28 28 23 21 18 14 15 17 17 17 16 14 13 12 11 11 10 11 12 13 14 16 19 22 25 27 30 31
15 20 21 23 27 32 35 38 43 35 32 33 30 29 27 24 21 20 18 20 19 18 14 16 15 14 13 12 11 10 10 9 10 9 12 13 16 19 23 26 28 31 31
17 22 26 30 32 35 38 41 43 43 41 36 28 25 22 21 19 19 17 17 20 17 13 14 14 13 12 10 9 9 9 9 7 8 11 13 16 20 24 27 29 31 32
22 25 28 32 36 40 42 44 43 41 38 35 30 23 20 20 21 20 19 13 15 15 13 13 12 12 10 9 8 8 6 6 6 8 10 13 16 20 23 25 28 30 31
25 29 33 37 41 41 40 38 36 33 31 29 26 24 21 19 19 19 17 14 12 12 12 10 11 10 9 8 6 5 5 6 7 8 11 14 16 19 21 24 28 31 30
25 27 29 32 32 32 32 31 29 27 27 27 25 22 20 16 17 17 16 14 12 11 10 9 9 8 6 5 4 5 5 5 7 9 11 14 16 18 20 23 26 28 28
26 28 28 28 27 26 25 24 24 25 25 25 25 23 19 16 15 14 13 12 11 10 9 8 7 6 4 2 2 3 4 6 7 9 11 13 15 17 19 22 24 26 27
22 21 21 21 20 20 22 22 22 22 22 22 21 20 18 15 14 13 12 11 9 8 6 5 4 3 1 2 2 4 5 7 8 10 11 13 15 17 19 21 23 26 26
16 16 18 19 20 21 22 22 21 20 20 19 18 17 16 14 12 11 10 8 7 5 4 2 2 2 3 4 5 6 7 8 9 11 13 14 15 17 18 20 22 23 25
14 16 18 19 20 20 21 20 19 18 17 16 15 14 13 11 10 9 7 6 4 3 1 1 2 3 5 6 7 9 9 10 11 13 13 14 15 16 18 19 21 21 22
14 15 17 18 18 18 17 18 17 16 15 15 13 12 10 8 7 6 4 3 2 1 1 2 3 4 6 7 8 9 10 12 13 13 13 14 15 15 17 18 20 21 21

GFSGL_850_spd_117.txt.gz
Wind_Speed
30 28 25 23 23 22 22 21 21 25 28 33 32 34 39 44 46 48 45 44 47 47 45 43 39 35 36 36 36 29 34 35 30 29 23 23 23 24 24 28 28 27 26
29 28 26 24 23 22 21 20 18 20 22 23 27 32 39 40 51 47 44 47 45 49 49 47 50 47 44 43 48 43 40 32 30 29 27 26 28 30 24 21 20 20 21
27 27 25 24 24 22 20 17 13 11 15 17 12 14 22 29 40 48 47 54 50 51 49 51 47 45 48 48 40 30 32 32 30 29 27 28 26 20 19 18 16 18 17
27 25 23 24 24 22 20 16 10 8 9 10 10 12 19 26 42 45 47 51 44 41 43 42 44 44 47 35 30 29 30 26 26 27 27 26 22 21 18 15 14 15 15
25 28 22 20 23 23 22 16 12 9 6 6 6 6 10 17 26 27 34 40 34 35 33 35 38 35 31 28 29 29 25 24 24 25 24 21 18 15 12 11 11 14 17
25 28 22 20 21 23 22 19 14 11 8 8 7 6 6 11 22 28 33 33 26 36 40 34 27 29 25 25 23 21 20 20 21 19 16 14 9 4 5 9 12 13 14
23 28 25 21 22 23 21 20 17 14 12 11 10 9 8 13 14 19 28 29 27 27 27 26 24 24 22 21 21 21 21 20 16 12 10 6 1 3 8 12 14 16 17
23 26 27 23 23 25 23 24 19 18 16 14 14 12 11 11 11 15 17 16 20 20 22 21 19 17 16 16 15 16 14 14 12 9 6 4 6 7 8 11 14 16 18
21 25 27 27 26 28 27 25 21 20 19 18 17 15 15 15 15 13 16 18 22 24 22 19 16 16 15 13 13 13 16 15 12 9 6 5 7 9 13 13 15 17 18
17 22 24 28 29 29 28 26 24 22 21 21 20 18 15 15 16 17 18 19 22 23 23 21 18 17 21 19 14 13 12 13 12 11 9 9 7 8 10 13 16 19 20
23 23 26 27 26 30 30 28 26 25 22 25 22 20 17 16 17 18 21 21 24 27 27 25 23 22 20 18 15 16 15 13 8 7 8 9 11 12 14 16 18 19 20
23 28 29 31 26 29 29 29 29 28 27 27 24 23 21 20 19 23 24 28 31 32 31 29 27 25 23 21 16 14 11 10 11 10 11 11 12 14 16 18 19 19 19
11 23 29 31 30 31 33 34 36 34 32 33 31 29 27 23 20 17 22 25 25 25 28 28 27 23 23 21 14 12 14 13 12 11 12 14 15 16 16 16 17 17 17
13 15 20 26 28 32 34 36 38 39 37 35 34 33 31 27 26 27 30 30 30 31 29 25 22 21 16 17 19 17 14 13 12 13 15 15 14 14 16 18 20 20 19
10 16 23 24 29 30 27 27 28 29 31 35 34 33 34 34 30 28 28 30 28 25 26 25 23 21 22 22 20 17 15 13 13 15 14 14 14 15 17 19 21 23 24
10 16 21 28 26 26 29 29 19 17 17 18 23 26 32 33 34 32 28 24 23 22 23 24 26 24 22 21 19 17 15 13 14 13 12 12 13 15 17 20 22 24 24
11 17 21 20 25 31 34 34 37 29 31 32 35 37 38 37 31 27 25 24 24 23 23 26 24 22 21 19 17 15 14 12 11 10 10 10 12 15 17 20 22 24 24
17 20 23 27 30 34 35 38 43 46 45 41 34 32 31 29 25 21 21 25 28 23 22 22 22 20 19 17 15 13 12 11 9 8 8 9 11 13 16 18 22 24 23
19 25 28 30 33 36 41 45 45 45 44 41 36 28 23 24 23 24 23 18 22 23 21 20 19 18 16 14 13 11 10 9 7 7 7 8 10 12 14 17 21 23 23
20 23 27 31 36 39 42 43 43 40 38 35 32 28 24 23 25 24 21 20 20 20 19 18 18 16 14 12 11 9 8 6 5 5 6 8 9 11 14 16 19 22 23
21 23 25 29 32 34 35 35 34 32 31 29 27 24 24 22 24 23 22 20 18 17 16 15 15 13 12 10 8 7 5 4 3 4 6 7 9 11 13 15 17 20 23
21 25 27 29 31 30 29 29 28 28 27 27 27 26 21 20 21 21 19 18 16 15 14 12 11 10 8 7 6 4 3 2 2 3 5 7 9 10 12 14 16 19 21
23 25 27 27 25 24 23 22 23 24 24 24 24 24 21 19 18 17 16 15 13 12 12 11 9 8 6 5 4 3 1 1 2 3 5 7 9 10 12 14 16 17 19
20 20 20 20 18 19 22 23 22 22 22 22 21 20 19 17 16 14 13 12 11 10 9 8 6 5 5 4 3 4 4 5 5 6 6 8 9 10 12 13 15 16 18
13 14 16 18 19 21 22 22 21 21 20 19 18 17 16 15 14 13 11 10 9 7 6 5 4 3 3 3 4 6 6 6 7 8 8 9 10 11 12 13 14 15 17
13 14 17 19 19 19 19 20 19 18 18 18 16 15 14 12 11 10 8 7 6 5 4 3 2 2 3 3 4 6 7 8 9 10 10 11 11 12 12 12 13 15 16

GFSGL_850_spd_120.txt.gz
Wind_Speed
21 25 30 26 22 22 26 23 22 21 20 21 27 26 34 34 37 43 44 39 42 44 45 43 41 46 41 39 33 30 30 28 25 24 25 24 21 22 26 24 27 28 29
19 21 27 24 21 21 24 23 23 20 20 23 27 27 29 31 35 44 45 45 45 41 44 46 46 45 40 40 36 33 34 31 32 28 31 30 28 31 24 24 24 25 23
20 22 27 25 21 21 21 22 20 17 19 21 24 25 27 28 33 41 46 49 54 53 44 46 49 47 42 40 40 40 38 40 42 37 28 26 24 23 22 22 20 19 17
23 25 28 24 22 21 20 20 17 14 12 14 17 17 17 18 20 35 52 56 53 53 57 47 49 45 35 48 45 44 43 43 35 31 32 33 26 23 21 19 18 16 15
25 27 28 24 23 21 22 20 17 13 10 12 12 12 11 10 11 24 46 47 43 47 48 43 44 48 35 44 45 46 38 38 32 33 27 24 23 20 18 15 12 10 9
28 29 25 23 24 23 24 21 18 15 11 11 9 8 9 5 8 18 33 41 40 41 45 43 40 39 41 36 37 38 38 32 31 25 25 24 19 13 10 7 5 6 8
21 27 29 22 22 24 26 24 21 17 14 13 12 8 7 6 3 17 20 27 35 33 34 36 34 34 35 37 35 30 26 26 24 20 19 15 12 8 4 0 3 6 8
19 27 32 26 23 23 27 27 23 19 17 15 14 12 10 9 6 8 17 24 30 30 33 34 31 29 26 28 27 27 22 19 16 15 14 13 9 6 4 3 6 7 8
19 28 34 30 27 29 31 29 25 22 20 18 17 15 13 14 11 11 24 28 26 29 29 25 24 21 21 20 20 19 19 19 19 15 13 12 7 4 5 5 4 5 6
11 27 32 32 31 34 31 31 28 24 22 20 20 18 17 17 18 20 21 27 29 28 25 24 21 21 21 18 14 17 20 21 19 17 12 9 8 5 3 4 7 8 9
12 24 33 34 34 31 32 31 29 27 27 25 24 23 20 21 22 23 23 22 23 29 29 26 24 23 24 24 21 20 20 20 15 13 12 10 8 7 7 9 11 12 11
11 17 34 35 33 31 34 34 32 30 32 31 29 28 26 26 26 26 27 27 29 28 32 31 31 30 29 27 23 20 19 18 16 14 12 11 11 11 11 12 12 12 11
7 8 28 33 30 31 36 37 38 36 34 35 34 32 30 27 28 30 31 31 32 33 33 34 34 30 28 24 21 20 20 18 17 16 14 13 13 12 11 10 12 13 11
3 7 16 26 34 36 39 41 40 40 40 39 36 35 33 31 29 28 29 30 31 33 36 34 32 28 26 24 23 21 20 18 17 16 15 14 13 11 11 12 12 12 9
3 4 14 17 24 32 38 40 42 40 40 40 37 36 35 34 32 32 32 31 29 31 33 32 31 28 26 26 25 23 20 18 17 17 15 13 11 10 10 12 12 12 10
7 10 11 18 21 24 27 28 21 22 20 20 22 26 28 28 31 33 33 33 33 32 33 32 29 27 26 26 23 21 19 18 17 15 13 11 10 10 10 11 13 13 11
14 17 19 22 29 30 31 33 36 27 24 22 24 27 33 36 35 35 33 33 33 29 25 28 28 27 26 24 21 19 18 16 15 13 11 9 8 8 10 11 13 14 12
14 19 21 24 25 28 31 35 37 41 42 38 35 37 37 34 30 30 29 29 28 26 27 28 27 25 23 21 20 18 17 15 13 10 8 7 6 7 8 9 12 15 13
15 19 24 27 31 34 37 39 42 45 47 44 40 35 31 30 28 26 26 26 27 27 26 26 24 22 21 19 18 16 14 12 10 8 6 5 4 5 6 8 11 14 14
17 19 23 28 32 36 40 44 46 46 43 40 36 32 27 26 27 26 24 25 24 24 23 22 22 20 19 17 15 13 12 10 8 6 4 3 3 4 5 7 9 11 12
18 20 23 27 31 35 37 39 39 40 37 34 29 27 26 25 25 24 24 23 22 22 21 20 19 18 16 14 13 11 10 8 6 4 2 1 3 4 5 7 9 10 12
19 21 25 28 30 32 34 34 33 31 30 30 29 27 24 24 24 23 23 22 21 20 19 18 17 16 14 13 11 9 7 5 4 2 1 2 3 4 6 7 9 11 11
20 22 24 26 27 29 29 28 27 27 28 28 28 26 23 22 22 21 20 20 19 18 17 15 13 12 11 10 9 7 6 5 5 4 4 4 5 5 7 7 9 11 12
20 22 24 26 26 26 25 25 24 24 25 24 24 23 21 21 20 19 18 17 16 14 13 11 11 10 9 7 7 7 6 6 6 6 6 7 7 7 8 8 10 12 13
17 19 20 20 19 20 21 21 22 22 22 22 22 21 20 19 18 17 15 14 13 11 10 10 8 7 6 6 6 6 6 7 8 8 9 9 9 9 9 10 11 12 13
14 15 17 18 19 20 20 21 21 21 21 20 20 19 17 16 15 14 13 12 10 9 9 7 6 5 4 4 5 6 7 8 8 9 9 10 10 11 11 11 12 13 13

GFSGL_850_spd_123.txt.gz
Wind_Speed
11 14 18 23 26 25 21 20 21 18 19 19 18 16 18 21 23 32 42 43 47 47 41 40 41 35 32 33 34 33 30 24 24 20 20 19 22 26 28 30 30 25 26
14 12 19 23 27 29 27 23 19 19 19 20 17 17 23 20 28 29 33 46 53 44 44 41 42 39 36 41 39 33 30 24 28 21 19 21 26 27 28 29 25 24 23
16 13 17 23 26 28 26 23 24 23 19 16 19 22 22 25 27 34 33 43 49 51 45 42 42 40 41 41 37 36 28 31 33 28 27 32 33 30 32 26 24 22 23
16 13 15 22 27 28 25 23 24 22 22 20 21 20 20 19 22 28 34 40 46 50 44 43 42 44 47 46 39 36 32 28 35 35 38 35 35 33 29 25 22 20 19
20 17 15 21 26 27 25 24 25 22 20 19 20 19 20 22 23 23 24 35 48 51 46 43 42 42 43 42 34 40 33 40 37 32 33 34 34 30 28 24 19 15 11
22 18 21 20 28 26 25 25 22 21 19 16 17 19 19 19 21 23 16 33 46 49 52 49 48 43 42 39 39 39 36 36 35 33 37 37 33 27 23 18 13 10 6
19 21 22 23 27 26 26 26 25 23 19 17 17 15 15 14 13 15 13 15 39 45 49 49 48 50 50 49 48 41 38 32 34 37 37 30 26 20 15 11 7 4 2
19 25 20 24 26 25 28 29 28 24 21 19 17 13 12 12 9 10 13 16 24 32 32 37 43 41 36 37 44 39 31 27 24 24 21 21 16 14 10 8 4 2 4
17 25 18 22 27 25 31 32 29 26 23 21 19 16 13 12 9 8 16 19 21 26 26 31 33 34 31 29 29 30 28 25 23 20 19 18 16 12 8 4 2 1 2
15 22 20 23 28 29 34 32 30 27 25 22 20 18 16 15 13 10 13 21 27 27 26 26 28 28 26 23 22 26 26 24 21 20 19 16 11 8 7 4 2 3 3
16 14 18 25 28 36 34 31 32 31 29 26 24 23 21 20 19 19 22 22 27 31 31 31 29 26 26 25 20 21 19 25 23 20 16 13 12 10 8 7 5 4 5
12 12 18 21 33 38 36 34 35 34 33 30 29 27 26 26 27 27 28 29 30 31 35 34 31 27 26 25 24 23 24 22 20 19 17 15 13 12 9 7 6 6 5
13 9 13 19 36 41 37 37 40 38 37 34 32 31 31 29 31 33 34 34 35 35 34 33 34 31 32 30 26 25 25 23 20 17 18 16 14 12 9 7 7 6 5
10 8 7 12 26 37 39 39 41 42 40 38 37 35 33 32 32 33 33 35 35 36 39 39 37 33 29 30 30 26 22 20 20 19 18 16 13 11 9 8 8 7 7
7 3 2 5 16 26 35 37 41 40 39 40 38 38 37 34 31 32 34 36 36 35 36 36 34 32 30 28 25 23 22 21 19 18 16 14 12 10 9 9 9 8 6
4 6 10 7 13 17 27 27 24 29 36 39 40 38 36 34 32 28 29 31 35 37 37 37 34 30 27 26 25 23 21 19 18 17 15 13 11 9 8 9 9 8 6
8 11 16 21 25 25 21 23 33 25 22 20 20 20 23 29 29 32 34 37 36 33 32 30 28 27 27 25 24 23 21 19 17 15 13 11 9 8 7 8 8 9 8
10 13 18 22 27 31 34 35 34 36 38 34 28 32 32 35 36 35 34 34 34 27 27 27 26 24 22 22 22 21 20 17 15 12 11 9 7 6 6 6 7 9 9
11 15 19 23 26 31 35 36 38 41 44 44 40 38 36 37 37 38 32 29 28 25 24 25 23 23 21 21 20 19 17 15 13 11 9 6 6 5 4 4 6 9 10
14 16 19 25 29 32 34 38 41 42 43 43 40 38 36 36 33 28 26 25 25 25 24 23 21 20 19 18 17 15 15 13 10 8 7 5 4 3 2 4 5 7 8
15 16 21 25 29 32 35 36 39 41 39 35 31 26 27 29 27 24 23 23 23 23 21 21 20 19 18 17 16 14 12 10 8 7 5 3 2 1 3 4 5 7 8
18 19 21 25 27 29 31 33 34 36 33 31 31 28 25 25 24 23 21 21 20 20 19 18 18 17 16 14 12 11 10 8 7 5 4 2 1 2 3 4 6 7 8
17 20 24 25 26 27 27 27 27 28 28 27 26 23 22 23 22 21 21 20 19 19 18 17 16 15 14 12 11 9 7 7 6 4 2 2 2 3 4 4 6 7 8
19 21 23 24 23 23 24 25 27 26 25 23 21 19 19 19 19 19 19 18 17 16 16 15 13 12 10 9 8 8 6 5 4 3 4 5 6 6 6 6 7 8 9
19 20 21 21 20 21 22 22 22 20 19 19 19 18 17 17 17 17 16 16 15 14 13 12 10 9 7 6 5 2 3 4 4 5 6 8 8 8 9 9 9 9 9
14 15 16 17 17 17 17 17 17 16 17 17 17 17 16 16 15 15 15 14 13 12 10 9 8 7 6 5 4 4 4 5 5 7 7 9 9 10 10 10 10 10 10

GFSGL_850_spd_126.txt.gz
Wind_Speed
17 16 16 17 26 31 26 23 22 22 24 21 20 21 21 19 21 19 30 36 41 46 54 58 55 43 31 33 31 23 34 39 35 33 32 29 32 28 26 22 21 22 25
19 18 18 19 19 29 32 26 25 24 24 23 21 19 19 18 23 22 28 34 39 46 55 47 54 49 39 34 30 30 31 38 35 29 31 30 29 26 24 21 21 24 26
23 20 17 19 21 26 30 29 24 25 23 24 22 22 20 21 20 22 26 27 41 42 47 59 59 47 43 36 36 33 33 32 28 26 29 33 29 24 22 20 22 25 23
23 21 15 19 21 24 26 30 33 27 24 22 21 21 23 23 20 20 27 29 32 39 49 45 48 48 43 40 38 37 35 34 30 25 25 26 23 22 23 27 29 26 23
22 20 17 19 19 21 25 29 30 26 24 25 22 19 18 18 23 25 25 29 34 38 50 54 47 46 42 42 44 43 46 41 34 26 22 22 27 32 38 37 31 25 19
25 20 20 16 18 19 22 29 26 24 24 25 27 26 27 26 25 23 23 26 30 35 47 53 46 48 44 43 46 47 38 41 40 38 38 51 50 44 35 32 28 22 15
24 20 20 17 17 21 22 29 26 26 25 26 25 23 23 23 24 27 26 26 27 37 45 48 54 48 48 44 46 42 38 40 40 41 42 41 37 36 33 28 22 17 11
24 23 18 18 15 20 23 27 29 28 28 25 23 24 23 21 20 22 25 27 21 27 39 45 52 53 51 51 46 41 41 44 36 38 38 36 30 28 23 19 16 13 9
24 25 21 20 15 23 22 38 33 31 28 24 22 20 16 17 18 16 18 21 17 19 28 35 46 51 48 48 50 48 41 35 28 28 27 24 23 22 18 15 12 9 8
26 25 23 20 16 25 20 38 34 30 30 27 25 21 18 17 16 14 15 18 19 21 24 27 28 30 34 33 29 33 33 27 24 26 28 26 21 16 13 12 9 5 4
25 25 21 20 20 17 20 37 37 33 33 30 27 24 21 19 18 16 17 19 21 26 27 27 29 29 29 27 23 26 28 31 30 28 26 22 19 16 13 9 6 7 8
22 21 19 18 19 20 23 37 38 36 36 32 30 27 25 21 20 19 19 23 23 27 29 29 28 28 26 26 26 29 33 31 30 27 24 22 18 14 12 11 10 8 5
19 18 17 15 16 19 28 41 38 39 39 36 33 30 28 26 25 26 27 28 31 30 31 32 32 30 29 30 31 33 31 28 27 26 24 21 17 16 15 12 10 9 7
16 14 12 12 13 16 28 28 38 40 43 40 37 35 33 31 30 31 32 34 35 37 37 37 35 34 33 34 34 31 29 27 24 21 21 22 19 16 13 11 10 8 7
11 9 6 4 6 9 20 26 33 43 43 41 40 37 37 36 34 34 36 38 38 39 41 42 40 38 38 36 34 30 26 23 23 23 23 21 18 15 14 12 9 8 7
9 6 2 3 8 9 14 18 14 32 39 40 40 39 36 35 37 37 36 36 38 40 40 40 38 35 35 33 30 28 26 25 24 22 20 18 17 15 13 11 9 7 6
7 6 3 5 12 17 20 21 23 18 18 21 26 30 33 35 29 29 34 38 38 36 35 36 36 33 31 28 27 27 27 25 23 21 19 17 15 13 11 10 8 7 6
8 7 8 10 14 19 24 27 30 31 36 34 25 28 29 31 33 37 42 41 42 36 35 35 33 31 30 30 28 27 25 23 20 18 16 15 13 11 9 7 7 7 7
10 13 14 15 18 22 26 31 36 39 44 47 44 41 38 38 40 41 38 37 36 34 34 33 30 29 29 28 27 25 22 20 18 16 14 12 10 8 7 5 4 4 4
13 15 19 22 24 27 30 35 40 42 43 43 42 39 38 38 37 34 31 31 30 30 30 29 28 27 27 24 22 21 19 17 15 13 11 10 9 7 6 3 3 2 2
13 16 17 21 26 27 30 34 36 36 36 38 36 35 35 34 33 31 30 29 28 27 27 27 25 23 22 21 21 20 18 16 13 11 11 9 6 5 3 2 1 2 2
13 15 17 21 23 27 32 35 36 36 36 35 31 30 28 29 28 28 27 26 25 23 22 23 23 23 22 18 16 14 13 12 11 10 8 6 5 4 2 1 1 2 4
15 17 18 20 24 27 30 30 30 31 31 31 28 27 26 26 26 26 26 25 24 23 22 21 20 19 18 16 13 12 11 10 7 6 6 5 4 2 2 3 3 4 5
17 18 19 21 23 24 25 26 26 27 26 25 23 22 23 23 24 23 22 21 20 20 19 18 16 14 13 11 9 7 6 5 4 4 4 4 3 3 3 4 5 7 6
15 16 17 19 20 22 23 23 23 22 23 22 21 20 20 20 20 20 20 18 17 16 15 13 12 11 9 8 8 6 5 4 4 3 3 3 4 5 6 7 7 8 8
12 14 16 17 18 18 19 19 19 18 18 18 18 17 17 17 17 17 17 16 15 14 13 13 11 9 8 7 6 5 3 2 2 2 3 5 6 7 8 8 8 8 8